<?xml version="1.0" encoding="UTF-8" standalone="no" ?>
<gpx xmlns="http://www.topografix.com/GPX/1/1" xmlns:xsi="http://www.w3.org/2001/XMLSchema-instance" xsi:schemaLocation="http://www.topografix.com/GPX/1/1 http://www.topografix.com/GPX/1/1/gpx.xsd" version="1.1" creator="VisuGPX - https://www.visugpx.com">
  <metadata>
    <name>BourgStMaurice</name>
    <desc><![CDATA[2009-07-04_BourgStMaurice Dist.105Km Asc.3062m 4h10.gpx]]></desc>
  </metadata>
  <trk>
    <name><![CDATA[BourgStMaurice on GPSies.com]]></name>
    <trkseg>
      <trkpt lat="45.6074" lon="6.76633">
        <ele>821</ele>
        <time>2009-07-04T07:18:11Z</time>
      </trkpt>
      <trkpt lat="45.6074" lon="6.76636">
        <ele>821</ele>
        <time>2009-07-04T07:18:11Z</time>
      </trkpt>
      <trkpt lat="45.6077" lon="6.76637">
        <ele>821</ele>
        <time>2009-07-04T07:18:16Z</time>
      </trkpt>
      <trkpt lat="45.6078" lon="6.76632">
        <ele>821</ele>
        <time>2009-07-04T07:18:18Z</time>
      </trkpt>
      <trkpt lat="45.6083" lon="6.76589">
        <ele>829</ele>
        <time>2009-07-04T07:18:27Z</time>
      </trkpt>
      <trkpt lat="45.60954" lon="6.76468">
        <ele>837</ele>
        <time>2009-07-04T07:18:51Z</time>
      </trkpt>
      <trkpt lat="45.60973" lon="6.7647">
        <ele>845</ele>
        <time>2009-07-04T07:18:54Z</time>
      </trkpt>
      <trkpt lat="45.61001" lon="6.76491">
        <ele>845</ele>
        <time>2009-07-04T07:18:59Z</time>
      </trkpt>
      <trkpt lat="45.6102" lon="6.76488">
        <ele>845</ele>
        <time>2009-07-04T07:19:02Z</time>
      </trkpt>
      <trkpt lat="45.61041" lon="6.76465">
        <ele>845</ele>
        <time>2009-07-04T07:19:06Z</time>
      </trkpt>
      <trkpt lat="45.61053" lon="6.76438">
        <ele>851</ele>
        <time>2009-07-04T07:19:10Z</time>
      </trkpt>
      <trkpt lat="45.61053" lon="6.76425">
        <ele>851</ele>
        <time>2009-07-04T07:19:11Z</time>
      </trkpt>
      <trkpt lat="45.61033" lon="6.76391">
        <ele>847</ele>
        <time>2009-07-04T07:19:16Z</time>
      </trkpt>
      <trkpt lat="45.61044" lon="6.76368">
        <ele>853</ele>
        <time>2009-07-04T07:19:19Z</time>
      </trkpt>
      <trkpt lat="45.61095" lon="6.76457">
        <ele>851</ele>
        <time>2009-07-04T07:19:32Z</time>
      </trkpt>
      <trkpt lat="45.61115" lon="6.76488">
        <ele>849</ele>
        <time>2009-07-04T07:19:37Z</time>
      </trkpt>
      <trkpt lat="45.6113" lon="6.76502">
        <ele>853</ele>
        <time>2009-07-04T07:19:40Z</time>
      </trkpt>
      <trkpt lat="45.61181" lon="6.76527">
        <ele>853</ele>
        <time>2009-07-04T07:19:49Z</time>
      </trkpt>
      <trkpt lat="45.61309" lon="6.76576">
        <ele>851</ele>
        <time>2009-07-04T07:20:10Z</time>
      </trkpt>
      <trkpt lat="45.6137" lon="6.7661">
        <ele>851</ele>
        <time>2009-07-04T07:20:20Z</time>
      </trkpt>
      <trkpt lat="45.61367" lon="6.76621">
        <ele>851</ele>
        <time>2009-07-04T07:20:22Z</time>
      </trkpt>
      <trkpt lat="45.61371" lon="6.76632">
        <ele>846</ele>
        <time>2009-07-04T07:20:23Z</time>
      </trkpt>
      <trkpt lat="45.61374" lon="6.76636">
        <ele>846</ele>
        <time>2009-07-04T07:20:24Z</time>
      </trkpt>
      <trkpt lat="45.61384" lon="6.76632">
        <ele>845</ele>
        <time>2009-07-04T07:20:25Z</time>
      </trkpt>
      <trkpt lat="45.61442" lon="6.76719">
        <ele>839</ele>
        <time>2009-07-04T07:20:39Z</time>
      </trkpt>
      <trkpt lat="45.61541" lon="6.76917">
        <ele>832</ele>
        <time>2009-07-04T07:21:06Z</time>
      </trkpt>
      <trkpt lat="45.61587" lon="6.76973">
        <ele>826</ele>
        <time>2009-07-04T07:21:16Z</time>
      </trkpt>
      <trkpt lat="45.61624" lon="6.77003">
        <ele>826</ele>
        <time>2009-07-04T07:21:23Z</time>
      </trkpt>
      <trkpt lat="45.61744" lon="6.77061">
        <ele>815</ele>
        <time>2009-07-04T07:21:43Z</time>
      </trkpt>
      <trkpt lat="45.61811" lon="6.77081">
        <ele>818</ele>
        <time>2009-07-04T07:21:54Z</time>
      </trkpt>
      <trkpt lat="45.61856" lon="6.77087">
        <ele>818</ele>
        <time>2009-07-04T07:22:01Z</time>
      </trkpt>
      <trkpt lat="45.6202" lon="6.77093">
        <ele>815</ele>
        <time>2009-07-04T07:22:27Z</time>
      </trkpt>
      <trkpt lat="45.62028" lon="6.77095">
        <ele>815</ele>
        <time>2009-07-04T07:22:29Z</time>
      </trkpt>
      <trkpt lat="45.62029" lon="6.77112">
        <ele>815</ele>
        <time>2009-07-04T07:22:31Z</time>
      </trkpt>
      <trkpt lat="45.62038" lon="6.77117">
        <ele>815</ele>
        <time>2009-07-04T07:22:32Z</time>
      </trkpt>
      <trkpt lat="45.62046" lon="6.77109">
        <ele>816</ele>
        <time>2009-07-04T07:22:34Z</time>
      </trkpt>
      <trkpt lat="45.62045" lon="6.77095">
        <ele>816</ele>
        <time>2009-07-04T07:22:35Z</time>
      </trkpt>
      <trkpt lat="45.62066" lon="6.77084">
        <ele>816</ele>
        <time>2009-07-04T07:22:39Z</time>
      </trkpt>
      <trkpt lat="45.62176" lon="6.77077">
        <ele>817</ele>
        <time>2009-07-04T07:22:56Z</time>
      </trkpt>
      <trkpt lat="45.62203" lon="6.7708">
        <ele>817</ele>
        <time>2009-07-04T07:23:01Z</time>
      </trkpt>
      <trkpt lat="45.62264" lon="6.77099">
        <ele>821</ele>
        <time>2009-07-04T07:23:11Z</time>
      </trkpt>
      <trkpt lat="45.6231" lon="6.77131">
        <ele>830</ele>
        <time>2009-07-04T07:23:19Z</time>
      </trkpt>
      <trkpt lat="45.62376" lon="6.7723">
        <ele>852</ele>
        <time>2009-07-04T07:23:34Z</time>
      </trkpt>
      <trkpt lat="45.62421" lon="6.77358">
        <ele>836</ele>
        <time>2009-07-04T07:23:50Z</time>
      </trkpt>
      <trkpt lat="45.62455" lon="6.77428">
        <ele>826</ele>
        <time>2009-07-04T07:24:00Z</time>
      </trkpt>
      <trkpt lat="45.62473" lon="6.77492">
        <ele>860</ele>
        <time>2009-07-04T07:24:08Z</time>
      </trkpt>
      <trkpt lat="45.62493" lon="6.77543">
        <ele>856</ele>
        <time>2009-07-04T07:24:14Z</time>
      </trkpt>
      <trkpt lat="45.62497" lon="6.77583">
        <ele>856</ele>
        <time>2009-07-04T07:24:19Z</time>
      </trkpt>
      <trkpt lat="45.62486" lon="6.77655">
        <ele>854</ele>
        <time>2009-07-04T07:24:27Z</time>
      </trkpt>
      <trkpt lat="45.62507" lon="6.7774">
        <ele>850</ele>
        <time>2009-07-04T07:24:37Z</time>
      </trkpt>
      <trkpt lat="45.62516" lon="6.77757">
        <ele>850</ele>
        <time>2009-07-04T07:24:39Z</time>
      </trkpt>
      <trkpt lat="45.62531" lon="6.77772">
        <ele>850</ele>
        <time>2009-07-04T07:24:42Z</time>
      </trkpt>
      <trkpt lat="45.62564" lon="6.77776">
        <ele>881</ele>
        <time>2009-07-04T07:24:48Z</time>
      </trkpt>
      <trkpt lat="45.62599" lon="6.77769">
        <ele>881</ele>
        <time>2009-07-04T07:24:53Z</time>
      </trkpt>
      <trkpt lat="45.62614" lon="6.77782">
        <ele>881</ele>
        <time>2009-07-04T07:24:56Z</time>
      </trkpt>
      <trkpt lat="45.62615" lon="6.77803">
        <ele>865</ele>
        <time>2009-07-04T07:24:58Z</time>
      </trkpt>
      <trkpt lat="45.62603" lon="6.77855">
        <ele>865</ele>
        <time>2009-07-04T07:25:05Z</time>
      </trkpt>
      <trkpt lat="45.62605" lon="6.77903">
        <ele>860</ele>
        <time>2009-07-04T07:25:10Z</time>
      </trkpt>
      <trkpt lat="45.62613" lon="6.77922">
        <ele>860</ele>
        <time>2009-07-04T07:25:12Z</time>
      </trkpt>
      <trkpt lat="45.62654" lon="6.7798">
        <ele>881</ele>
        <time>2009-07-04T07:25:22Z</time>
      </trkpt>
      <trkpt lat="45.62689" lon="6.7808">
        <ele>877</ele>
        <time>2009-07-04T07:25:34Z</time>
      </trkpt>
      <trkpt lat="45.62741" lon="6.7818">
        <ele>902</ele>
        <time>2009-07-04T07:25:48Z</time>
      </trkpt>
      <trkpt lat="45.62771" lon="6.78356">
        <ele>898</ele>
        <time>2009-07-04T07:26:08Z</time>
      </trkpt>
      <trkpt lat="45.62781" lon="6.7838">
        <ele>888</ele>
        <time>2009-07-04T07:26:12Z</time>
      </trkpt>
      <trkpt lat="45.62811" lon="6.78413">
        <ele>917</ele>
        <time>2009-07-04T07:26:18Z</time>
      </trkpt>
      <trkpt lat="45.62847" lon="6.78485">
        <ele>901</ele>
        <time>2009-07-04T07:26:28Z</time>
      </trkpt>
      <trkpt lat="45.6287" lon="6.78512">
        <ele>901</ele>
        <time>2009-07-04T07:26:32Z</time>
      </trkpt>
      <trkpt lat="45.62891" lon="6.78528">
        <ele>923</ele>
        <time>2009-07-04T07:26:36Z</time>
      </trkpt>
      <trkpt lat="45.62938" lon="6.78536">
        <ele>923</ele>
        <time>2009-07-04T07:26:44Z</time>
      </trkpt>
      <trkpt lat="45.62972" lon="6.78552">
        <ele>919</ele>
        <time>2009-07-04T07:26:49Z</time>
      </trkpt>
      <trkpt lat="45.62986" lon="6.78549">
        <ele>919</ele>
        <time>2009-07-04T07:26:52Z</time>
      </trkpt>
      <trkpt lat="45.62986" lon="6.78539">
        <ele>935</ele>
        <time>2009-07-04T07:26:53Z</time>
      </trkpt>
      <trkpt lat="45.62981" lon="6.78531">
        <ele>935</ele>
        <time>2009-07-04T07:26:54Z</time>
      </trkpt>
      <trkpt lat="45.62896" lon="6.78463">
        <ele>923</ele>
        <time>2009-07-04T07:27:10Z</time>
      </trkpt>
      <trkpt lat="45.62876" lon="6.78431">
        <ele>935</ele>
        <time>2009-07-04T07:27:14Z</time>
      </trkpt>
      <trkpt lat="45.62867" lon="6.78372">
        <ele>928</ele>
        <time>2009-07-04T07:27:21Z</time>
      </trkpt>
      <trkpt lat="45.62868" lon="6.78341">
        <ele>928</ele>
        <time>2009-07-04T07:27:25Z</time>
      </trkpt>
      <trkpt lat="45.62886" lon="6.78306">
        <ele>942</ele>
        <time>2009-07-04T07:27:29Z</time>
      </trkpt>
      <trkpt lat="45.629" lon="6.78298">
        <ele>942</ele>
        <time>2009-07-04T07:27:32Z</time>
      </trkpt>
      <trkpt lat="45.62925" lon="6.78308">
        <ele>942</ele>
        <time>2009-07-04T07:27:36Z</time>
      </trkpt>
      <trkpt lat="45.62977" lon="6.78354">
        <ele>954</ele>
        <time>2009-07-04T07:27:46Z</time>
      </trkpt>
      <trkpt lat="45.63019" lon="6.78384">
        <ele>945</ele>
        <time>2009-07-04T07:27:53Z</time>
      </trkpt>
      <trkpt lat="45.63051" lon="6.78398">
        <ele>954</ele>
        <time>2009-07-04T07:27:59Z</time>
      </trkpt>
      <trkpt lat="45.63096" lon="6.78409">
        <ele>954</ele>
        <time>2009-07-04T07:28:06Z</time>
      </trkpt>
      <trkpt lat="45.63194" lon="6.78412">
        <ele>959</ele>
        <time>2009-07-04T07:28:22Z</time>
      </trkpt>
      <trkpt lat="45.63231" lon="6.78419">
        <ele>973</ele>
        <time>2009-07-04T07:28:28Z</time>
      </trkpt>
      <trkpt lat="45.63312" lon="6.78485">
        <ele>965</ele>
        <time>2009-07-04T07:28:43Z</time>
      </trkpt>
      <trkpt lat="45.63349" lon="6.78501">
        <ele>965</ele>
        <time>2009-07-04T07:28:49Z</time>
      </trkpt>
      <trkpt lat="45.63372" lon="6.7852">
        <ele>965</ele>
        <time>2009-07-04T07:28:53Z</time>
      </trkpt>
      <trkpt lat="45.63416" lon="6.78534">
        <ele>992</ele>
        <time>2009-07-04T07:29:00Z</time>
      </trkpt>
      <trkpt lat="45.63556" lon="6.78537">
        <ele>984</ele>
        <time>2009-07-04T07:29:23Z</time>
      </trkpt>
      <trkpt lat="45.63641" lon="6.78518">
        <ele>984</ele>
        <time>2009-07-04T07:29:36Z</time>
      </trkpt>
      <trkpt lat="45.63707" lon="6.78462">
        <ele>984</ele>
        <time>2009-07-04T07:29:49Z</time>
      </trkpt>
      <trkpt lat="45.63735" lon="6.78449">
        <ele>1010</ele>
        <time>2009-07-04T07:29:53Z</time>
      </trkpt>
      <trkpt lat="45.63771" lon="6.78443">
        <ele>1010</ele>
        <time>2009-07-04T07:29:59Z</time>
      </trkpt>
      <trkpt lat="45.63827" lon="6.78452">
        <ele>998</ele>
        <time>2009-07-04T07:30:08Z</time>
      </trkpt>
      <trkpt lat="45.63853" lon="6.78439">
        <ele>998</ele>
        <time>2009-07-04T07:30:13Z</time>
      </trkpt>
      <trkpt lat="45.63886" lon="6.78435">
        <ele>1006</ele>
        <time>2009-07-04T07:30:18Z</time>
      </trkpt>
      <trkpt lat="45.63896" lon="6.78436">
        <ele>1006</ele>
        <time>2009-07-04T07:30:20Z</time>
      </trkpt>
      <trkpt lat="45.63959" lon="6.78483">
        <ele>982</ele>
        <time>2009-07-04T07:30:31Z</time>
      </trkpt>
      <trkpt lat="45.64019" lon="6.78492">
        <ele>982</ele>
        <time>2009-07-04T07:30:41Z</time>
      </trkpt>
      <trkpt lat="45.64065" lon="6.7851">
        <ele>1009</ele>
        <time>2009-07-04T07:30:48Z</time>
      </trkpt>
      <trkpt lat="45.64176" lon="6.78611">
        <ele>988</ele>
        <time>2009-07-04T07:31:09Z</time>
      </trkpt>
      <trkpt lat="45.64187" lon="6.78616">
        <ele>988</ele>
        <time>2009-07-04T07:31:11Z</time>
      </trkpt>
      <trkpt lat="45.64214" lon="6.7862">
        <ele>1023</ele>
        <time>2009-07-04T07:31:16Z</time>
      </trkpt>
      <trkpt lat="45.64406" lon="6.7859">
        <ele>1021</ele>
        <time>2009-07-04T07:31:46Z</time>
      </trkpt>
      <trkpt lat="45.64504" lon="6.78584">
        <ele>1029</ele>
        <time>2009-07-04T07:32:02Z</time>
      </trkpt>
      <trkpt lat="45.64557" lon="6.78587">
        <ele>1006</ele>
        <time>2009-07-04T07:32:11Z</time>
      </trkpt>
      <trkpt lat="45.64627" lon="6.78612">
        <ele>1016</ele>
        <time>2009-07-04T07:32:22Z</time>
      </trkpt>
      <trkpt lat="45.64736" lon="6.78617">
        <ele>1021</ele>
        <time>2009-07-04T07:32:40Z</time>
      </trkpt>
      <trkpt lat="45.64776" lon="6.78633">
        <ele>1006</ele>
        <time>2009-07-04T07:32:46Z</time>
      </trkpt>
      <trkpt lat="45.64834" lon="6.78673">
        <ele>1010</ele>
        <time>2009-07-04T07:32:57Z</time>
      </trkpt>
      <trkpt lat="45.64942" lon="6.78766">
        <ele>1010</ele>
        <time>2009-07-04T07:33:17Z</time>
      </trkpt>
      <trkpt lat="45.65013" lon="6.7879">
        <ele>1025</ele>
        <time>2009-07-04T07:33:29Z</time>
      </trkpt>
      <trkpt lat="45.65064" lon="6.7879">
        <ele>1034</ele>
        <time>2009-07-04T07:33:37Z</time>
      </trkpt>
      <trkpt lat="45.65136" lon="6.78769">
        <ele>1052</ele>
        <time>2009-07-04T07:33:48Z</time>
      </trkpt>
      <trkpt lat="45.65198" lon="6.78714">
        <ele>1052</ele>
        <time>2009-07-04T07:34:00Z</time>
      </trkpt>
      <trkpt lat="45.65228" lon="6.78701">
        <ele>1057</ele>
        <time>2009-07-04T07:34:05Z</time>
      </trkpt>
      <trkpt lat="45.65248" lon="6.78699">
        <ele>1057</ele>
        <time>2009-07-04T07:34:08Z</time>
      </trkpt>
      <trkpt lat="45.65304" lon="6.78706">
        <ele>1063</ele>
        <time>2009-07-04T07:34:17Z</time>
      </trkpt>
      <trkpt lat="45.65336" lon="6.78699">
        <ele>1063</ele>
        <time>2009-07-04T07:34:23Z</time>
      </trkpt>
      <trkpt lat="45.6538" lon="6.7867">
        <ele>1072</ele>
        <time>2009-07-04T07:34:30Z</time>
      </trkpt>
      <trkpt lat="45.65404" lon="6.78647">
        <ele>1072</ele>
        <time>2009-07-04T07:34:35Z</time>
      </trkpt>
      <trkpt lat="45.65678" lon="6.78369">
        <ele>1093</ele>
        <time>2009-07-04T07:35:29Z</time>
      </trkpt>
      <trkpt lat="45.65736" lon="6.78329">
        <ele>1102</ele>
        <time>2009-07-04T07:35:39Z</time>
      </trkpt>
      <trkpt lat="45.65858" lon="6.7828">
        <ele>1106</ele>
        <time>2009-07-04T07:35:59Z</time>
      </trkpt>
      <trkpt lat="45.65904" lon="6.78215">
        <ele>1129</ele>
        <time>2009-07-04T07:36:10Z</time>
      </trkpt>
      <trkpt lat="45.65927" lon="6.78191">
        <ele>1119</ele>
        <time>2009-07-04T07:36:14Z</time>
      </trkpt>
      <trkpt lat="45.65955" lon="6.78181">
        <ele>1119</ele>
        <time>2009-07-04T07:36:19Z</time>
      </trkpt>
      <trkpt lat="45.6602" lon="6.78176">
        <ele>1132</ele>
        <time>2009-07-04T07:36:29Z</time>
      </trkpt>
      <trkpt lat="45.66039" lon="6.78157">
        <ele>1132</ele>
        <time>2009-07-04T07:36:33Z</time>
      </trkpt>
      <trkpt lat="45.66078" lon="6.78086">
        <ele>1139</ele>
        <time>2009-07-04T07:36:43Z</time>
      </trkpt>
      <trkpt lat="45.66091" lon="6.7807">
        <ele>1139</ele>
        <time>2009-07-04T07:36:46Z</time>
      </trkpt>
      <trkpt lat="45.6612" lon="6.78043">
        <ele>1139</ele>
        <time>2009-07-04T07:36:51Z</time>
      </trkpt>
      <trkpt lat="45.66146" lon="6.78029">
        <ele>1142</ele>
        <time>2009-07-04T07:36:56Z</time>
      </trkpt>
      <trkpt lat="45.66192" lon="6.77993">
        <ele>1142</ele>
        <time>2009-07-04T07:37:04Z</time>
      </trkpt>
      <trkpt lat="45.66227" lon="6.77938">
        <ele>1151</ele>
        <time>2009-07-04T07:37:13Z</time>
      </trkpt>
      <trkpt lat="45.66244" lon="6.77933">
        <ele>1151</ele>
        <time>2009-07-04T07:37:15Z</time>
      </trkpt>
      <trkpt lat="45.66292" lon="6.77938">
        <ele>1171</ele>
        <time>2009-07-04T07:37:23Z</time>
      </trkpt>
      <trkpt lat="45.6631" lon="6.77926">
        <ele>1171</ele>
        <time>2009-07-04T07:37:26Z</time>
      </trkpt>
      <trkpt lat="45.66372" lon="6.77824">
        <ele>1160</ele>
        <time>2009-07-04T07:37:41Z</time>
      </trkpt>
      <trkpt lat="45.66447" lon="6.77767">
        <ele>1158</ele>
        <time>2009-07-04T07:37:55Z</time>
      </trkpt>
      <trkpt lat="45.66485" lon="6.77716">
        <ele>1183</ele>
        <time>2009-07-04T07:38:03Z</time>
      </trkpt>
      <trkpt lat="45.66503" lon="6.77668">
        <ele>1174</ele>
        <time>2009-07-04T07:38:09Z</time>
      </trkpt>
      <trkpt lat="45.66525" lon="6.77588">
        <ele>1166</ele>
        <time>2009-07-04T07:38:19Z</time>
      </trkpt>
      <trkpt lat="45.66571" lon="6.77498">
        <ele>1181</ele>
        <time>2009-07-04T07:38:31Z</time>
      </trkpt>
      <trkpt lat="45.6658" lon="6.77473">
        <ele>1181</ele>
        <time>2009-07-04T07:38:35Z</time>
      </trkpt>
      <trkpt lat="45.66598" lon="6.77452">
        <ele>1184</ele>
        <time>2009-07-04T07:38:38Z</time>
      </trkpt>
      <trkpt lat="45.66608" lon="6.77455">
        <ele>1184</ele>
        <time>2009-07-04T07:38:40Z</time>
      </trkpt>
      <trkpt lat="45.66615" lon="6.77474">
        <ele>1181</ele>
        <time>2009-07-04T07:38:42Z</time>
      </trkpt>
      <trkpt lat="45.66613" lon="6.77494">
        <ele>1181</ele>
        <time>2009-07-04T07:38:45Z</time>
      </trkpt>
      <trkpt lat="45.666" lon="6.7753">
        <ele>1181</ele>
        <time>2009-07-04T07:38:49Z</time>
      </trkpt>
      <trkpt lat="45.66601" lon="6.77546">
        <ele>1188</ele>
        <time>2009-07-04T07:38:51Z</time>
      </trkpt>
      <trkpt lat="45.6663" lon="6.77576">
        <ele>1213</ele>
        <time>2009-07-04T07:38:57Z</time>
      </trkpt>
      <trkpt lat="45.66637" lon="6.77624">
        <ele>1213</ele>
        <time>2009-07-04T07:39:02Z</time>
      </trkpt>
      <trkpt lat="45.66646" lon="6.77626">
        <ele>1224</ele>
        <time>2009-07-04T07:39:04Z</time>
      </trkpt>
      <trkpt lat="45.66651" lon="6.77622">
        <ele>1213</ele>
        <time>2009-07-04T07:39:05Z</time>
      </trkpt>
      <trkpt lat="45.6666" lon="6.77603">
        <ele>1213</ele>
        <time>2009-07-04T07:39:07Z</time>
      </trkpt>
      <trkpt lat="45.66669" lon="6.77543">
        <ele>1213</ele>
        <time>2009-07-04T07:39:14Z</time>
      </trkpt>
      <trkpt lat="45.66694" lon="6.77486">
        <ele>1211</ele>
        <time>2009-07-04T07:39:22Z</time>
      </trkpt>
      <trkpt lat="45.667" lon="6.77456">
        <ele>1209</ele>
        <time>2009-07-04T07:39:25Z</time>
      </trkpt>
      <trkpt lat="45.66698" lon="6.77433">
        <ele>1209</ele>
        <time>2009-07-04T07:39:28Z</time>
      </trkpt>
      <trkpt lat="45.6667" lon="6.77365">
        <ele>1209</ele>
        <time>2009-07-04T07:39:36Z</time>
      </trkpt>
      <trkpt lat="45.66673" lon="6.77334">
        <ele>1209</ele>
        <time>2009-07-04T07:39:40Z</time>
      </trkpt>
      <trkpt lat="45.66687" lon="6.77301">
        <ele>1209</ele>
        <time>2009-07-04T07:39:44Z</time>
      </trkpt>
      <trkpt lat="45.667" lon="6.77248">
        <ele>1212</ele>
        <time>2009-07-04T07:39:51Z</time>
      </trkpt>
      <trkpt lat="45.66709" lon="6.7725">
        <ele>1249</ele>
        <time>2009-07-04T07:39:52Z</time>
      </trkpt>
      <trkpt lat="45.66711" lon="6.77255">
        <ele>1249</ele>
        <time>2009-07-04T07:39:53Z</time>
      </trkpt>
      <trkpt lat="45.6671" lon="6.77305">
        <ele>1245</ele>
        <time>2009-07-04T07:39:58Z</time>
      </trkpt>
      <trkpt lat="45.66728" lon="6.77347">
        <ele>1245</ele>
        <time>2009-07-04T07:40:04Z</time>
      </trkpt>
      <trkpt lat="45.66721" lon="6.7739">
        <ele>1238</ele>
        <time>2009-07-04T07:40:09Z</time>
      </trkpt>
      <trkpt lat="45.66753" lon="6.77454">
        <ele>1238</ele>
        <time>2009-07-04T07:40:18Z</time>
      </trkpt>
      <trkpt lat="45.66765" lon="6.77499">
        <ele>1239</ele>
        <time>2009-07-04T07:40:23Z</time>
      </trkpt>
      <trkpt lat="45.66777" lon="6.77504">
        <ele>1239</ele>
        <time>2009-07-04T07:40:25Z</time>
      </trkpt>
      <trkpt lat="45.66782" lon="6.7749">
        <ele>1239</ele>
        <time>2009-07-04T07:40:27Z</time>
      </trkpt>
      <trkpt lat="45.66767" lon="6.77422">
        <ele>1238</ele>
        <time>2009-07-04T07:40:35Z</time>
      </trkpt>
      <trkpt lat="45.66764" lon="6.77352">
        <ele>1245</ele>
        <time>2009-07-04T07:40:42Z</time>
      </trkpt>
      <trkpt lat="45.66747" lon="6.77279">
        <ele>1249</ele>
        <time>2009-07-04T07:40:51Z</time>
      </trkpt>
      <trkpt lat="45.66752" lon="6.77259">
        <ele>1249</ele>
        <time>2009-07-04T07:40:53Z</time>
      </trkpt>
      <trkpt lat="45.66793" lon="6.77252">
        <ele>1293</ele>
        <time>2009-07-04T07:41:00Z</time>
      </trkpt>
      <trkpt lat="45.66802" lon="6.77196">
        <ele>1281</ele>
        <time>2009-07-04T07:41:07Z</time>
      </trkpt>
      <trkpt lat="45.66808" lon="6.77192">
        <ele>1281</ele>
        <time>2009-07-04T07:41:08Z</time>
      </trkpt>
      <trkpt lat="45.66817" lon="6.77197">
        <ele>1281</ele>
        <time>2009-07-04T07:41:09Z</time>
      </trkpt>
      <trkpt lat="45.6682" lon="6.77212">
        <ele>1293</ele>
        <time>2009-07-04T07:41:11Z</time>
      </trkpt>
      <trkpt lat="45.66814" lon="6.77258">
        <ele>1293</ele>
        <time>2009-07-04T07:41:16Z</time>
      </trkpt>
      <trkpt lat="45.66789" lon="6.77291">
        <ele>1249</ele>
        <time>2009-07-04T07:41:22Z</time>
      </trkpt>
      <trkpt lat="45.66789" lon="6.77307">
        <ele>1245</ele>
        <time>2009-07-04T07:41:23Z</time>
      </trkpt>
      <trkpt lat="45.66808" lon="6.77341">
        <ele>1286</ele>
        <time>2009-07-04T07:41:28Z</time>
      </trkpt>
      <trkpt lat="45.66816" lon="6.77364">
        <ele>1286</ele>
        <time>2009-07-04T07:41:31Z</time>
      </trkpt>
      <trkpt lat="45.66816" lon="6.77415">
        <ele>1282</ele>
        <time>2009-07-04T07:41:37Z</time>
      </trkpt>
      <trkpt lat="45.66822" lon="6.77445">
        <ele>1282</ele>
        <time>2009-07-04T07:41:40Z</time>
      </trkpt>
      <trkpt lat="45.6685" lon="6.77495">
        <ele>1283</ele>
        <time>2009-07-04T07:41:47Z</time>
      </trkpt>
      <trkpt lat="45.66841" lon="6.77552">
        <ele>1295</ele>
        <time>2009-07-04T07:41:54Z</time>
      </trkpt>
      <trkpt lat="45.66844" lon="6.77559">
        <ele>1295</ele>
        <time>2009-07-04T07:41:55Z</time>
      </trkpt>
      <trkpt lat="45.6685" lon="6.77559">
        <ele>1295</ele>
        <time>2009-07-04T07:41:56Z</time>
      </trkpt>
      <trkpt lat="45.66855" lon="6.77555">
        <ele>1295</ele>
        <time>2009-07-04T07:41:57Z</time>
      </trkpt>
      <trkpt lat="45.66875" lon="6.77511">
        <ele>1330</ele>
        <time>2009-07-04T07:42:03Z</time>
      </trkpt>
      <trkpt lat="45.66881" lon="6.77488">
        <ele>1330</ele>
        <time>2009-07-04T07:42:05Z</time>
      </trkpt>
      <trkpt lat="45.66879" lon="6.77471">
        <ele>1330</ele>
        <time>2009-07-04T07:42:07Z</time>
      </trkpt>
      <trkpt lat="45.66862" lon="6.77453">
        <ele>1282</ele>
        <time>2009-07-04T07:42:11Z</time>
      </trkpt>
      <trkpt lat="45.66867" lon="6.77391">
        <ele>1282</ele>
        <time>2009-07-04T07:42:18Z</time>
      </trkpt>
      <trkpt lat="45.66861" lon="6.7733">
        <ele>1286</ele>
        <time>2009-07-04T07:42:25Z</time>
      </trkpt>
      <trkpt lat="45.6687" lon="6.77278">
        <ele>1293</ele>
        <time>2009-07-04T07:42:31Z</time>
      </trkpt>
      <trkpt lat="45.66875" lon="6.77216">
        <ele>1335</ele>
        <time>2009-07-04T07:42:38Z</time>
      </trkpt>
      <trkpt lat="45.66881" lon="6.77212">
        <ele>1335</ele>
        <time>2009-07-04T07:42:39Z</time>
      </trkpt>
      <trkpt lat="45.66889" lon="6.77219">
        <ele>1335</ele>
        <time>2009-07-04T07:42:40Z</time>
      </trkpt>
      <trkpt lat="45.66892" lon="6.7724">
        <ele>1335</ele>
        <time>2009-07-04T07:42:43Z</time>
      </trkpt>
      <trkpt lat="45.66889" lon="6.77301">
        <ele>1331</ele>
        <time>2009-07-04T07:42:49Z</time>
      </trkpt>
      <trkpt lat="45.66892" lon="6.77349">
        <ele>1331</ele>
        <time>2009-07-04T07:42:55Z</time>
      </trkpt>
      <trkpt lat="45.66903" lon="6.77385">
        <ele>1330</ele>
        <time>2009-07-04T07:42:59Z</time>
      </trkpt>
      <trkpt lat="45.66908" lon="6.77427">
        <ele>1330</ele>
        <time>2009-07-04T07:43:04Z</time>
      </trkpt>
      <trkpt lat="45.66919" lon="6.77435">
        <ele>1330</ele>
        <time>2009-07-04T07:43:06Z</time>
      </trkpt>
      <trkpt lat="45.66926" lon="6.77432">
        <ele>1330</ele>
        <time>2009-07-04T07:43:07Z</time>
      </trkpt>
      <trkpt lat="45.66929" lon="6.77411">
        <ele>1330</ele>
        <time>2009-07-04T07:43:09Z</time>
      </trkpt>
      <trkpt lat="45.66921" lon="6.77339">
        <ele>1331</ele>
        <time>2009-07-04T07:43:18Z</time>
      </trkpt>
      <trkpt lat="45.66923" lon="6.77292">
        <ele>1331</ele>
        <time>2009-07-04T07:43:23Z</time>
      </trkpt>
      <trkpt lat="45.6694" lon="6.77245">
        <ele>1335</ele>
        <time>2009-07-04T07:43:29Z</time>
      </trkpt>
      <trkpt lat="45.66953" lon="6.77194">
        <ele>1326</ele>
        <time>2009-07-04T07:43:35Z</time>
      </trkpt>
      <trkpt lat="45.66964" lon="6.77191">
        <ele>1373</ele>
        <time>2009-07-04T07:43:37Z</time>
      </trkpt>
      <trkpt lat="45.66967" lon="6.77205">
        <ele>1373</ele>
        <time>2009-07-04T07:43:38Z</time>
      </trkpt>
      <trkpt lat="45.66957" lon="6.77273">
        <ele>1335</ele>
        <time>2009-07-04T07:43:46Z</time>
      </trkpt>
      <trkpt lat="45.66973" lon="6.77395">
        <ele>1375</ele>
        <time>2009-07-04T07:44:00Z</time>
      </trkpt>
      <trkpt lat="45.66965" lon="6.77452">
        <ele>1375</ele>
        <time>2009-07-04T07:44:07Z</time>
      </trkpt>
      <trkpt lat="45.66968" lon="6.77457">
        <ele>1375</ele>
        <time>2009-07-04T07:44:07Z</time>
      </trkpt>
      <trkpt lat="45.66975" lon="6.77455">
        <ele>1375</ele>
        <time>2009-07-04T07:44:08Z</time>
      </trkpt>
      <trkpt lat="45.66987" lon="6.77406">
        <ele>1375</ele>
        <time>2009-07-04T07:44:14Z</time>
      </trkpt>
      <trkpt lat="45.66998" lon="6.77379">
        <ele>1375</ele>
        <time>2009-07-04T07:44:18Z</time>
      </trkpt>
      <trkpt lat="45.67002" lon="6.77355">
        <ele>1371</ele>
        <time>2009-07-04T07:44:20Z</time>
      </trkpt>
      <trkpt lat="45.67005" lon="6.77188">
        <ele>1373</ele>
        <time>2009-07-04T07:44:39Z</time>
      </trkpt>
      <trkpt lat="45.67028" lon="6.77129">
        <ele>1373</ele>
        <time>2009-07-04T07:44:47Z</time>
      </trkpt>
      <trkpt lat="45.67028" lon="6.77113">
        <ele>1375</ele>
        <time>2009-07-04T07:44:48Z</time>
      </trkpt>
      <trkpt lat="45.67008" lon="6.77083">
        <ele>1375</ele>
        <time>2009-07-04T07:44:53Z</time>
      </trkpt>
      <trkpt lat="45.67008" lon="6.7706">
        <ele>1375</ele>
        <time>2009-07-04T07:44:56Z</time>
      </trkpt>
      <trkpt lat="45.67073" lon="6.76935">
        <ele>1417</ele>
        <time>2009-07-04T07:45:13Z</time>
      </trkpt>
      <trkpt lat="45.67096" lon="6.76829">
        <ele>1411</ele>
        <time>2009-07-04T07:45:26Z</time>
      </trkpt>
      <trkpt lat="45.67099" lon="6.76795">
        <ele>1411</ele>
        <time>2009-07-04T07:45:29Z</time>
      </trkpt>
      <trkpt lat="45.67095" lon="6.76712">
        <ele>1414</ele>
        <time>2009-07-04T07:45:39Z</time>
      </trkpt>
      <trkpt lat="45.67103" lon="6.76582">
        <ele>1416</ele>
        <time>2009-07-04T07:45:53Z</time>
      </trkpt>
      <trkpt lat="45.67117" lon="6.76513">
        <ele>1411</ele>
        <time>2009-07-04T07:46:01Z</time>
      </trkpt>
      <trkpt lat="45.67115" lon="6.76475">
        <ele>1411</ele>
        <time>2009-07-04T07:46:06Z</time>
      </trkpt>
      <trkpt lat="45.67101" lon="6.76415">
        <ele>1415</ele>
        <time>2009-07-04T07:46:13Z</time>
      </trkpt>
      <trkpt lat="45.671" lon="6.76389">
        <ele>1415</ele>
        <time>2009-07-04T07:46:16Z</time>
      </trkpt>
      <trkpt lat="45.67123" lon="6.76275">
        <ele>1419</ele>
        <time>2009-07-04T07:46:29Z</time>
      </trkpt>
      <trkpt lat="45.67123" lon="6.76158">
        <ele>1421</ele>
        <time>2009-07-04T07:46:42Z</time>
      </trkpt>
      <trkpt lat="45.6712" lon="6.76127">
        <ele>1421</ele>
        <time>2009-07-04T07:46:45Z</time>
      </trkpt>
      <trkpt lat="45.67104" lon="6.76049">
        <ele>1434</ele>
        <time>2009-07-04T07:46:55Z</time>
      </trkpt>
      <trkpt lat="45.67093" lon="6.76013">
        <ele>1454</ele>
        <time>2009-07-04T07:46:59Z</time>
      </trkpt>
      <trkpt lat="45.6704" lon="6.75953">
        <ele>1429</ele>
        <time>2009-07-04T07:47:10Z</time>
      </trkpt>
      <trkpt lat="45.6704" lon="6.75927">
        <ele>1429</ele>
        <time>2009-07-04T07:47:13Z</time>
      </trkpt>
      <trkpt lat="45.67084" lon="6.7584">
        <ele>1469</ele>
        <time>2009-07-04T07:47:25Z</time>
      </trkpt>
      <trkpt lat="45.67121" lon="6.75792">
        <ele>1469</ele>
        <time>2009-07-04T07:47:33Z</time>
      </trkpt>
      <trkpt lat="45.67191" lon="6.75788">
        <ele>1474</ele>
        <time>2009-07-04T07:47:44Z</time>
      </trkpt>
      <trkpt lat="45.67216" lon="6.7578">
        <ele>1491</ele>
        <time>2009-07-04T07:47:48Z</time>
      </trkpt>
      <trkpt lat="45.67258" lon="6.75724">
        <ele>1491</ele>
        <time>2009-07-04T07:47:57Z</time>
      </trkpt>
      <trkpt lat="45.67297" lon="6.75683">
        <ele>1503</ele>
        <time>2009-07-04T07:48:05Z</time>
      </trkpt>
      <trkpt lat="45.67312" lon="6.75639">
        <ele>1503</ele>
        <time>2009-07-04T07:48:10Z</time>
      </trkpt>
      <trkpt lat="45.6733" lon="6.75542">
        <ele>1486</ele>
        <time>2009-07-04T07:48:22Z</time>
      </trkpt>
      <trkpt lat="45.67377" lon="6.75478">
        <ele>1505</ele>
        <time>2009-07-04T07:48:32Z</time>
      </trkpt>
      <trkpt lat="45.67393" lon="6.75447">
        <ele>1493</ele>
        <time>2009-07-04T07:48:36Z</time>
      </trkpt>
      <trkpt lat="45.67407" lon="6.75405">
        <ele>1493</ele>
        <time>2009-07-04T07:48:42Z</time>
      </trkpt>
      <trkpt lat="45.67406" lon="6.75258">
        <ele>1478</ele>
        <time>2009-07-04T07:48:58Z</time>
      </trkpt>
      <trkpt lat="45.67409" lon="6.75224">
        <ele>1478</ele>
        <time>2009-07-04T07:49:02Z</time>
      </trkpt>
      <trkpt lat="45.67418" lon="6.75186">
        <ele>1479</ele>
        <time>2009-07-04T07:49:06Z</time>
      </trkpt>
      <trkpt lat="45.67453" lon="6.75138">
        <ele>1479</ele>
        <time>2009-07-04T07:49:14Z</time>
      </trkpt>
      <trkpt lat="45.67465" lon="6.75113">
        <ele>1488</ele>
        <time>2009-07-04T07:49:18Z</time>
      </trkpt>
      <trkpt lat="45.67518" lon="6.75056">
        <ele>1488</ele>
        <time>2009-07-04T07:49:28Z</time>
      </trkpt>
      <trkpt lat="45.67545" lon="6.75015">
        <ele>1506</ele>
        <time>2009-07-04T07:49:34Z</time>
      </trkpt>
      <trkpt lat="45.67556" lon="6.74988">
        <ele>1506</ele>
        <time>2009-07-04T07:49:38Z</time>
      </trkpt>
      <trkpt lat="45.67559" lon="6.74968">
        <ele>1506</ele>
        <time>2009-07-04T07:49:40Z</time>
      </trkpt>
      <trkpt lat="45.6756" lon="6.74903">
        <ele>1498</ele>
        <time>2009-07-04T07:49:47Z</time>
      </trkpt>
      <trkpt lat="45.67566" lon="6.74867">
        <ele>1494</ele>
        <time>2009-07-04T07:49:52Z</time>
      </trkpt>
      <trkpt lat="45.67605" lon="6.74806">
        <ele>1494</ele>
        <time>2009-07-04T07:50:01Z</time>
      </trkpt>
      <trkpt lat="45.6762" lon="6.74747">
        <ele>1487</ele>
        <time>2009-07-04T07:50:08Z</time>
      </trkpt>
      <trkpt lat="45.67683" lon="6.74686">
        <ele>1497</ele>
        <time>2009-07-04T07:50:20Z</time>
      </trkpt>
      <trkpt lat="45.67723" lon="6.74625">
        <ele>1520</ele>
        <time>2009-07-04T07:50:29Z</time>
      </trkpt>
      <trkpt lat="45.67809" lon="6.74366">
        <ele>1507</ele>
        <time>2009-07-04T07:51:02Z</time>
      </trkpt>
      <trkpt lat="45.6783" lon="6.74323">
        <ele>1507</ele>
        <time>2009-07-04T07:51:07Z</time>
      </trkpt>
      <trkpt lat="45.67911" lon="6.74232">
        <ele>1517</ele>
        <time>2009-07-04T07:51:24Z</time>
      </trkpt>
      <trkpt lat="45.68003" lon="6.74115">
        <ele>1528</ele>
        <time>2009-07-04T07:51:44Z</time>
      </trkpt>
      <trkpt lat="45.68059" lon="6.74067">
        <ele>1525</ele>
        <time>2009-07-04T07:51:54Z</time>
      </trkpt>
      <trkpt lat="45.68098" lon="6.74022">
        <ele>1537</ele>
        <time>2009-07-04T07:52:02Z</time>
      </trkpt>
      <trkpt lat="45.68131" lon="6.73995">
        <ele>1530</ele>
        <time>2009-07-04T07:52:08Z</time>
      </trkpt>
      <trkpt lat="45.68195" lon="6.73964">
        <ele>1530</ele>
        <time>2009-07-04T07:52:19Z</time>
      </trkpt>
      <trkpt lat="45.68221" lon="6.73941">
        <ele>1532</ele>
        <time>2009-07-04T07:52:24Z</time>
      </trkpt>
      <trkpt lat="45.68248" lon="6.73902">
        <ele>1532</ele>
        <time>2009-07-04T07:52:30Z</time>
      </trkpt>
      <trkpt lat="45.68294" lon="6.73813">
        <ele>1533</ele>
        <time>2009-07-04T07:52:42Z</time>
      </trkpt>
      <trkpt lat="45.68322" lon="6.73779">
        <ele>1540</ele>
        <time>2009-07-04T07:52:48Z</time>
      </trkpt>
      <trkpt lat="45.68347" lon="6.73764">
        <ele>1540</ele>
        <time>2009-07-04T07:52:53Z</time>
      </trkpt>
      <trkpt lat="45.68455" lon="6.73743">
        <ele>1537</ele>
        <time>2009-07-04T07:53:10Z</time>
      </trkpt>
      <trkpt lat="45.68485" lon="6.73727">
        <ele>1537</ele>
        <time>2009-07-04T07:53:15Z</time>
      </trkpt>
      <trkpt lat="45.68522" lon="6.73692">
        <ele>1544</ele>
        <time>2009-07-04T07:53:22Z</time>
      </trkpt>
      <trkpt lat="45.68561" lon="6.7363">
        <ele>1536</ele>
        <time>2009-07-04T07:53:32Z</time>
      </trkpt>
      <trkpt lat="45.68582" lon="6.73573">
        <ele>1545</ele>
        <time>2009-07-04T07:53:39Z</time>
      </trkpt>
      <trkpt lat="45.68588" lon="6.73416">
        <ele>1552</ele>
        <time>2009-07-04T07:53:56Z</time>
      </trkpt>
      <trkpt lat="45.68599" lon="6.73379">
        <ele>1552</ele>
        <time>2009-07-04T07:54:01Z</time>
      </trkpt>
      <trkpt lat="45.68621" lon="6.73346">
        <ele>1570</ele>
        <time>2009-07-04T07:54:06Z</time>
      </trkpt>
      <trkpt lat="45.687" lon="6.73311">
        <ele>1560</ele>
        <time>2009-07-04T07:54:19Z</time>
      </trkpt>
      <trkpt lat="45.68774" lon="6.73295">
        <ele>1558</ele>
        <time>2009-07-04T07:54:31Z</time>
      </trkpt>
      <trkpt lat="45.68809" lon="6.73297">
        <ele>1563</ele>
        <time>2009-07-04T07:54:37Z</time>
      </trkpt>
      <trkpt lat="45.68869" lon="6.73325">
        <ele>1563</ele>
        <time>2009-07-04T07:54:47Z</time>
      </trkpt>
      <trkpt lat="45.68896" lon="6.73328">
        <ele>1573</ele>
        <time>2009-07-04T07:54:51Z</time>
      </trkpt>
      <trkpt lat="45.69068" lon="6.73284">
        <ele>1605</ele>
        <time>2009-07-04T07:55:19Z</time>
      </trkpt>
      <trkpt lat="45.69229" lon="6.7327">
        <ele>1606</ele>
        <time>2009-07-04T07:55:45Z</time>
      </trkpt>
      <trkpt lat="45.69272" lon="6.73255">
        <ele>1606</ele>
        <time>2009-07-04T07:55:52Z</time>
      </trkpt>
      <trkpt lat="45.69338" lon="6.73215">
        <ele>1594</ele>
        <time>2009-07-04T07:56:04Z</time>
      </trkpt>
      <trkpt lat="45.69343" lon="6.73199">
        <ele>1616</ele>
        <time>2009-07-04T07:56:06Z</time>
      </trkpt>
      <trkpt lat="45.69335" lon="6.73158">
        <ele>1616</ele>
        <time>2009-07-04T07:56:10Z</time>
      </trkpt>
      <trkpt lat="45.69337" lon="6.73105">
        <ele>1628</ele>
        <time>2009-07-04T07:56:16Z</time>
      </trkpt>
      <trkpt lat="45.69356" lon="6.73002">
        <ele>1640</ele>
        <time>2009-07-04T07:56:28Z</time>
      </trkpt>
      <trkpt lat="45.69365" lon="6.72925">
        <ele>1646</ele>
        <time>2009-07-04T07:56:37Z</time>
      </trkpt>
      <trkpt lat="45.69403" lon="6.72764">
        <ele>1640</ele>
        <time>2009-07-04T07:56:56Z</time>
      </trkpt>
      <trkpt lat="45.69408" lon="6.72723">
        <ele>1640</ele>
        <time>2009-07-04T07:57:01Z</time>
      </trkpt>
      <trkpt lat="45.69412" lon="6.72595">
        <ele>1658</ele>
        <time>2009-07-04T07:57:15Z</time>
      </trkpt>
      <trkpt lat="45.69395" lon="6.72432">
        <ele>1669</ele>
        <time>2009-07-04T07:57:33Z</time>
      </trkpt>
      <trkpt lat="45.69396" lon="6.72386">
        <ele>1669</ele>
        <time>2009-07-04T07:57:39Z</time>
      </trkpt>
      <trkpt lat="45.69404" lon="6.72353">
        <ele>1676</ele>
        <time>2009-07-04T07:57:42Z</time>
      </trkpt>
      <trkpt lat="45.69436" lon="6.72283">
        <ele>1689</ele>
        <time>2009-07-04T07:57:52Z</time>
      </trkpt>
      <trkpt lat="45.69461" lon="6.72242">
        <ele>1695</ele>
        <time>2009-07-04T07:57:58Z</time>
      </trkpt>
      <trkpt lat="45.69477" lon="6.72224">
        <ele>1695</ele>
        <time>2009-07-04T07:58:01Z</time>
      </trkpt>
      <trkpt lat="45.69492" lon="6.72219">
        <ele>1695</ele>
        <time>2009-07-04T07:58:04Z</time>
      </trkpt>
      <trkpt lat="45.69504" lon="6.72225">
        <ele>1695</ele>
        <time>2009-07-04T07:58:06Z</time>
      </trkpt>
      <trkpt lat="45.69528" lon="6.7226">
        <ele>1695</ele>
        <time>2009-07-04T07:58:11Z</time>
      </trkpt>
      <trkpt lat="45.69539" lon="6.72289">
        <ele>1695</ele>
        <time>2009-07-04T07:58:15Z</time>
      </trkpt>
      <trkpt lat="45.69544" lon="6.72313">
        <ele>1721</ele>
        <time>2009-07-04T07:58:18Z</time>
      </trkpt>
      <trkpt lat="45.69545" lon="6.72347">
        <ele>1721</ele>
        <time>2009-07-04T07:58:21Z</time>
      </trkpt>
      <trkpt lat="45.69533" lon="6.72421">
        <ele>1684</ele>
        <time>2009-07-04T07:58:30Z</time>
      </trkpt>
      <trkpt lat="45.69536" lon="6.72466">
        <ele>1673</ele>
        <time>2009-07-04T07:58:35Z</time>
      </trkpt>
      <trkpt lat="45.69554" lon="6.72512">
        <ele>1707</ele>
        <time>2009-07-04T07:58:41Z</time>
      </trkpt>
      <trkpt lat="45.69596" lon="6.7259">
        <ele>1694</ele>
        <time>2009-07-04T07:58:52Z</time>
      </trkpt>
      <trkpt lat="45.6962" lon="6.72694">
        <ele>1683</ele>
        <time>2009-07-04T07:59:04Z</time>
      </trkpt>
      <trkpt lat="45.69634" lon="6.72694">
        <ele>1707</ele>
        <time>2009-07-04T07:59:06Z</time>
      </trkpt>
      <trkpt lat="45.69642" lon="6.72677">
        <ele>1707</ele>
        <time>2009-07-04T07:59:09Z</time>
      </trkpt>
      <trkpt lat="45.69629" lon="6.7262">
        <ele>1716</ele>
        <time>2009-07-04T07:59:15Z</time>
      </trkpt>
      <trkpt lat="45.69618" lon="6.72545">
        <ele>1694</ele>
        <time>2009-07-04T07:59:24Z</time>
      </trkpt>
      <trkpt lat="45.69615" lon="6.72368">
        <ele>1721</ele>
        <time>2009-07-04T07:59:44Z</time>
      </trkpt>
      <trkpt lat="45.696" lon="6.72313">
        <ele>1721</ele>
        <time>2009-07-04T07:59:50Z</time>
      </trkpt>
      <trkpt lat="45.696" lon="6.7228">
        <ele>1725</ele>
        <time>2009-07-04T07:59:54Z</time>
      </trkpt>
      <trkpt lat="45.69616" lon="6.72281">
        <ele>1725</ele>
        <time>2009-07-04T07:59:57Z</time>
      </trkpt>
      <trkpt lat="45.69643" lon="6.72321">
        <ele>1749</ele>
        <time>2009-07-04T08:00:03Z</time>
      </trkpt>
      <trkpt lat="45.69705" lon="6.72495">
        <ele>1733</ele>
        <time>2009-07-04T08:00:25Z</time>
      </trkpt>
      <trkpt lat="45.69728" lon="6.72531">
        <ele>1758</ele>
        <time>2009-07-04T08:00:30Z</time>
      </trkpt>
      <trkpt lat="45.69746" lon="6.72542">
        <ele>1741</ele>
        <time>2009-07-04T08:00:33Z</time>
      </trkpt>
      <trkpt lat="45.69789" lon="6.72549">
        <ele>1741</ele>
        <time>2009-07-04T08:00:40Z</time>
      </trkpt>
      <trkpt lat="45.69805" lon="6.72544">
        <ele>1752</ele>
        <time>2009-07-04T08:00:43Z</time>
      </trkpt>
      <trkpt lat="45.69813" lon="6.72535">
        <ele>1769</ele>
        <time>2009-07-04T08:00:44Z</time>
      </trkpt>
      <trkpt lat="45.69816" lon="6.72519">
        <ele>1769</ele>
        <time>2009-07-04T08:00:46Z</time>
      </trkpt>
      <trkpt lat="45.6981" lon="6.7249">
        <ele>1769</ele>
        <time>2009-07-04T08:00:50Z</time>
      </trkpt>
      <trkpt lat="45.69754" lon="6.72431">
        <ele>1767</ele>
        <time>2009-07-04T08:01:01Z</time>
      </trkpt>
      <trkpt lat="45.69739" lon="6.72397">
        <ele>1767</ele>
        <time>2009-07-04T08:01:05Z</time>
      </trkpt>
      <trkpt lat="45.69742" lon="6.72359">
        <ele>1771</ele>
        <time>2009-07-04T08:01:10Z</time>
      </trkpt>
      <trkpt lat="45.69774" lon="6.72293">
        <ele>1771</ele>
        <time>2009-07-04T08:01:19Z</time>
      </trkpt>
      <trkpt lat="45.69777" lon="6.72272">
        <ele>1771</ele>
        <time>2009-07-04T08:01:21Z</time>
      </trkpt>
      <trkpt lat="45.6977" lon="6.72226">
        <ele>1771</ele>
        <time>2009-07-04T08:01:26Z</time>
      </trkpt>
      <trkpt lat="45.69732" lon="6.72164">
        <ele>1778</ele>
        <time>2009-07-04T08:01:35Z</time>
      </trkpt>
      <trkpt lat="45.69731" lon="6.72136">
        <ele>1778</ele>
        <time>2009-07-04T08:01:39Z</time>
      </trkpt>
      <trkpt lat="45.69748" lon="6.72066">
        <ele>1782</ele>
        <time>2009-07-04T08:01:47Z</time>
      </trkpt>
      <trkpt lat="45.69743" lon="6.72013">
        <ele>1784</ele>
        <time>2009-07-04T08:01:53Z</time>
      </trkpt>
      <trkpt lat="45.69728" lon="6.71958">
        <ele>1804</ele>
        <time>2009-07-04T08:01:59Z</time>
      </trkpt>
      <trkpt lat="45.69706" lon="6.71934">
        <ele>1787</ele>
        <time>2009-07-04T08:02:04Z</time>
      </trkpt>
      <trkpt lat="45.69635" lon="6.719">
        <ele>1787</ele>
        <time>2009-07-04T08:02:16Z</time>
      </trkpt>
      <trkpt lat="45.69609" lon="6.7188">
        <ele>1782</ele>
        <time>2009-07-04T08:02:21Z</time>
      </trkpt>
      <trkpt lat="45.69584" lon="6.71844">
        <ele>1792</ele>
        <time>2009-07-04T08:02:26Z</time>
      </trkpt>
      <trkpt lat="45.69575" lon="6.71821">
        <ele>1792</ele>
        <time>2009-07-04T08:02:29Z</time>
      </trkpt>
      <trkpt lat="45.6957" lon="6.71784">
        <ele>1802</ele>
        <time>2009-07-04T08:02:33Z</time>
      </trkpt>
      <trkpt lat="45.69573" lon="6.71756">
        <ele>1802</ele>
        <time>2009-07-04T08:02:37Z</time>
      </trkpt>
      <trkpt lat="45.69591" lon="6.71693">
        <ele>1802</ele>
        <time>2009-07-04T08:02:44Z</time>
      </trkpt>
      <trkpt lat="45.69592" lon="6.71676">
        <ele>1802</ele>
        <time>2009-07-04T08:02:46Z</time>
      </trkpt>
      <trkpt lat="45.69582" lon="6.71655">
        <ele>1802</ele>
        <time>2009-07-04T08:02:49Z</time>
      </trkpt>
      <trkpt lat="45.69562" lon="6.71652">
        <ele>1802</ele>
        <time>2009-07-04T08:02:52Z</time>
      </trkpt>
      <trkpt lat="45.69502" lon="6.71677">
        <ele>1803</ele>
        <time>2009-07-04T08:03:02Z</time>
      </trkpt>
      <trkpt lat="45.6947" lon="6.71677">
        <ele>1803</ele>
        <time>2009-07-04T08:03:07Z</time>
      </trkpt>
      <trkpt lat="45.69453" lon="6.7166">
        <ele>1798</ele>
        <time>2009-07-04T08:03:11Z</time>
      </trkpt>
      <trkpt lat="45.6944" lon="6.71635">
        <ele>1798</ele>
        <time>2009-07-04T08:03:14Z</time>
      </trkpt>
      <trkpt lat="45.69435" lon="6.71614">
        <ele>1806</ele>
        <time>2009-07-04T08:03:17Z</time>
      </trkpt>
      <trkpt lat="45.69436" lon="6.71589">
        <ele>1806</ele>
        <time>2009-07-04T08:03:19Z</time>
      </trkpt>
      <trkpt lat="45.69455" lon="6.71523">
        <ele>1811</ele>
        <time>2009-07-04T08:03:27Z</time>
      </trkpt>
      <trkpt lat="45.69452" lon="6.71454">
        <ele>1820</ele>
        <time>2009-07-04T08:03:35Z</time>
      </trkpt>
      <trkpt lat="45.69438" lon="6.71398">
        <ele>1820</ele>
        <time>2009-07-04T08:03:42Z</time>
      </trkpt>
      <trkpt lat="45.69401" lon="6.71294">
        <ele>1826</ele>
        <time>2009-07-04T08:03:55Z</time>
      </trkpt>
      <trkpt lat="45.69388" lon="6.71241">
        <ele>1829</ele>
        <time>2009-07-04T08:04:01Z</time>
      </trkpt>
      <trkpt lat="45.69362" lon="6.71053">
        <ele>1833</ele>
        <time>2009-07-04T08:04:23Z</time>
      </trkpt>
      <trkpt lat="45.69321" lon="6.70657">
        <ele>1867</ele>
        <time>2009-07-04T08:05:07Z</time>
      </trkpt>
      <trkpt lat="45.69301" lon="6.70505">
        <ele>1880</ele>
        <time>2009-07-04T08:05:25Z</time>
      </trkpt>
      <trkpt lat="45.6923" lon="6.70204">
        <ele>1901</ele>
        <time>2009-07-04T08:06:00Z</time>
      </trkpt>
      <trkpt lat="45.69218" lon="6.70145">
        <ele>1901</ele>
        <time>2009-07-04T08:06:07Z</time>
      </trkpt>
      <trkpt lat="45.69216" lon="6.70108">
        <ele>1906</ele>
        <time>2009-07-04T08:06:11Z</time>
      </trkpt>
      <trkpt lat="45.69222" lon="6.70041">
        <ele>1904</ele>
        <time>2009-07-04T08:06:19Z</time>
      </trkpt>
      <trkpt lat="45.69226" lon="6.70028">
        <ele>1904</ele>
        <time>2009-07-04T08:06:20Z</time>
      </trkpt>
      <trkpt lat="45.69318" lon="6.69835">
        <ele>1914</ele>
        <time>2009-07-04T08:06:46Z</time>
      </trkpt>
      <trkpt lat="45.69341" lon="6.69778">
        <ele>1914</ele>
        <time>2009-07-04T08:06:54Z</time>
      </trkpt>
      <trkpt lat="45.69366" lon="6.69691">
        <ele>1914</ele>
        <time>2009-07-04T08:07:04Z</time>
      </trkpt>
      <trkpt lat="45.69388" lon="6.69553">
        <ele>1928</ele>
        <time>2009-07-04T08:07:20Z</time>
      </trkpt>
      <trkpt lat="45.69393" lon="6.69454">
        <ele>1952</ele>
        <time>2009-07-04T08:07:31Z</time>
      </trkpt>
      <trkpt lat="45.69389" lon="6.69404">
        <ele>1952</ele>
        <time>2009-07-04T08:07:37Z</time>
      </trkpt>
      <trkpt lat="45.69367" lon="6.69327">
        <ele>1944</ele>
        <time>2009-07-04T08:07:46Z</time>
      </trkpt>
      <trkpt lat="45.69333" lon="6.69266">
        <ele>1958</ele>
        <time>2009-07-04T08:07:55Z</time>
      </trkpt>
      <trkpt lat="45.6931" lon="6.69258">
        <ele>1958</ele>
        <time>2009-07-04T08:07:59Z</time>
      </trkpt>
      <trkpt lat="45.69215" lon="6.69246">
        <ele>1955</ele>
        <time>2009-07-04T08:08:14Z</time>
      </trkpt>
      <trkpt lat="45.6919" lon="6.69226">
        <ele>1967</ele>
        <time>2009-07-04T08:08:19Z</time>
      </trkpt>
      <trkpt lat="45.69168" lon="6.69199">
        <ele>1965</ele>
        <time>2009-07-04T08:08:23Z</time>
      </trkpt>
      <trkpt lat="45.69159" lon="6.69178">
        <ele>1965</ele>
        <time>2009-07-04T08:08:26Z</time>
      </trkpt>
      <trkpt lat="45.6914" lon="6.69113">
        <ele>1970</ele>
        <time>2009-07-04T08:08:34Z</time>
      </trkpt>
      <trkpt lat="45.69122" lon="6.68997">
        <ele>1968</ele>
        <time>2009-07-04T08:08:47Z</time>
      </trkpt>
      <trkpt lat="45.69121" lon="6.68965">
        <ele>1968</ele>
        <time>2009-07-04T08:08:51Z</time>
      </trkpt>
      <trkpt lat="45.69125" lon="6.6892">
        <ele>1959</ele>
        <time>2009-07-04T08:08:56Z</time>
      </trkpt>
      <trkpt lat="45.69138" lon="6.68869">
        <ele>1972</ele>
        <time>2009-07-04T08:09:02Z</time>
      </trkpt>
      <trkpt lat="45.69138" lon="6.68812">
        <ele>1972</ele>
        <time>2009-07-04T08:09:08Z</time>
      </trkpt>
      <trkpt lat="45.6915" lon="6.68768">
        <ele>1967</ele>
        <time>2009-07-04T08:09:14Z</time>
      </trkpt>
      <trkpt lat="45.69142" lon="6.68733">
        <ele>1967</ele>
        <time>2009-07-04T08:09:18Z</time>
      </trkpt>
      <trkpt lat="45.69124" lon="6.68705">
        <ele>1954</ele>
        <time>2009-07-04T08:09:22Z</time>
      </trkpt>
      <trkpt lat="45.69109" lon="6.68665">
        <ele>1954</ele>
        <time>2009-07-04T08:09:27Z</time>
      </trkpt>
      <trkpt lat="45.69119" lon="6.68592">
        <ele>1949</ele>
        <time>2009-07-04T08:09:35Z</time>
      </trkpt>
      <trkpt lat="45.69124" lon="6.68492">
        <ele>1948</ele>
        <time>2009-07-04T08:09:47Z</time>
      </trkpt>
      <trkpt lat="45.6913" lon="6.68465">
        <ele>1960</ele>
        <time>2009-07-04T08:09:50Z</time>
      </trkpt>
      <trkpt lat="45.69155" lon="6.68417">
        <ele>1953</ele>
        <time>2009-07-04T08:09:56Z</time>
      </trkpt>
      <trkpt lat="45.69157" lon="6.68383">
        <ele>1953</ele>
        <time>2009-07-04T08:10:00Z</time>
      </trkpt>
      <trkpt lat="45.69155" lon="6.68372">
        <ele>1949</ele>
        <time>2009-07-04T08:10:01Z</time>
      </trkpt>
      <trkpt lat="45.69117" lon="6.68309">
        <ele>1944</ele>
        <time>2009-07-04T08:10:11Z</time>
      </trkpt>
      <trkpt lat="45.69094" lon="6.6824">
        <ele>1942</ele>
        <time>2009-07-04T08:10:19Z</time>
      </trkpt>
      <trkpt lat="45.69074" lon="6.68218">
        <ele>1942</ele>
        <time>2009-07-04T08:10:23Z</time>
      </trkpt>
      <trkpt lat="45.69037" lon="6.68192">
        <ele>1940</ele>
        <time>2009-07-04T08:10:30Z</time>
      </trkpt>
      <trkpt lat="45.69018" lon="6.68169">
        <ele>1940</ele>
        <time>2009-07-04T08:10:34Z</time>
      </trkpt>
      <trkpt lat="45.69004" lon="6.68133">
        <ele>1940</ele>
        <time>2009-07-04T08:10:39Z</time>
      </trkpt>
      <trkpt lat="45.69" lon="6.6811">
        <ele>1937</ele>
        <time>2009-07-04T08:10:41Z</time>
      </trkpt>
      <trkpt lat="45.69009" lon="6.68049">
        <ele>1937</ele>
        <time>2009-07-04T08:10:48Z</time>
      </trkpt>
      <trkpt lat="45.69021" lon="6.68024">
        <ele>1930</ele>
        <time>2009-07-04T08:10:52Z</time>
      </trkpt>
      <trkpt lat="45.69038" lon="6.68004">
        <ele>1930</ele>
        <time>2009-07-04T08:10:55Z</time>
      </trkpt>
      <trkpt lat="45.69079" lon="6.67985">
        <ele>1924</ele>
        <time>2009-07-04T08:11:02Z</time>
      </trkpt>
      <trkpt lat="45.69096" lon="6.67985">
        <ele>1924</ele>
        <time>2009-07-04T08:11:05Z</time>
      </trkpt>
      <trkpt lat="45.69125" lon="6.67994">
        <ele>1924</ele>
        <time>2009-07-04T08:11:09Z</time>
      </trkpt>
      <trkpt lat="45.69136" lon="6.68002">
        <ele>1908</ele>
        <time>2009-07-04T08:11:11Z</time>
      </trkpt>
      <trkpt lat="45.69241" lon="6.68139">
        <ele>1916</ele>
        <time>2009-07-04T08:11:34Z</time>
      </trkpt>
      <trkpt lat="45.69283" lon="6.68187">
        <ele>1916</ele>
        <time>2009-07-04T08:11:43Z</time>
      </trkpt>
      <trkpt lat="45.69415" lon="6.68261">
        <ele>1901</ele>
        <time>2009-07-04T08:12:06Z</time>
      </trkpt>
      <trkpt lat="45.69427" lon="6.68257">
        <ele>1901</ele>
        <time>2009-07-04T08:12:07Z</time>
      </trkpt>
      <trkpt lat="45.69431" lon="6.68245">
        <ele>1901</ele>
        <time>2009-07-04T08:12:09Z</time>
      </trkpt>
      <trkpt lat="45.69431" lon="6.68232">
        <ele>1901</ele>
        <time>2009-07-04T08:12:10Z</time>
      </trkpt>
      <trkpt lat="45.69427" lon="6.68225">
        <ele>1901</ele>
        <time>2009-07-04T08:12:11Z</time>
      </trkpt>
      <trkpt lat="45.69374" lon="6.68181">
        <ele>1901</ele>
        <time>2009-07-04T08:12:21Z</time>
      </trkpt>
      <trkpt lat="45.69351" lon="6.68155">
        <ele>1901</ele>
        <time>2009-07-04T08:12:26Z</time>
      </trkpt>
      <trkpt lat="45.69328" lon="6.68113">
        <ele>1889</ele>
        <time>2009-07-04T08:12:32Z</time>
      </trkpt>
      <trkpt lat="45.69322" lon="6.68092">
        <ele>1889</ele>
        <time>2009-07-04T08:12:34Z</time>
      </trkpt>
      <trkpt lat="45.69309" lon="6.68">
        <ele>1874</ele>
        <time>2009-07-04T08:12:45Z</time>
      </trkpt>
      <trkpt lat="45.693" lon="6.67968">
        <ele>1874</ele>
        <time>2009-07-04T08:12:49Z</time>
      </trkpt>
      <trkpt lat="45.6929" lon="6.67948">
        <ele>1875</ele>
        <time>2009-07-04T08:12:52Z</time>
      </trkpt>
      <trkpt lat="45.69261" lon="6.67924">
        <ele>1875</ele>
        <time>2009-07-04T08:12:57Z</time>
      </trkpt>
      <trkpt lat="45.69228" lon="6.67912">
        <ele>1875</ele>
        <time>2009-07-04T08:13:02Z</time>
      </trkpt>
      <trkpt lat="45.6922" lon="6.67902">
        <ele>1875</ele>
        <time>2009-07-04T08:13:04Z</time>
      </trkpt>
      <trkpt lat="45.69192" lon="6.67838">
        <ele>1878</ele>
        <time>2009-07-04T08:13:13Z</time>
      </trkpt>
      <trkpt lat="45.69144" lon="6.67748">
        <ele>1857</ele>
        <time>2009-07-04T08:13:25Z</time>
      </trkpt>
      <trkpt lat="45.69126" lon="6.67722">
        <ele>1857</ele>
        <time>2009-07-04T08:13:29Z</time>
      </trkpt>
      <trkpt lat="45.6911" lon="6.67677">
        <ele>1872</ele>
        <time>2009-07-04T08:13:35Z</time>
      </trkpt>
      <trkpt lat="45.69093" lon="6.67584">
        <ele>1864</ele>
        <time>2009-07-04T08:13:46Z</time>
      </trkpt>
      <trkpt lat="45.69086" lon="6.67529">
        <ele>1855</ele>
        <time>2009-07-04T08:13:52Z</time>
      </trkpt>
      <trkpt lat="45.69085" lon="6.67488">
        <ele>1855</ele>
        <time>2009-07-04T08:13:57Z</time>
      </trkpt>
      <trkpt lat="45.69088" lon="6.67461">
        <ele>1855</ele>
        <time>2009-07-04T08:14:00Z</time>
      </trkpt>
      <trkpt lat="45.691" lon="6.67424">
        <ele>1853</ele>
        <time>2009-07-04T08:14:04Z</time>
      </trkpt>
      <trkpt lat="45.69129" lon="6.673">
        <ele>1834</ele>
        <time>2009-07-04T08:14:19Z</time>
      </trkpt>
      <trkpt lat="45.69173" lon="6.67262">
        <ele>1839</ele>
        <time>2009-07-04T08:14:27Z</time>
      </trkpt>
      <trkpt lat="45.69236" lon="6.67168">
        <ele>1827</ele>
        <time>2009-07-04T08:14:42Z</time>
      </trkpt>
      <trkpt lat="45.69273" lon="6.67058">
        <ele>1828</ele>
        <time>2009-07-04T08:14:55Z</time>
      </trkpt>
      <trkpt lat="45.69299" lon="6.67007">
        <ele>1816</ele>
        <time>2009-07-04T08:15:02Z</time>
      </trkpt>
      <trkpt lat="45.69344" lon="6.66825">
        <ele>1816</ele>
        <time>2009-07-04T08:15:24Z</time>
      </trkpt>
      <trkpt lat="45.69357" lon="6.66714">
        <ele>1817</ele>
        <time>2009-07-04T08:15:36Z</time>
      </trkpt>
      <trkpt lat="45.6936" lon="6.66628">
        <ele>1818</ele>
        <time>2009-07-04T08:15:46Z</time>
      </trkpt>
      <trkpt lat="45.69379" lon="6.66553">
        <ele>1791</ele>
        <time>2009-07-04T08:15:55Z</time>
      </trkpt>
      <trkpt lat="45.69387" lon="6.66536">
        <ele>1807</ele>
        <time>2009-07-04T08:15:57Z</time>
      </trkpt>
      <trkpt lat="45.69412" lon="6.6651">
        <ele>1807</ele>
        <time>2009-07-04T08:16:02Z</time>
      </trkpt>
      <trkpt lat="45.69441" lon="6.66487">
        <ele>1807</ele>
        <time>2009-07-04T08:16:08Z</time>
      </trkpt>
      <trkpt lat="45.69465" lon="6.66478">
        <ele>1798</ele>
        <time>2009-07-04T08:16:12Z</time>
      </trkpt>
      <trkpt lat="45.69486" lon="6.66478">
        <ele>1798</ele>
        <time>2009-07-04T08:16:15Z</time>
      </trkpt>
      <trkpt lat="45.69533" lon="6.66495">
        <ele>1798</ele>
        <time>2009-07-04T08:16:23Z</time>
      </trkpt>
      <trkpt lat="45.69561" lon="6.66491">
        <ele>1788</ele>
        <time>2009-07-04T08:16:27Z</time>
      </trkpt>
      <trkpt lat="45.6957" lon="6.66482">
        <ele>1788</ele>
        <time>2009-07-04T08:16:29Z</time>
      </trkpt>
      <trkpt lat="45.69599" lon="6.66406">
        <ele>1803</ele>
        <time>2009-07-04T08:16:39Z</time>
      </trkpt>
      <trkpt lat="45.6963" lon="6.66365">
        <ele>1726</ele>
        <time>2009-07-04T08:16:45Z</time>
      </trkpt>
      <trkpt lat="45.69633" lon="6.66307">
        <ele>1726</ele>
        <time>2009-07-04T08:16:52Z</time>
      </trkpt>
      <trkpt lat="45.69618" lon="6.66217">
        <ele>1812</ele>
        <time>2009-07-04T08:17:02Z</time>
      </trkpt>
      <trkpt lat="45.69607" lon="6.66177">
        <ele>1776</ele>
        <time>2009-07-04T08:17:07Z</time>
      </trkpt>
      <trkpt lat="45.69568" lon="6.66094">
        <ele>1746</ele>
        <time>2009-07-04T08:17:18Z</time>
      </trkpt>
      <trkpt lat="45.69538" lon="6.66046">
        <ele>1782</ele>
        <time>2009-07-04T08:17:25Z</time>
      </trkpt>
      <trkpt lat="45.69504" lon="6.66002">
        <ele>1749</ele>
        <time>2009-07-04T08:17:33Z</time>
      </trkpt>
      <trkpt lat="45.69437" lon="6.65942">
        <ele>1743</ele>
        <time>2009-07-04T08:17:45Z</time>
      </trkpt>
      <trkpt lat="45.69416" lon="6.65917">
        <ele>1743</ele>
        <time>2009-07-04T08:17:50Z</time>
      </trkpt>
      <trkpt lat="45.69396" lon="6.65888">
        <ele>1743</ele>
        <time>2009-07-04T08:17:54Z</time>
      </trkpt>
      <trkpt lat="45.69365" lon="6.65826">
        <ele>1747</ele>
        <time>2009-07-04T08:18:03Z</time>
      </trkpt>
      <trkpt lat="45.69343" lon="6.65799">
        <ele>1747</ele>
        <time>2009-07-04T08:18:08Z</time>
      </trkpt>
      <trkpt lat="45.69313" lon="6.65772">
        <ele>1715</ele>
        <time>2009-07-04T08:18:13Z</time>
      </trkpt>
      <trkpt lat="45.69296" lon="6.65724">
        <ele>1715</ele>
        <time>2009-07-04T08:18:19Z</time>
      </trkpt>
      <trkpt lat="45.69227" lon="6.65627">
        <ele>1724</ele>
        <time>2009-07-04T08:18:35Z</time>
      </trkpt>
      <trkpt lat="45.69213" lon="6.65596">
        <ele>1694</ele>
        <time>2009-07-04T08:18:39Z</time>
      </trkpt>
      <trkpt lat="45.69185" lon="6.65512">
        <ele>1711</ele>
        <time>2009-07-04T08:18:49Z</time>
      </trkpt>
      <trkpt lat="45.6917" lon="6.6548">
        <ele>1711</ele>
        <time>2009-07-04T08:18:54Z</time>
      </trkpt>
      <trkpt lat="45.691" lon="6.65378">
        <ele>1714</ele>
        <time>2009-07-04T08:19:10Z</time>
      </trkpt>
      <trkpt lat="45.69098" lon="6.65369">
        <ele>1685</ele>
        <time>2009-07-04T08:19:11Z</time>
      </trkpt>
      <trkpt lat="45.69103" lon="6.65359">
        <ele>1685</ele>
        <time>2009-07-04T08:19:12Z</time>
      </trkpt>
      <trkpt lat="45.69114" lon="6.65361">
        <ele>1685</ele>
        <time>2009-07-04T08:19:14Z</time>
      </trkpt>
      <trkpt lat="45.69187" lon="6.65447">
        <ele>1687</ele>
        <time>2009-07-04T08:19:29Z</time>
      </trkpt>
      <trkpt lat="45.69252" lon="6.65546">
        <ele>1694</ele>
        <time>2009-07-04T08:19:44Z</time>
      </trkpt>
      <trkpt lat="45.69386" lon="6.65693">
        <ele>1645</ele>
        <time>2009-07-04T08:20:11Z</time>
      </trkpt>
      <trkpt lat="45.69394" lon="6.65705">
        <ele>1645</ele>
        <time>2009-07-04T08:20:13Z</time>
      </trkpt>
      <trkpt lat="45.69411" lon="6.65754">
        <ele>1682</ele>
        <time>2009-07-04T08:20:19Z</time>
      </trkpt>
      <trkpt lat="45.69421" lon="6.65768">
        <ele>1682</ele>
        <time>2009-07-04T08:20:21Z</time>
      </trkpt>
      <trkpt lat="45.69516" lon="6.65795">
        <ele>1681</ele>
        <time>2009-07-04T08:20:37Z</time>
      </trkpt>
      <trkpt lat="45.69555" lon="6.65798">
        <ele>1660</ele>
        <time>2009-07-04T08:20:43Z</time>
      </trkpt>
      <trkpt lat="45.69587" lon="6.65786">
        <ele>1643</ele>
        <time>2009-07-04T08:20:48Z</time>
      </trkpt>
      <trkpt lat="45.696" lon="6.65766">
        <ele>1643</ele>
        <time>2009-07-04T08:20:51Z</time>
      </trkpt>
      <trkpt lat="45.69602" lon="6.65729">
        <ele>1643</ele>
        <time>2009-07-04T08:20:56Z</time>
      </trkpt>
      <trkpt lat="45.69597" lon="6.6571">
        <ele>1643</ele>
        <time>2009-07-04T08:20:58Z</time>
      </trkpt>
      <trkpt lat="45.69587" lon="6.65694">
        <ele>1637</ele>
        <time>2009-07-04T08:21:00Z</time>
      </trkpt>
      <trkpt lat="45.69566" lon="6.65681">
        <ele>1637</ele>
        <time>2009-07-04T08:21:04Z</time>
      </trkpt>
      <trkpt lat="45.69462" lon="6.65672">
        <ele>1633</ele>
        <time>2009-07-04T08:21:21Z</time>
      </trkpt>
      <trkpt lat="45.69444" lon="6.65645">
        <ele>1645</ele>
        <time>2009-07-04T08:21:25Z</time>
      </trkpt>
      <trkpt lat="45.69434" lon="6.65601">
        <ele>1635</ele>
        <time>2009-07-04T08:21:30Z</time>
      </trkpt>
      <trkpt lat="45.69436" lon="6.65574">
        <ele>1635</ele>
        <time>2009-07-04T08:21:33Z</time>
      </trkpt>
      <trkpt lat="45.69442" lon="6.65557">
        <ele>1635</ele>
        <time>2009-07-04T08:21:35Z</time>
      </trkpt>
      <trkpt lat="45.69452" lon="6.65544">
        <ele>1635</ele>
        <time>2009-07-04T08:21:37Z</time>
      </trkpt>
      <trkpt lat="45.69497" lon="6.65546">
        <ele>1624</ele>
        <time>2009-07-04T08:21:44Z</time>
      </trkpt>
      <trkpt lat="45.69563" lon="6.65562">
        <ele>1618</ele>
        <time>2009-07-04T08:21:55Z</time>
      </trkpt>
      <trkpt lat="45.69664" lon="6.65608">
        <ele>1601</ele>
        <time>2009-07-04T08:22:12Z</time>
      </trkpt>
      <trkpt lat="45.69708" lon="6.65622">
        <ele>1601</ele>
        <time>2009-07-04T08:22:19Z</time>
      </trkpt>
      <trkpt lat="45.6973" lon="6.65625">
        <ele>1607</ele>
        <time>2009-07-04T08:22:23Z</time>
      </trkpt>
      <trkpt lat="45.69768" lon="6.65617">
        <ele>1588</ele>
        <time>2009-07-04T08:22:29Z</time>
      </trkpt>
      <trkpt lat="45.69797" lon="6.65601">
        <ele>1586</ele>
        <time>2009-07-04T08:22:34Z</time>
      </trkpt>
      <trkpt lat="45.69875" lon="6.65533">
        <ele>1578</ele>
        <time>2009-07-04T08:22:49Z</time>
      </trkpt>
      <trkpt lat="45.69924" lon="6.6551">
        <ele>1584</ele>
        <time>2009-07-04T08:22:57Z</time>
      </trkpt>
      <trkpt lat="45.6994" lon="6.65497">
        <ele>1584</ele>
        <time>2009-07-04T08:23:00Z</time>
      </trkpt>
      <trkpt lat="45.69949" lon="6.65484">
        <ele>1584</ele>
        <time>2009-07-04T08:23:02Z</time>
      </trkpt>
      <trkpt lat="45.69971" lon="6.65411">
        <ele>1595</ele>
        <time>2009-07-04T08:23:11Z</time>
      </trkpt>
      <trkpt lat="45.70005" lon="6.6536">
        <ele>1588</ele>
        <time>2009-07-04T08:23:19Z</time>
      </trkpt>
      <trkpt lat="45.70023" lon="6.65312">
        <ele>1588</ele>
        <time>2009-07-04T08:23:25Z</time>
      </trkpt>
      <trkpt lat="45.70026" lon="6.65284">
        <ele>1586</ele>
        <time>2009-07-04T08:23:28Z</time>
      </trkpt>
      <trkpt lat="45.70017" lon="6.65206">
        <ele>1588</ele>
        <time>2009-07-04T08:23:37Z</time>
      </trkpt>
      <trkpt lat="45.70018" lon="6.65127">
        <ele>1588</ele>
        <time>2009-07-04T08:23:46Z</time>
      </trkpt>
      <trkpt lat="45.70009" lon="6.65059">
        <ele>1594</ele>
        <time>2009-07-04T08:23:53Z</time>
      </trkpt>
      <trkpt lat="45.70013" lon="6.65038">
        <ele>1598</ele>
        <time>2009-07-04T08:23:56Z</time>
      </trkpt>
      <trkpt lat="45.70021" lon="6.65021">
        <ele>1598</ele>
        <time>2009-07-04T08:23:58Z</time>
      </trkpt>
      <trkpt lat="45.70057" lon="6.64981">
        <ele>1613</ele>
        <time>2009-07-04T08:24:05Z</time>
      </trkpt>
      <trkpt lat="45.70096" lon="6.64915">
        <ele>1605</ele>
        <time>2009-07-04T08:24:15Z</time>
      </trkpt>
      <trkpt lat="45.70096" lon="6.64878">
        <ele>1605</ele>
        <time>2009-07-04T08:24:19Z</time>
      </trkpt>
      <trkpt lat="45.70087" lon="6.64843">
        <ele>1613</ele>
        <time>2009-07-04T08:24:23Z</time>
      </trkpt>
      <trkpt lat="45.70075" lon="6.64817">
        <ele>1613</ele>
        <time>2009-07-04T08:24:27Z</time>
      </trkpt>
      <trkpt lat="45.70028" lon="6.64758">
        <ele>1595</ele>
        <time>2009-07-04T08:24:37Z</time>
      </trkpt>
      <trkpt lat="45.69997" lon="6.64697">
        <ele>1607</ele>
        <time>2009-07-04T08:24:45Z</time>
      </trkpt>
      <trkpt lat="45.6997" lon="6.64614">
        <ele>1607</ele>
        <time>2009-07-04T08:24:56Z</time>
      </trkpt>
      <trkpt lat="45.69965" lon="6.64586">
        <ele>1607</ele>
        <time>2009-07-04T08:24:59Z</time>
      </trkpt>
      <trkpt lat="45.69967" lon="6.64568">
        <ele>1607</ele>
        <time>2009-07-04T08:25:01Z</time>
      </trkpt>
      <trkpt lat="45.69985" lon="6.64539">
        <ele>1600</ele>
        <time>2009-07-04T08:25:05Z</time>
      </trkpt>
      <trkpt lat="45.70026" lon="6.64512">
        <ele>1600</ele>
        <time>2009-07-04T08:25:12Z</time>
      </trkpt>
      <trkpt lat="45.70055" lon="6.64465">
        <ele>1615</ele>
        <time>2009-07-04T08:25:19Z</time>
      </trkpt>
      <trkpt lat="45.70061" lon="6.64419">
        <ele>1613</ele>
        <time>2009-07-04T08:25:25Z</time>
      </trkpt>
      <trkpt lat="45.70053" lon="6.64379">
        <ele>1613</ele>
        <time>2009-07-04T08:25:29Z</time>
      </trkpt>
      <trkpt lat="45.70046" lon="6.64359">
        <ele>1620</ele>
        <time>2009-07-04T08:25:32Z</time>
      </trkpt>
      <trkpt lat="45.70025" lon="6.64324">
        <ele>1589</ele>
        <time>2009-07-04T08:25:37Z</time>
      </trkpt>
      <trkpt lat="45.70015" lon="6.64248">
        <ele>1595</ele>
        <time>2009-07-04T08:25:46Z</time>
      </trkpt>
      <trkpt lat="45.70006" lon="6.64217">
        <ele>1595</ele>
        <time>2009-07-04T08:25:49Z</time>
      </trkpt>
      <trkpt lat="45.69939" lon="6.64074">
        <ele>1589</ele>
        <time>2009-07-04T08:26:09Z</time>
      </trkpt>
      <trkpt lat="45.69874" lon="6.63967">
        <ele>1578</ele>
        <time>2009-07-04T08:26:24Z</time>
      </trkpt>
      <trkpt lat="45.69789" lon="6.63855">
        <ele>1607</ele>
        <time>2009-07-04T08:26:43Z</time>
      </trkpt>
      <trkpt lat="45.69691" lon="6.63788">
        <ele>1605</ele>
        <time>2009-07-04T08:27:00Z</time>
      </trkpt>
      <trkpt lat="45.69666" lon="6.63762">
        <ele>1605</ele>
        <time>2009-07-04T08:27:05Z</time>
      </trkpt>
      <trkpt lat="45.69625" lon="6.63685">
        <ele>1639</ele>
        <time>2009-07-04T08:27:16Z</time>
      </trkpt>
      <trkpt lat="45.69585" lon="6.63648">
        <ele>1591</ele>
        <time>2009-07-04T08:27:24Z</time>
      </trkpt>
      <trkpt lat="45.69532" lon="6.63586">
        <ele>1591</ele>
        <time>2009-07-04T08:27:35Z</time>
      </trkpt>
      <trkpt lat="45.69494" lon="6.63503">
        <ele>1612</ele>
        <time>2009-07-04T08:27:46Z</time>
      </trkpt>
      <trkpt lat="45.69483" lon="6.63462">
        <ele>1612</ele>
        <time>2009-07-04T08:27:51Z</time>
      </trkpt>
      <trkpt lat="45.69475" lon="6.63412">
        <ele>1617</ele>
        <time>2009-07-04T08:27:56Z</time>
      </trkpt>
      <trkpt lat="45.69468" lon="6.63348">
        <ele>1615</ele>
        <time>2009-07-04T08:28:04Z</time>
      </trkpt>
      <trkpt lat="45.69491" lon="6.63316">
        <ele>1615</ele>
        <time>2009-07-04T08:28:09Z</time>
      </trkpt>
      <trkpt lat="45.69502" lon="6.63308">
        <ele>1615</ele>
        <time>2009-07-04T08:28:11Z</time>
      </trkpt>
      <trkpt lat="45.69538" lon="6.63307">
        <ele>1615</ele>
        <time>2009-07-04T08:28:17Z</time>
      </trkpt>
      <trkpt lat="45.69552" lon="6.63313">
        <ele>1615</ele>
        <time>2009-07-04T08:28:19Z</time>
      </trkpt>
      <trkpt lat="45.69587" lon="6.63341">
        <ele>1615</ele>
        <time>2009-07-04T08:28:25Z</time>
      </trkpt>
      <trkpt lat="45.69703" lon="6.63398">
        <ele>1622</ele>
        <time>2009-07-04T08:28:45Z</time>
      </trkpt>
      <trkpt lat="45.69772" lon="6.63398">
        <ele>1608</ele>
        <time>2009-07-04T08:28:56Z</time>
      </trkpt>
      <trkpt lat="45.69822" lon="6.63424">
        <ele>1594</ele>
        <time>2009-07-04T08:29:05Z</time>
      </trkpt>
      <trkpt lat="45.69885" lon="6.63424">
        <ele>1588</ele>
        <time>2009-07-04T08:29:15Z</time>
      </trkpt>
      <trkpt lat="45.69902" lon="6.63418">
        <ele>1588</ele>
        <time>2009-07-04T08:29:17Z</time>
      </trkpt>
      <trkpt lat="45.69937" lon="6.63389">
        <ele>1588</ele>
        <time>2009-07-04T08:29:24Z</time>
      </trkpt>
      <trkpt lat="45.69958" lon="6.63383">
        <ele>1588</ele>
        <time>2009-07-04T08:29:27Z</time>
      </trkpt>
      <trkpt lat="45.70036" lon="6.6339">
        <ele>1589</ele>
        <time>2009-07-04T08:29:40Z</time>
      </trkpt>
      <trkpt lat="45.7017" lon="6.63387">
        <ele>1578</ele>
        <time>2009-07-04T08:30:01Z</time>
      </trkpt>
      <trkpt lat="45.70305" lon="6.63352">
        <ele>1534</ele>
        <time>2009-07-04T08:30:23Z</time>
      </trkpt>
      <trkpt lat="45.70317" lon="6.63352">
        <ele>1534</ele>
        <time>2009-07-04T08:30:25Z</time>
      </trkpt>
      <trkpt lat="45.70353" lon="6.63366">
        <ele>1534</ele>
        <time>2009-07-04T08:30:31Z</time>
      </trkpt>
      <trkpt lat="45.7042" lon="6.63358">
        <ele>1527</ele>
        <time>2009-07-04T08:30:42Z</time>
      </trkpt>
      <trkpt lat="45.70473" lon="6.63369">
        <ele>1517</ele>
        <time>2009-07-04T08:30:51Z</time>
      </trkpt>
      <trkpt lat="45.70502" lon="6.63369">
        <ele>1517</ele>
        <time>2009-07-04T08:30:55Z</time>
      </trkpt>
      <trkpt lat="45.70562" lon="6.63354">
        <ele>1509</ele>
        <time>2009-07-04T08:31:05Z</time>
      </trkpt>
      <trkpt lat="45.70601" lon="6.63351">
        <ele>1509</ele>
        <time>2009-07-04T08:31:11Z</time>
      </trkpt>
      <trkpt lat="45.70629" lon="6.63334">
        <ele>1514</ele>
        <time>2009-07-04T08:31:16Z</time>
      </trkpt>
      <trkpt lat="45.7067" lon="6.6332">
        <ele>1514</ele>
        <time>2009-07-04T08:31:23Z</time>
      </trkpt>
      <trkpt lat="45.70673" lon="6.63314">
        <ele>1514</ele>
        <time>2009-07-04T08:31:24Z</time>
      </trkpt>
      <trkpt lat="45.70671" lon="6.63298">
        <ele>1514</ele>
        <time>2009-07-04T08:31:25Z</time>
      </trkpt>
      <trkpt lat="45.7066" lon="6.63297">
        <ele>1514</ele>
        <time>2009-07-04T08:31:27Z</time>
      </trkpt>
      <trkpt lat="45.70609" lon="6.6332">
        <ele>1509</ele>
        <time>2009-07-04T08:31:36Z</time>
      </trkpt>
      <trkpt lat="45.70547" lon="6.63317">
        <ele>1509</ele>
        <time>2009-07-04T08:31:46Z</time>
      </trkpt>
      <trkpt lat="45.70494" lon="6.63301">
        <ele>1517</ele>
        <time>2009-07-04T08:31:54Z</time>
      </trkpt>
      <trkpt lat="45.70422" lon="6.63246">
        <ele>1489</ele>
        <time>2009-07-04T08:32:07Z</time>
      </trkpt>
      <trkpt lat="45.70376" lon="6.63237">
        <ele>1489</ele>
        <time>2009-07-04T08:32:15Z</time>
      </trkpt>
      <trkpt lat="45.70346" lon="6.63221">
        <ele>1493</ele>
        <time>2009-07-04T08:32:20Z</time>
      </trkpt>
      <trkpt lat="45.70326" lon="6.63218">
        <ele>1493</ele>
        <time>2009-07-04T08:32:23Z</time>
      </trkpt>
      <trkpt lat="45.7025" lon="6.63232">
        <ele>1491</ele>
        <time>2009-07-04T08:32:35Z</time>
      </trkpt>
      <trkpt lat="45.70124" lon="6.63203">
        <ele>1469</ele>
        <time>2009-07-04T08:32:56Z</time>
      </trkpt>
      <trkpt lat="45.70091" lon="6.63183">
        <ele>1469</ele>
        <time>2009-07-04T08:33:02Z</time>
      </trkpt>
      <trkpt lat="45.70055" lon="6.63141">
        <ele>1469</ele>
        <time>2009-07-04T08:33:09Z</time>
      </trkpt>
      <trkpt lat="45.70016" lon="6.63112">
        <ele>1463</ele>
        <time>2009-07-04T08:33:16Z</time>
      </trkpt>
      <trkpt lat="45.70009" lon="6.63102">
        <ele>1463</ele>
        <time>2009-07-04T08:33:18Z</time>
      </trkpt>
      <trkpt lat="45.70003" lon="6.63081">
        <ele>1463</ele>
        <time>2009-07-04T08:33:20Z</time>
      </trkpt>
      <trkpt lat="45.70004" lon="6.63074">
        <ele>1463</ele>
        <time>2009-07-04T08:33:21Z</time>
      </trkpt>
      <trkpt lat="45.70013" lon="6.63071">
        <ele>1463</ele>
        <time>2009-07-04T08:33:23Z</time>
      </trkpt>
      <trkpt lat="45.70054" lon="6.63099">
        <ele>1437</ele>
        <time>2009-07-04T08:33:30Z</time>
      </trkpt>
      <trkpt lat="45.70093" lon="6.63107">
        <ele>1437</ele>
        <time>2009-07-04T08:33:36Z</time>
      </trkpt>
      <trkpt lat="45.70146" lon="6.63138">
        <ele>1452</ele>
        <time>2009-07-04T08:33:45Z</time>
      </trkpt>
      <trkpt lat="45.7018" lon="6.63144">
        <ele>1452</ele>
        <time>2009-07-04T08:33:51Z</time>
      </trkpt>
      <trkpt lat="45.70222" lon="6.63134">
        <ele>1446</ele>
        <time>2009-07-04T08:33:58Z</time>
      </trkpt>
      <trkpt lat="45.70276" lon="6.63134">
        <ele>1446</ele>
        <time>2009-07-04T08:34:06Z</time>
      </trkpt>
      <trkpt lat="45.70367" lon="6.63096">
        <ele>1402</ele>
        <time>2009-07-04T08:34:21Z</time>
      </trkpt>
      <trkpt lat="45.70439" lon="6.63091">
        <ele>1406</ele>
        <time>2009-07-04T08:34:33Z</time>
      </trkpt>
      <trkpt lat="45.70489" lon="6.63074">
        <ele>1397</ele>
        <time>2009-07-04T08:34:41Z</time>
      </trkpt>
      <trkpt lat="45.70529" lon="6.63095">
        <ele>1397</ele>
        <time>2009-07-04T08:34:48Z</time>
      </trkpt>
      <trkpt lat="45.70588" lon="6.63093">
        <ele>1392</ele>
        <time>2009-07-04T08:34:57Z</time>
      </trkpt>
      <trkpt lat="45.70611" lon="6.63097">
        <ele>1392</ele>
        <time>2009-07-04T08:35:01Z</time>
      </trkpt>
      <trkpt lat="45.70704" lon="6.63129">
        <ele>1430</ele>
        <time>2009-07-04T08:35:16Z</time>
      </trkpt>
      <trkpt lat="45.70724" lon="6.63128">
        <ele>1398</ele>
        <time>2009-07-04T08:35:20Z</time>
      </trkpt>
      <trkpt lat="45.70733" lon="6.63116">
        <ele>1370</ele>
        <time>2009-07-04T08:35:22Z</time>
      </trkpt>
      <trkpt lat="45.70729" lon="6.63096">
        <ele>1370</ele>
        <time>2009-07-04T08:35:24Z</time>
      </trkpt>
      <trkpt lat="45.70725" lon="6.63092">
        <ele>1370</ele>
        <time>2009-07-04T08:35:25Z</time>
      </trkpt>
      <trkpt lat="45.70716" lon="6.63086">
        <ele>1370</ele>
        <time>2009-07-04T08:35:26Z</time>
      </trkpt>
      <trkpt lat="45.70668" lon="6.63079">
        <ele>1383</ele>
        <time>2009-07-04T08:35:34Z</time>
      </trkpt>
      <trkpt lat="45.70647" lon="6.63068">
        <ele>1383</ele>
        <time>2009-07-04T08:35:38Z</time>
      </trkpt>
      <trkpt lat="45.70541" lon="6.62999">
        <ele>1364</ele>
        <time>2009-07-04T08:35:56Z</time>
      </trkpt>
      <trkpt lat="45.70518" lon="6.6298">
        <ele>1364</ele>
        <time>2009-07-04T08:36:01Z</time>
      </trkpt>
      <trkpt lat="45.70502" lon="6.62959">
        <ele>1364</ele>
        <time>2009-07-04T08:36:04Z</time>
      </trkpt>
      <trkpt lat="45.70488" lon="6.62951">
        <ele>1338</ele>
        <time>2009-07-04T08:36:06Z</time>
      </trkpt>
      <trkpt lat="45.70437" lon="6.62943">
        <ele>1339</ele>
        <time>2009-07-04T08:36:15Z</time>
      </trkpt>
      <trkpt lat="45.70387" lon="6.62952">
        <ele>1339</ele>
        <time>2009-07-04T08:36:23Z</time>
      </trkpt>
      <trkpt lat="45.70315" lon="6.62957">
        <ele>1331</ele>
        <time>2009-07-04T08:36:34Z</time>
      </trkpt>
      <trkpt lat="45.70293" lon="6.62955">
        <ele>1331</ele>
        <time>2009-07-04T08:36:38Z</time>
      </trkpt>
      <trkpt lat="45.70269" lon="6.62944">
        <ele>1345</ele>
        <time>2009-07-04T08:36:42Z</time>
      </trkpt>
      <trkpt lat="45.70147" lon="6.62855">
        <ele>1320</ele>
        <time>2009-07-04T08:37:04Z</time>
      </trkpt>
      <trkpt lat="45.70099" lon="6.62836">
        <ele>1343</ele>
        <time>2009-07-04T08:37:12Z</time>
      </trkpt>
      <trkpt lat="45.70028" lon="6.62737">
        <ele>1347</ele>
        <time>2009-07-04T08:37:28Z</time>
      </trkpt>
      <trkpt lat="45.69977" lon="6.6269">
        <ele>1309</ele>
        <time>2009-07-04T08:37:37Z</time>
      </trkpt>
      <trkpt lat="45.69954" lon="6.62657">
        <ele>1360</ele>
        <time>2009-07-04T08:37:43Z</time>
      </trkpt>
      <trkpt lat="45.69924" lon="6.62589">
        <ele>1346</ele>
        <time>2009-07-04T08:37:52Z</time>
      </trkpt>
      <trkpt lat="45.699" lon="6.62505">
        <ele>1320</ele>
        <time>2009-07-04T08:38:02Z</time>
      </trkpt>
      <trkpt lat="45.69885" lon="6.62399">
        <ele>1295</ele>
        <time>2009-07-04T08:38:14Z</time>
      </trkpt>
      <trkpt lat="45.69874" lon="6.62353">
        <ele>1352</ele>
        <time>2009-07-04T08:38:19Z</time>
      </trkpt>
      <trkpt lat="45.69825" lon="6.62195">
        <ele>1289</ele>
        <time>2009-07-04T08:38:39Z</time>
      </trkpt>
      <trkpt lat="45.69822" lon="6.62169">
        <ele>1289</ele>
        <time>2009-07-04T08:38:41Z</time>
      </trkpt>
      <trkpt lat="45.69827" lon="6.62144">
        <ele>1289</ele>
        <time>2009-07-04T08:38:44Z</time>
      </trkpt>
      <trkpt lat="45.69826" lon="6.62124">
        <ele>1264</ele>
        <time>2009-07-04T08:38:47Z</time>
      </trkpt>
      <trkpt lat="45.69813" lon="6.62097">
        <ele>1264</ele>
        <time>2009-07-04T08:38:50Z</time>
      </trkpt>
      <trkpt lat="45.69781" lon="6.62064">
        <ele>1319</ele>
        <time>2009-07-04T08:38:57Z</time>
      </trkpt>
      <trkpt lat="45.69774" lon="6.62051">
        <ele>1319</ele>
        <time>2009-07-04T08:38:58Z</time>
      </trkpt>
      <trkpt lat="45.69736" lon="6.61954">
        <ele>1258</ele>
        <time>2009-07-04T08:39:11Z</time>
      </trkpt>
      <trkpt lat="45.69709" lon="6.619">
        <ele>1258</ele>
        <time>2009-07-04T08:39:18Z</time>
      </trkpt>
      <trkpt lat="45.69699" lon="6.61864">
        <ele>1299</ele>
        <time>2009-07-04T08:39:23Z</time>
      </trkpt>
      <trkpt lat="45.69666" lon="6.617">
        <ele>1276</ele>
        <time>2009-07-04T08:39:42Z</time>
      </trkpt>
      <trkpt lat="45.69666" lon="6.61686">
        <ele>1276</ele>
        <time>2009-07-04T08:39:43Z</time>
      </trkpt>
      <trkpt lat="45.69673" lon="6.61678">
        <ele>1276</ele>
        <time>2009-07-04T08:39:45Z</time>
      </trkpt>
      <trkpt lat="45.6968" lon="6.61679">
        <ele>1276</ele>
        <time>2009-07-04T08:39:46Z</time>
      </trkpt>
      <trkpt lat="45.69688" lon="6.61691">
        <ele>1276</ele>
        <time>2009-07-04T08:39:48Z</time>
      </trkpt>
      <trkpt lat="45.69714" lon="6.61773">
        <ele>1236</ele>
        <time>2009-07-04T08:39:58Z</time>
      </trkpt>
      <trkpt lat="45.69744" lon="6.61833">
        <ele>1242</ele>
        <time>2009-07-04T08:40:06Z</time>
      </trkpt>
      <trkpt lat="45.69756" lon="6.61899">
        <ele>1258</ele>
        <time>2009-07-04T08:40:14Z</time>
      </trkpt>
      <trkpt lat="45.69796" lon="6.61966">
        <ele>1235</ele>
        <time>2009-07-04T08:40:24Z</time>
      </trkpt>
      <trkpt lat="45.69824" lon="6.62004">
        <ele>1235</ele>
        <time>2009-07-04T08:40:30Z</time>
      </trkpt>
      <trkpt lat="45.69835" lon="6.62012">
        <ele>1235</ele>
        <time>2009-07-04T08:40:32Z</time>
      </trkpt>
      <trkpt lat="45.69845" lon="6.62006">
        <ele>1235</ele>
        <time>2009-07-04T08:40:33Z</time>
      </trkpt>
      <trkpt lat="45.69844" lon="6.61992">
        <ele>1235</ele>
        <time>2009-07-04T08:40:35Z</time>
      </trkpt>
      <trkpt lat="45.69791" lon="6.61905">
        <ele>1258</ele>
        <time>2009-07-04T08:40:48Z</time>
      </trkpt>
      <trkpt lat="45.69779" lon="6.61839">
        <ele>1242</ele>
        <time>2009-07-04T08:40:56Z</time>
      </trkpt>
      <trkpt lat="45.69776" lon="6.61794">
        <ele>1242</ele>
        <time>2009-07-04T08:41:01Z</time>
      </trkpt>
      <trkpt lat="45.69779" lon="6.61711">
        <ele>1236</ele>
        <time>2009-07-04T08:41:10Z</time>
      </trkpt>
      <trkpt lat="45.69788" lon="6.61644">
        <ele>1233</ele>
        <time>2009-07-04T08:41:17Z</time>
      </trkpt>
      <trkpt lat="45.69785" lon="6.61615">
        <ele>1221</ele>
        <time>2009-07-04T08:41:21Z</time>
      </trkpt>
      <trkpt lat="45.69749" lon="6.61523">
        <ele>1189</ele>
        <time>2009-07-04T08:41:33Z</time>
      </trkpt>
      <trkpt lat="45.69728" lon="6.61499">
        <ele>1189</ele>
        <time>2009-07-04T08:41:37Z</time>
      </trkpt>
      <trkpt lat="45.69683" lon="6.61467">
        <ele>1219</ele>
        <time>2009-07-04T08:41:45Z</time>
      </trkpt>
      <trkpt lat="45.69672" lon="6.6145">
        <ele>1191</ele>
        <time>2009-07-04T08:41:47Z</time>
      </trkpt>
      <trkpt lat="45.69671" lon="6.61426">
        <ele>1191</ele>
        <time>2009-07-04T08:41:50Z</time>
      </trkpt>
      <trkpt lat="45.69682" lon="6.61418">
        <ele>1191</ele>
        <time>2009-07-04T08:41:52Z</time>
      </trkpt>
      <trkpt lat="45.69726" lon="6.61454">
        <ele>1173</ele>
        <time>2009-07-04T08:42:00Z</time>
      </trkpt>
      <trkpt lat="45.69805" lon="6.61474">
        <ele>1167</ele>
        <time>2009-07-04T08:42:13Z</time>
      </trkpt>
      <trkpt lat="45.69827" lon="6.61503">
        <ele>1167</ele>
        <time>2009-07-04T08:42:18Z</time>
      </trkpt>
      <trkpt lat="45.69849" lon="6.61566">
        <ele>1180</ele>
        <time>2009-07-04T08:42:26Z</time>
      </trkpt>
      <trkpt lat="45.69895" lon="6.61735">
        <ele>1160</ele>
        <time>2009-07-04T08:42:46Z</time>
      </trkpt>
      <trkpt lat="45.69926" lon="6.61805">
        <ele>1169</ele>
        <time>2009-07-04T08:42:55Z</time>
      </trkpt>
      <trkpt lat="45.69946" lon="6.61833">
        <ele>1169</ele>
        <time>2009-07-04T08:43:00Z</time>
      </trkpt>
      <trkpt lat="45.69964" lon="6.6185">
        <ele>1145</ele>
        <time>2009-07-04T08:43:03Z</time>
      </trkpt>
      <trkpt lat="45.70036" lon="6.6189">
        <ele>1160</ele>
        <time>2009-07-04T08:43:16Z</time>
      </trkpt>
      <trkpt lat="45.7007" lon="6.61928">
        <ele>1134</ele>
        <time>2009-07-04T08:43:23Z</time>
      </trkpt>
      <trkpt lat="45.70076" lon="6.61946">
        <ele>1134</ele>
        <time>2009-07-04T08:43:25Z</time>
      </trkpt>
      <trkpt lat="45.70081" lon="6.62013">
        <ele>1142</ele>
        <time>2009-07-04T08:43:32Z</time>
      </trkpt>
      <trkpt lat="45.70103" lon="6.62151">
        <ele>1149</ele>
        <time>2009-07-04T08:43:48Z</time>
      </trkpt>
      <trkpt lat="45.70173" lon="6.62279">
        <ele>1114</ele>
        <time>2009-07-04T08:44:06Z</time>
      </trkpt>
      <trkpt lat="45.70208" lon="6.62325">
        <ele>1131</ele>
        <time>2009-07-04T08:44:14Z</time>
      </trkpt>
      <trkpt lat="45.70268" lon="6.62365">
        <ele>1098</ele>
        <time>2009-07-04T08:44:25Z</time>
      </trkpt>
      <trkpt lat="45.70362" lon="6.62437">
        <ele>1098</ele>
        <time>2009-07-04T08:44:42Z</time>
      </trkpt>
      <trkpt lat="45.70439" lon="6.62458">
        <ele>1077</ele>
        <time>2009-07-04T08:44:54Z</time>
      </trkpt>
      <trkpt lat="45.7051" lon="6.62447">
        <ele>1063</ele>
        <time>2009-07-04T08:45:06Z</time>
      </trkpt>
      <trkpt lat="45.70513" lon="6.62436">
        <ele>1063</ele>
        <time>2009-07-04T08:45:07Z</time>
      </trkpt>
      <trkpt lat="45.70508" lon="6.62426">
        <ele>1063</ele>
        <time>2009-07-04T08:45:08Z</time>
      </trkpt>
      <trkpt lat="45.70497" lon="6.62421">
        <ele>1063</ele>
        <time>2009-07-04T08:45:10Z</time>
      </trkpt>
      <trkpt lat="45.70451" lon="6.62417">
        <ele>1077</ele>
        <time>2009-07-04T08:45:18Z</time>
      </trkpt>
      <trkpt lat="45.70414" lon="6.62402">
        <ele>1077</ele>
        <time>2009-07-04T08:45:24Z</time>
      </trkpt>
      <trkpt lat="45.70395" lon="6.62384">
        <ele>1077</ele>
        <time>2009-07-04T08:45:27Z</time>
      </trkpt>
      <trkpt lat="45.7037" lon="6.6234">
        <ele>1077</ele>
        <time>2009-07-04T08:45:34Z</time>
      </trkpt>
      <trkpt lat="45.70357" lon="6.62304">
        <ele>1077</ele>
        <time>2009-07-04T08:45:38Z</time>
      </trkpt>
      <trkpt lat="45.70349" lon="6.62265">
        <ele>1065</ele>
        <time>2009-07-04T08:45:43Z</time>
      </trkpt>
      <trkpt lat="45.70358" lon="6.62189">
        <ele>1056</ele>
        <time>2009-07-04T08:45:51Z</time>
      </trkpt>
      <trkpt lat="45.70359" lon="6.62147">
        <ele>1056</ele>
        <time>2009-07-04T08:45:56Z</time>
      </trkpt>
      <trkpt lat="45.70339" lon="6.62115">
        <ele>1047</ele>
        <time>2009-07-04T08:46:01Z</time>
      </trkpt>
      <trkpt lat="45.70336" lon="6.62093">
        <ele>1047</ele>
        <time>2009-07-04T08:46:03Z</time>
      </trkpt>
      <trkpt lat="45.70338" lon="6.62079">
        <ele>1047</ele>
        <time>2009-07-04T08:46:05Z</time>
      </trkpt>
      <trkpt lat="45.70345" lon="6.62066">
        <ele>1047</ele>
        <time>2009-07-04T08:46:07Z</time>
      </trkpt>
      <trkpt lat="45.70362" lon="6.62048">
        <ele>1047</ele>
        <time>2009-07-04T08:46:10Z</time>
      </trkpt>
      <trkpt lat="45.7046" lon="6.62006">
        <ele>1056</ele>
        <time>2009-07-04T08:46:27Z</time>
      </trkpt>
      <trkpt lat="45.70516" lon="6.61989">
        <ele>1056</ele>
        <time>2009-07-04T08:46:36Z</time>
      </trkpt>
      <trkpt lat="45.7058" lon="6.61922">
        <ele>1050</ele>
        <time>2009-07-04T08:46:48Z</time>
      </trkpt>
      <trkpt lat="45.70589" lon="6.61907">
        <ele>1050</ele>
        <time>2009-07-04T08:46:51Z</time>
      </trkpt>
      <trkpt lat="45.706" lon="6.61862">
        <ele>1071</ele>
        <time>2009-07-04T08:46:56Z</time>
      </trkpt>
      <trkpt lat="45.70626" lon="6.61667">
        <ele>1024</ele>
        <time>2009-07-04T08:47:18Z</time>
      </trkpt>
      <trkpt lat="45.70623" lon="6.61557">
        <ele>1075</ele>
        <time>2009-07-04T08:47:30Z</time>
      </trkpt>
      <trkpt lat="45.70626" lon="6.6148">
        <ele>1031</ele>
        <time>2009-07-04T08:47:39Z</time>
      </trkpt>
      <trkpt lat="45.70631" lon="6.61452">
        <ele>1026</ele>
        <time>2009-07-04T08:47:42Z</time>
      </trkpt>
      <trkpt lat="45.70648" lon="6.6141">
        <ele>1026</ele>
        <time>2009-07-04T08:47:48Z</time>
      </trkpt>
      <trkpt lat="45.70693" lon="6.61328">
        <ele>1032</ele>
        <time>2009-07-04T08:47:59Z</time>
      </trkpt>
      <trkpt lat="45.70702" lon="6.61294">
        <ele>1032</ele>
        <time>2009-07-04T08:48:03Z</time>
      </trkpt>
      <trkpt lat="45.70693" lon="6.61231">
        <ele>1030</ele>
        <time>2009-07-04T08:48:11Z</time>
      </trkpt>
      <trkpt lat="45.70696" lon="6.61191">
        <ele>1033</ele>
        <time>2009-07-04T08:48:15Z</time>
      </trkpt>
      <trkpt lat="45.70689" lon="6.61167">
        <ele>1033</ele>
        <time>2009-07-04T08:48:18Z</time>
      </trkpt>
      <trkpt lat="45.70669" lon="6.61136">
        <ele>1033</ele>
        <time>2009-07-04T08:48:23Z</time>
      </trkpt>
      <trkpt lat="45.70665" lon="6.61121">
        <ele>1028</ele>
        <time>2009-07-04T08:48:25Z</time>
      </trkpt>
      <trkpt lat="45.70664" lon="6.61088">
        <ele>1028</ele>
        <time>2009-07-04T08:48:28Z</time>
      </trkpt>
      <trkpt lat="45.70686" lon="6.60982">
        <ele>1025</ele>
        <time>2009-07-04T08:48:41Z</time>
      </trkpt>
      <trkpt lat="45.70717" lon="6.60889">
        <ele>996</ele>
        <time>2009-07-04T08:48:52Z</time>
      </trkpt>
      <trkpt lat="45.70716" lon="6.60856">
        <ele>1004</ele>
        <time>2009-07-04T08:48:56Z</time>
      </trkpt>
      <trkpt lat="45.707" lon="6.60784">
        <ele>1063</ele>
        <time>2009-07-04T08:49:04Z</time>
      </trkpt>
      <trkpt lat="45.70687" lon="6.60702">
        <ele>1083</ele>
        <time>2009-07-04T08:49:14Z</time>
      </trkpt>
      <trkpt lat="45.70694" lon="6.6065">
        <ele>1083</ele>
        <time>2009-07-04T08:49:20Z</time>
      </trkpt>
      <trkpt lat="45.70715" lon="6.60592">
        <ele>966</ele>
        <time>2009-07-04T08:49:27Z</time>
      </trkpt>
      <trkpt lat="45.70717" lon="6.60579">
        <ele>966</ele>
        <time>2009-07-04T08:49:28Z</time>
      </trkpt>
      <trkpt lat="45.70712" lon="6.60552">
        <ele>966</ele>
        <time>2009-07-04T08:49:32Z</time>
      </trkpt>
      <trkpt lat="45.70715" lon="6.60537">
        <ele>971</ele>
        <time>2009-07-04T08:49:33Z</time>
      </trkpt>
      <trkpt lat="45.70738" lon="6.60504">
        <ele>971</ele>
        <time>2009-07-04T08:49:39Z</time>
      </trkpt>
      <trkpt lat="45.7074" lon="6.60472">
        <ele>971</ele>
        <time>2009-07-04T08:49:42Z</time>
      </trkpt>
      <trkpt lat="45.70721" lon="6.60326">
        <ele>946</ele>
        <time>2009-07-04T08:49:59Z</time>
      </trkpt>
      <trkpt lat="45.70681" lon="6.60249">
        <ele>975</ele>
        <time>2009-07-04T08:50:09Z</time>
      </trkpt>
      <trkpt lat="45.70647" lon="6.601">
        <ele>940</ele>
        <time>2009-07-04T08:50:27Z</time>
      </trkpt>
      <trkpt lat="45.70645" lon="6.6007">
        <ele>940</ele>
        <time>2009-07-04T08:50:30Z</time>
      </trkpt>
      <trkpt lat="45.70645" lon="6.6003">
        <ele>935</ele>
        <time>2009-07-04T08:50:35Z</time>
      </trkpt>
      <trkpt lat="45.70651" lon="6.59984">
        <ele>935</ele>
        <time>2009-07-04T08:50:40Z</time>
      </trkpt>
      <trkpt lat="45.70694" lon="6.59734">
        <ele>932</ele>
        <time>2009-07-04T08:51:09Z</time>
      </trkpt>
      <trkpt lat="45.70693" lon="6.59587">
        <ele>926</ele>
        <time>2009-07-04T08:51:25Z</time>
      </trkpt>
      <trkpt lat="45.70696" lon="6.59504">
        <ele>921</ele>
        <time>2009-07-04T08:51:35Z</time>
      </trkpt>
      <trkpt lat="45.70702" lon="6.59475">
        <ele>921</ele>
        <time>2009-07-04T08:51:38Z</time>
      </trkpt>
      <trkpt lat="45.70702" lon="6.59385">
        <ele>914</ele>
        <time>2009-07-04T08:51:48Z</time>
      </trkpt>
      <trkpt lat="45.70752" lon="6.59296">
        <ele>879</ele>
        <time>2009-07-04T08:52:01Z</time>
      </trkpt>
      <trkpt lat="45.70768" lon="6.5921">
        <ele>887</ele>
        <time>2009-07-04T08:52:11Z</time>
      </trkpt>
      <trkpt lat="45.70791" lon="6.5919">
        <ele>894</ele>
        <time>2009-07-04T08:52:15Z</time>
      </trkpt>
      <trkpt lat="45.70838" lon="6.59169">
        <ele>868</ele>
        <time>2009-07-04T08:52:23Z</time>
      </trkpt>
      <trkpt lat="45.70859" lon="6.59149">
        <ele>868</ele>
        <time>2009-07-04T08:52:27Z</time>
      </trkpt>
      <trkpt lat="45.70872" lon="6.5913">
        <ele>868</ele>
        <time>2009-07-04T08:52:30Z</time>
      </trkpt>
      <trkpt lat="45.70897" lon="6.59077">
        <ele>871</ele>
        <time>2009-07-04T08:52:37Z</time>
      </trkpt>
      <trkpt lat="45.70943" lon="6.59005">
        <ele>909</ele>
        <time>2009-07-04T08:52:48Z</time>
      </trkpt>
      <trkpt lat="45.71005" lon="6.58938">
        <ele>874</ele>
        <time>2009-07-04T08:53:00Z</time>
      </trkpt>
      <trkpt lat="45.71016" lon="6.58942">
        <ele>874</ele>
        <time>2009-07-04T08:53:02Z</time>
      </trkpt>
      <trkpt lat="45.71017" lon="6.58958">
        <ele>874</ele>
        <time>2009-07-04T08:53:04Z</time>
      </trkpt>
      <trkpt lat="45.71006" lon="6.58978">
        <ele>857</ele>
        <time>2009-07-04T08:53:07Z</time>
      </trkpt>
      <trkpt lat="45.7098" lon="6.59">
        <ele>857</ele>
        <time>2009-07-04T08:53:12Z</time>
      </trkpt>
      <trkpt lat="45.70978" lon="6.5901">
        <ele>857</ele>
        <time>2009-07-04T08:53:13Z</time>
      </trkpt>
      <trkpt lat="45.70983" lon="6.59017">
        <ele>857</ele>
        <time>2009-07-04T08:53:14Z</time>
      </trkpt>
      <trkpt lat="45.71005" lon="6.59012">
        <ele>857</ele>
        <time>2009-07-04T08:53:18Z</time>
      </trkpt>
      <trkpt lat="45.71054" lon="6.58983">
        <ele>860</ele>
        <time>2009-07-04T08:53:26Z</time>
      </trkpt>
      <trkpt lat="45.71067" lon="6.5897">
        <ele>860</ele>
        <time>2009-07-04T08:53:29Z</time>
      </trkpt>
      <trkpt lat="45.71082" lon="6.58943">
        <ele>854</ele>
        <time>2009-07-04T08:53:32Z</time>
      </trkpt>
      <trkpt lat="45.71092" lon="6.5892">
        <ele>854</ele>
        <time>2009-07-04T08:53:35Z</time>
      </trkpt>
      <trkpt lat="45.71134" lon="6.58737">
        <ele>837</ele>
        <time>2009-07-04T08:53:57Z</time>
      </trkpt>
      <trkpt lat="45.7116" lon="6.58664">
        <ele>839</ele>
        <time>2009-07-04T08:54:06Z</time>
      </trkpt>
      <trkpt lat="45.71164" lon="6.58642">
        <ele>839</ele>
        <time>2009-07-04T08:54:09Z</time>
      </trkpt>
      <trkpt lat="45.71173" lon="6.58462">
        <ele>1017</ele>
        <time>2009-07-04T08:54:29Z</time>
      </trkpt>
      <trkpt lat="45.71178" lon="6.58434">
        <ele>964</ele>
        <time>2009-07-04T08:54:32Z</time>
      </trkpt>
      <trkpt lat="45.71237" lon="6.58335">
        <ele>846</ele>
        <time>2009-07-04T08:54:47Z</time>
      </trkpt>
      <trkpt lat="45.71275" lon="6.5824">
        <ele>822</ele>
        <time>2009-07-04T08:54:59Z</time>
      </trkpt>
      <trkpt lat="45.71285" lon="6.58147">
        <ele>837</ele>
        <time>2009-07-04T08:55:09Z</time>
      </trkpt>
      <trkpt lat="45.71301" lon="6.58069">
        <ele>813</ele>
        <time>2009-07-04T08:55:19Z</time>
      </trkpt>
      <trkpt lat="45.71301" lon="6.58014">
        <ele>797</ele>
        <time>2009-07-04T08:55:25Z</time>
      </trkpt>
      <trkpt lat="45.71306" lon="6.57984">
        <ele>797</ele>
        <time>2009-07-04T08:55:28Z</time>
      </trkpt>
      <trkpt lat="45.71329" lon="6.5794">
        <ele>800</ele>
        <time>2009-07-04T08:55:34Z</time>
      </trkpt>
      <trkpt lat="45.71367" lon="6.57892">
        <ele>800</ele>
        <time>2009-07-04T08:55:42Z</time>
      </trkpt>
      <trkpt lat="45.71377" lon="6.57869">
        <ele>784</ele>
        <time>2009-07-04T08:55:45Z</time>
      </trkpt>
      <trkpt lat="45.71387" lon="6.57844">
        <ele>784</ele>
        <time>2009-07-04T08:55:49Z</time>
      </trkpt>
      <trkpt lat="45.71394" lon="6.57811">
        <ele>784</ele>
        <time>2009-07-04T08:55:53Z</time>
      </trkpt>
      <trkpt lat="45.71421" lon="6.57812">
        <ele>784</ele>
        <time>2009-07-04T08:55:57Z</time>
      </trkpt>
      <trkpt lat="45.71432" lon="6.57803">
        <ele>784</ele>
        <time>2009-07-04T08:55:59Z</time>
      </trkpt>
      <trkpt lat="45.71451" lon="6.57746">
        <ele>775</ele>
        <time>2009-07-04T08:56:06Z</time>
      </trkpt>
      <trkpt lat="45.71467" lon="6.57714">
        <ele>790</ele>
        <time>2009-07-04T08:56:10Z</time>
      </trkpt>
      <trkpt lat="45.71482" lon="6.57711">
        <ele>790</ele>
        <time>2009-07-04T08:56:13Z</time>
      </trkpt>
      <trkpt lat="45.71516" lon="6.57731">
        <ele>790</ele>
        <time>2009-07-04T08:56:19Z</time>
      </trkpt>
      <trkpt lat="45.71534" lon="6.57733">
        <ele>790</ele>
        <time>2009-07-04T08:56:22Z</time>
      </trkpt>
      <trkpt lat="45.71549" lon="6.57731">
        <ele>789</ele>
        <time>2009-07-04T08:56:24Z</time>
      </trkpt>
      <trkpt lat="45.71564" lon="6.5772">
        <ele>789</ele>
        <time>2009-07-04T08:56:27Z</time>
      </trkpt>
      <trkpt lat="45.71593" lon="6.57712">
        <ele>789</ele>
        <time>2009-07-04T08:56:31Z</time>
      </trkpt>
      <trkpt lat="45.71623" lon="6.57709">
        <ele>789</ele>
        <time>2009-07-04T08:56:36Z</time>
      </trkpt>
      <trkpt lat="45.71643" lon="6.57718">
        <ele>790</ele>
        <time>2009-07-04T08:56:40Z</time>
      </trkpt>
      <trkpt lat="45.7169" lon="6.57782">
        <ele>790</ele>
        <time>2009-07-04T08:56:50Z</time>
      </trkpt>
      <trkpt lat="45.7169" lon="6.57798">
        <ele>823</ele>
        <time>2009-07-04T08:56:52Z</time>
      </trkpt>
      <trkpt lat="45.71638" lon="6.57776">
        <ele>790</ele>
        <time>2009-07-04T08:57:00Z</time>
      </trkpt>
      <trkpt lat="45.71617" lon="6.57777">
        <ele>789</ele>
        <time>2009-07-04T08:57:04Z</time>
      </trkpt>
      <trkpt lat="45.71606" lon="6.57787">
        <ele>789</ele>
        <time>2009-07-04T08:57:06Z</time>
      </trkpt>
      <trkpt lat="45.71578" lon="6.5784">
        <ele>815</ele>
        <time>2009-07-04T08:57:13Z</time>
      </trkpt>
      <trkpt lat="45.71562" lon="6.57856">
        <ele>815</ele>
        <time>2009-07-04T08:57:16Z</time>
      </trkpt>
      <trkpt lat="45.71543" lon="6.57866">
        <ele>815</ele>
        <time>2009-07-04T08:57:20Z</time>
      </trkpt>
      <trkpt lat="45.71492" lon="6.57875">
        <ele>826</ele>
        <time>2009-07-04T08:57:28Z</time>
      </trkpt>
      <trkpt lat="45.71486" lon="6.57885">
        <ele>826</ele>
        <time>2009-07-04T08:57:29Z</time>
      </trkpt>
      <trkpt lat="45.71487" lon="6.57896">
        <ele>826</ele>
        <time>2009-07-04T08:57:31Z</time>
      </trkpt>
      <trkpt lat="45.71498" lon="6.57906">
        <ele>826</ele>
        <time>2009-07-04T08:57:33Z</time>
      </trkpt>
      <trkpt lat="45.71519" lon="6.57913">
        <ele>826</ele>
        <time>2009-07-04T08:57:36Z</time>
      </trkpt>
      <trkpt lat="45.71571" lon="6.57916">
        <ele>828</ele>
        <time>2009-07-04T08:57:44Z</time>
      </trkpt>
      <trkpt lat="45.71595" lon="6.57908">
        <ele>828</ele>
        <time>2009-07-04T08:57:48Z</time>
      </trkpt>
      <trkpt lat="45.71623" lon="6.57869">
        <ele>815</ele>
        <time>2009-07-04T08:57:55Z</time>
      </trkpt>
      <trkpt lat="45.71639" lon="6.57863">
        <ele>823</ele>
        <time>2009-07-04T08:57:57Z</time>
      </trkpt>
      <trkpt lat="45.71651" lon="6.57866">
        <ele>823</ele>
        <time>2009-07-04T08:57:59Z</time>
      </trkpt>
      <trkpt lat="45.71666" lon="6.57875">
        <ele>840</ele>
        <time>2009-07-04T08:58:02Z</time>
      </trkpt>
      <trkpt lat="45.71698" lon="6.57913">
        <ele>840</ele>
        <time>2009-07-04T08:58:09Z</time>
      </trkpt>
      <trkpt lat="45.71717" lon="6.57941">
        <ele>833</ele>
        <time>2009-07-04T08:58:13Z</time>
      </trkpt>
      <trkpt lat="45.71751" lon="6.58007">
        <ele>844</ele>
        <time>2009-07-04T08:58:22Z</time>
      </trkpt>
      <trkpt lat="45.71774" lon="6.58028">
        <ele>844</ele>
        <time>2009-07-04T08:58:26Z</time>
      </trkpt>
      <trkpt lat="45.71853" lon="6.58016">
        <ele>851</ele>
        <time>2009-07-04T08:58:39Z</time>
      </trkpt>
      <trkpt lat="45.71912" lon="6.58014">
        <ele>855</ele>
        <time>2009-07-04T08:58:49Z</time>
      </trkpt>
      <trkpt lat="45.71965" lon="6.58021">
        <ele>863</ele>
        <time>2009-07-04T08:58:57Z</time>
      </trkpt>
      <trkpt lat="45.71992" lon="6.58019">
        <ele>863</ele>
        <time>2009-07-04T08:59:01Z</time>
      </trkpt>
      <trkpt lat="45.72027" lon="6.58014">
        <ele>863</ele>
        <time>2009-07-04T08:59:07Z</time>
      </trkpt>
      <trkpt lat="45.72053" lon="6.57996">
        <ele>876</ele>
        <time>2009-07-04T08:59:12Z</time>
      </trkpt>
      <trkpt lat="45.72079" lon="6.5799">
        <ele>876</ele>
        <time>2009-07-04T08:59:16Z</time>
      </trkpt>
      <trkpt lat="45.72141" lon="6.57987">
        <ele>890</ele>
        <time>2009-07-04T08:59:26Z</time>
      </trkpt>
      <trkpt lat="45.72181" lon="6.57942">
        <ele>879</ele>
        <time>2009-07-04T08:59:34Z</time>
      </trkpt>
      <trkpt lat="45.72227" lon="6.57907">
        <ele>895</ele>
        <time>2009-07-04T08:59:42Z</time>
      </trkpt>
      <trkpt lat="45.72243" lon="6.57899">
        <ele>895</ele>
        <time>2009-07-04T08:59:45Z</time>
      </trkpt>
      <trkpt lat="45.72297" lon="6.57894">
        <ele>907</ele>
        <time>2009-07-04T08:59:54Z</time>
      </trkpt>
      <trkpt lat="45.72333" lon="6.57869">
        <ele>891</ele>
        <time>2009-07-04T09:00:00Z</time>
      </trkpt>
      <trkpt lat="45.72403" lon="6.57848">
        <ele>898</ele>
        <time>2009-07-04T09:00:12Z</time>
      </trkpt>
      <trkpt lat="45.72454" lon="6.5787">
        <ele>898</ele>
        <time>2009-07-04T09:00:20Z</time>
      </trkpt>
      <trkpt lat="45.72473" lon="6.57893">
        <ele>922</ele>
        <time>2009-07-04T09:00:24Z</time>
      </trkpt>
      <trkpt lat="45.72485" lon="6.57929">
        <ele>922</ele>
        <time>2009-07-04T09:00:29Z</time>
      </trkpt>
      <trkpt lat="45.72499" lon="6.5794">
        <ele>922</ele>
        <time>2009-07-04T09:00:31Z</time>
      </trkpt>
      <trkpt lat="45.72509" lon="6.5794">
        <ele>922</ele>
        <time>2009-07-04T09:00:33Z</time>
      </trkpt>
      <trkpt lat="45.72579" lon="6.57897">
        <ele>938</ele>
        <time>2009-07-04T09:00:45Z</time>
      </trkpt>
      <trkpt lat="45.72586" lon="6.57882">
        <ele>938</ele>
        <time>2009-07-04T09:00:47Z</time>
      </trkpt>
      <trkpt lat="45.72589" lon="6.57803">
        <ele>933</ele>
        <time>2009-07-04T09:00:56Z</time>
      </trkpt>
      <trkpt lat="45.72618" lon="6.57698">
        <ele>935</ele>
        <time>2009-07-04T09:01:08Z</time>
      </trkpt>
      <trkpt lat="45.72632" lon="6.57626">
        <ele>958</ele>
        <time>2009-07-04T09:01:17Z</time>
      </trkpt>
      <trkpt lat="45.72618" lon="6.57475">
        <ele>938</ele>
        <time>2009-07-04T09:01:34Z</time>
      </trkpt>
      <trkpt lat="45.72621" lon="6.57424">
        <ele>935</ele>
        <time>2009-07-04T09:01:39Z</time>
      </trkpt>
      <trkpt lat="45.72629" lon="6.57406">
        <ele>947</ele>
        <time>2009-07-04T09:01:42Z</time>
      </trkpt>
      <trkpt lat="45.72691" lon="6.57372">
        <ele>920</ele>
        <time>2009-07-04T09:01:52Z</time>
      </trkpt>
      <trkpt lat="45.72712" lon="6.57367">
        <ele>929</ele>
        <time>2009-07-04T09:01:56Z</time>
      </trkpt>
      <trkpt lat="45.72743" lon="6.57374">
        <ele>929</ele>
        <time>2009-07-04T09:02:01Z</time>
      </trkpt>
      <trkpt lat="45.72767" lon="6.57388">
        <ele>955</ele>
        <time>2009-07-04T09:02:05Z</time>
      </trkpt>
      <trkpt lat="45.72782" lon="6.57391">
        <ele>955</ele>
        <time>2009-07-04T09:02:07Z</time>
      </trkpt>
      <trkpt lat="45.72795" lon="6.57388">
        <ele>960</ele>
        <time>2009-07-04T09:02:10Z</time>
      </trkpt>
      <trkpt lat="45.72842" lon="6.57361">
        <ele>936</ele>
        <time>2009-07-04T09:02:18Z</time>
      </trkpt>
      <trkpt lat="45.72866" lon="6.57357">
        <ele>936</ele>
        <time>2009-07-04T09:02:22Z</time>
      </trkpt>
      <trkpt lat="45.72898" lon="6.57359">
        <ele>935</ele>
        <time>2009-07-04T09:02:27Z</time>
      </trkpt>
      <trkpt lat="45.72958" lon="6.57375">
        <ele>961</ele>
        <time>2009-07-04T09:02:36Z</time>
      </trkpt>
      <trkpt lat="45.73166" lon="6.5729">
        <ele>948</ele>
        <time>2009-07-04T09:03:11Z</time>
      </trkpt>
      <trkpt lat="45.73192" lon="6.57288">
        <ele>948</ele>
        <time>2009-07-04T09:03:15Z</time>
      </trkpt>
      <trkpt lat="45.73297" lon="6.57319">
        <ele>959</ele>
        <time>2009-07-04T09:03:32Z</time>
      </trkpt>
      <trkpt lat="45.73309" lon="6.57325">
        <ele>959</ele>
        <time>2009-07-04T09:03:34Z</time>
      </trkpt>
      <trkpt lat="45.73333" lon="6.5735">
        <ele>959</ele>
        <time>2009-07-04T09:03:39Z</time>
      </trkpt>
      <trkpt lat="45.73392" lon="6.57425">
        <ele>954</ele>
        <time>2009-07-04T09:03:52Z</time>
      </trkpt>
      <trkpt lat="45.73414" lon="6.5746">
        <ele>974</ele>
        <time>2009-07-04T09:03:57Z</time>
      </trkpt>
      <trkpt lat="45.7346" lon="6.57509">
        <ele>947</ele>
        <time>2009-07-04T09:04:06Z</time>
      </trkpt>
      <trkpt lat="45.73509" lon="6.57598">
        <ele>969</ele>
        <time>2009-07-04T09:04:19Z</time>
      </trkpt>
      <trkpt lat="45.73579" lon="6.5769">
        <ele>976</ele>
        <time>2009-07-04T09:04:34Z</time>
      </trkpt>
      <trkpt lat="45.7361" lon="6.57704">
        <ele>976</ele>
        <time>2009-07-04T09:04:39Z</time>
      </trkpt>
      <trkpt lat="45.73654" lon="6.57698">
        <ele>964</ele>
        <time>2009-07-04T09:04:46Z</time>
      </trkpt>
      <trkpt lat="45.73668" lon="6.57702">
        <ele>964</ele>
        <time>2009-07-04T09:04:49Z</time>
      </trkpt>
      <trkpt lat="45.73764" lon="6.57762">
        <ele>988</ele>
        <time>2009-07-04T09:05:06Z</time>
      </trkpt>
      <trkpt lat="45.73818" lon="6.57808">
        <ele>992</ele>
        <time>2009-07-04T09:05:16Z</time>
      </trkpt>
      <trkpt lat="45.73855" lon="6.57872">
        <ele>992</ele>
        <time>2009-07-04T09:05:25Z</time>
      </trkpt>
      <trkpt lat="45.73889" lon="6.5791">
        <ele>984</ele>
        <time>2009-07-04T09:05:32Z</time>
      </trkpt>
      <trkpt lat="45.739" lon="6.57952">
        <ele>984</ele>
        <time>2009-07-04T09:05:37Z</time>
      </trkpt>
      <trkpt lat="45.73898" lon="6.57984">
        <ele>1007</ele>
        <time>2009-07-04T09:05:40Z</time>
      </trkpt>
      <trkpt lat="45.73908" lon="6.58026">
        <ele>1007</ele>
        <time>2009-07-04T09:05:45Z</time>
      </trkpt>
      <trkpt lat="45.73935" lon="6.58052">
        <ele>1023</ele>
        <time>2009-07-04T09:05:51Z</time>
      </trkpt>
      <trkpt lat="45.7396" lon="6.58065">
        <ele>998</ele>
        <time>2009-07-04T09:05:55Z</time>
      </trkpt>
      <trkpt lat="45.7398" lon="6.58088">
        <ele>998</ele>
        <time>2009-07-04T09:05:59Z</time>
      </trkpt>
      <trkpt lat="45.73998" lon="6.58126">
        <ele>1013</ele>
        <time>2009-07-04T09:06:04Z</time>
      </trkpt>
      <trkpt lat="45.74016" lon="6.58197">
        <ele>1013</ele>
        <time>2009-07-04T09:06:12Z</time>
      </trkpt>
      <trkpt lat="45.74043" lon="6.58249">
        <ele>1008</ele>
        <time>2009-07-04T09:06:20Z</time>
      </trkpt>
      <trkpt lat="45.74052" lon="6.58259">
        <ele>1008</ele>
        <time>2009-07-04T09:06:22Z</time>
      </trkpt>
      <trkpt lat="45.74181" lon="6.58291">
        <ele>989</ele>
        <time>2009-07-04T09:06:43Z</time>
      </trkpt>
      <trkpt lat="45.74271" lon="6.58363">
        <ele>1013</ele>
        <time>2009-07-04T09:06:59Z</time>
      </trkpt>
      <trkpt lat="45.7428" lon="6.58379">
        <ele>1035</ele>
        <time>2009-07-04T09:07:01Z</time>
      </trkpt>
      <trkpt lat="45.74284" lon="6.58402">
        <ele>1035</ele>
        <time>2009-07-04T09:07:04Z</time>
      </trkpt>
      <trkpt lat="45.74283" lon="6.58437">
        <ele>1035</ele>
        <time>2009-07-04T09:07:08Z</time>
      </trkpt>
      <trkpt lat="45.74269" lon="6.58506">
        <ele>1054</ele>
        <time>2009-07-04T09:07:16Z</time>
      </trkpt>
      <trkpt lat="45.74273" lon="6.58529">
        <ele>1054</ele>
        <time>2009-07-04T09:07:19Z</time>
      </trkpt>
      <trkpt lat="45.74288" lon="6.58532">
        <ele>1054</ele>
        <time>2009-07-04T09:07:21Z</time>
      </trkpt>
      <trkpt lat="45.74322" lon="6.58492">
        <ele>1035</ele>
        <time>2009-07-04T09:07:28Z</time>
      </trkpt>
      <trkpt lat="45.74351" lon="6.58482">
        <ele>1035</ele>
        <time>2009-07-04T09:07:33Z</time>
      </trkpt>
      <trkpt lat="45.74406" lon="6.58487">
        <ele>1024</ele>
        <time>2009-07-04T09:07:42Z</time>
      </trkpt>
      <trkpt lat="45.74421" lon="6.58501">
        <ele>1024</ele>
        <time>2009-07-04T09:07:44Z</time>
      </trkpt>
      <trkpt lat="45.74443" lon="6.58573">
        <ele>1040</ele>
        <time>2009-07-04T09:07:53Z</time>
      </trkpt>
      <trkpt lat="45.74486" lon="6.58587">
        <ele>1019</ele>
        <time>2009-07-04T09:08:00Z</time>
      </trkpt>
      <trkpt lat="45.74498" lon="6.58607">
        <ele>1019</ele>
        <time>2009-07-04T09:08:03Z</time>
      </trkpt>
      <trkpt lat="45.74503" lon="6.58639">
        <ele>1030</ele>
        <time>2009-07-04T09:08:07Z</time>
      </trkpt>
      <trkpt lat="45.74503" lon="6.58679">
        <ele>1030</ele>
        <time>2009-07-04T09:08:11Z</time>
      </trkpt>
      <trkpt lat="45.745" lon="6.5871">
        <ele>1038</ele>
        <time>2009-07-04T09:08:15Z</time>
      </trkpt>
      <trkpt lat="45.74482" lon="6.58779">
        <ele>1038</ele>
        <time>2009-07-04T09:08:23Z</time>
      </trkpt>
      <trkpt lat="45.74487" lon="6.588">
        <ele>1056</ele>
        <time>2009-07-04T09:08:26Z</time>
      </trkpt>
      <trkpt lat="45.74501" lon="6.58805">
        <ele>1056</ele>
        <time>2009-07-04T09:08:28Z</time>
      </trkpt>
      <trkpt lat="45.74548" lon="6.58782">
        <ele>1023</ele>
        <time>2009-07-04T09:08:36Z</time>
      </trkpt>
      <trkpt lat="45.74565" lon="6.58784">
        <ele>1023</ele>
        <time>2009-07-04T09:08:39Z</time>
      </trkpt>
      <trkpt lat="45.74623" lon="6.58832">
        <ele>1037</ele>
        <time>2009-07-04T09:08:49Z</time>
      </trkpt>
      <trkpt lat="45.74692" lon="6.58875">
        <ele>1031</ele>
        <time>2009-07-04T09:09:01Z</time>
      </trkpt>
      <trkpt lat="45.74702" lon="6.58899">
        <ele>1044</ele>
        <time>2009-07-04T09:09:05Z</time>
      </trkpt>
      <trkpt lat="45.74709" lon="6.58984">
        <ele>1031</ele>
        <time>2009-07-04T09:09:14Z</time>
      </trkpt>
      <trkpt lat="45.74733" lon="6.59011">
        <ele>1031</ele>
        <time>2009-07-04T09:09:19Z</time>
      </trkpt>
      <trkpt lat="45.73325" lon="6.56147">
        <ele>1147</ele>
        <time>2009-07-04T09:15:50Z</time>
      </trkpt>
      <trkpt lat="45.73294" lon="6.56111">
        <ele>1168</ele>
        <time>2009-07-04T09:15:57Z</time>
      </trkpt>
      <trkpt lat="45.7328" lon="6.56088">
        <ele>1118</ele>
        <time>2009-07-04T09:16:00Z</time>
      </trkpt>
      <trkpt lat="45.73273" lon="6.56057">
        <ele>1118</ele>
        <time>2009-07-04T09:16:04Z</time>
      </trkpt>
      <trkpt lat="45.73274" lon="6.56041">
        <ele>1108</ele>
        <time>2009-07-04T09:16:06Z</time>
      </trkpt>
      <trkpt lat="45.73278" lon="6.56019">
        <ele>1108</ele>
        <time>2009-07-04T09:16:08Z</time>
      </trkpt>
      <trkpt lat="45.73309" lon="6.55948">
        <ele>1147</ele>
        <time>2009-07-04T09:16:18Z</time>
      </trkpt>
      <trkpt lat="45.73312" lon="6.5581">
        <ele>1131</ele>
        <time>2009-07-04T09:16:33Z</time>
      </trkpt>
      <trkpt lat="45.73316" lon="6.5579">
        <ele>1115</ele>
        <time>2009-07-04T09:16:35Z</time>
      </trkpt>
      <trkpt lat="45.73378" lon="6.5566">
        <ele>1130</ele>
        <time>2009-07-04T09:16:53Z</time>
      </trkpt>
      <trkpt lat="45.73391" lon="6.55628">
        <ele>1130</ele>
        <time>2009-07-04T09:16:57Z</time>
      </trkpt>
      <trkpt lat="45.73396" lon="6.55604">
        <ele>1115</ele>
        <time>2009-07-04T09:17:00Z</time>
      </trkpt>
      <trkpt lat="45.73408" lon="6.5527">
        <ele>1083</ele>
        <time>2009-07-04T09:17:37Z</time>
      </trkpt>
      <trkpt lat="45.73419" lon="6.55222">
        <ele>1083</ele>
        <time>2009-07-04T09:17:43Z</time>
      </trkpt>
      <trkpt lat="45.7344" lon="6.55167">
        <ele>1075</ele>
        <time>2009-07-04T09:17:50Z</time>
      </trkpt>
      <trkpt lat="45.73442" lon="6.55147">
        <ele>1075</ele>
        <time>2009-07-04T09:17:52Z</time>
      </trkpt>
      <trkpt lat="45.73436" lon="6.55126">
        <ele>1075</ele>
        <time>2009-07-04T09:17:55Z</time>
      </trkpt>
      <trkpt lat="45.73362" lon="6.55004">
        <ele>1072</ele>
        <time>2009-07-04T09:18:13Z</time>
      </trkpt>
      <trkpt lat="45.73356" lon="6.54984">
        <ele>1072</ele>
        <time>2009-07-04T09:18:15Z</time>
      </trkpt>
      <trkpt lat="45.73355" lon="6.54941">
        <ele>1065</ele>
        <time>2009-07-04T09:18:20Z</time>
      </trkpt>
      <trkpt lat="45.7337" lon="6.54845">
        <ele>1056</ele>
        <time>2009-07-04T09:18:31Z</time>
      </trkpt>
      <trkpt lat="45.73371" lon="6.54798">
        <ele>1056</ele>
        <time>2009-07-04T09:18:36Z</time>
      </trkpt>
      <trkpt lat="45.73368" lon="6.54777">
        <ele>1058</ele>
        <time>2009-07-04T09:18:39Z</time>
      </trkpt>
      <trkpt lat="45.73255" lon="6.54425">
        <ele>1061</ele>
        <time>2009-07-04T09:19:22Z</time>
      </trkpt>
      <trkpt lat="45.73207" lon="6.54307">
        <ele>1027</ele>
        <time>2009-07-04T09:19:37Z</time>
      </trkpt>
      <trkpt lat="45.73194" lon="6.54264">
        <ele>1032</ele>
        <time>2009-07-04T09:19:42Z</time>
      </trkpt>
      <trkpt lat="45.73192" lon="6.54246">
        <ele>1032</ele>
        <time>2009-07-04T09:19:44Z</time>
      </trkpt>
      <trkpt lat="45.732" lon="6.54182">
        <ele>1020</ele>
        <time>2009-07-04T09:19:52Z</time>
      </trkpt>
      <trkpt lat="45.73234" lon="6.54088">
        <ele>1051</ele>
        <time>2009-07-04T09:20:04Z</time>
      </trkpt>
      <trkpt lat="45.73232" lon="6.54063">
        <ele>1051</ele>
        <time>2009-07-04T09:20:06Z</time>
      </trkpt>
      <trkpt lat="45.73223" lon="6.54061">
        <ele>1051</ele>
        <time>2009-07-04T09:20:08Z</time>
      </trkpt>
      <trkpt lat="45.73215" lon="6.54071">
        <ele>1051</ele>
        <time>2009-07-04T09:20:10Z</time>
      </trkpt>
      <trkpt lat="45.73201" lon="6.54104">
        <ele>1001</ele>
        <time>2009-07-04T09:20:14Z</time>
      </trkpt>
      <trkpt lat="45.73185" lon="6.54155">
        <ele>1020</ele>
        <time>2009-07-04T09:20:20Z</time>
      </trkpt>
      <trkpt lat="45.73154" lon="6.54259">
        <ele>1032</ele>
        <time>2009-07-04T09:20:33Z</time>
      </trkpt>
      <trkpt lat="45.73151" lon="6.54294">
        <ele>1027</ele>
        <time>2009-07-04T09:20:37Z</time>
      </trkpt>
      <trkpt lat="45.73157" lon="6.5434">
        <ele>1027</ele>
        <time>2009-07-04T09:20:42Z</time>
      </trkpt>
      <trkpt lat="45.73186" lon="6.5443">
        <ele>1009</ele>
        <time>2009-07-04T09:20:53Z</time>
      </trkpt>
      <trkpt lat="45.73193" lon="6.54471">
        <ele>1000</ele>
        <time>2009-07-04T09:20:58Z</time>
      </trkpt>
      <trkpt lat="45.73188" lon="6.54614">
        <ele>997</ele>
        <time>2009-07-04T09:21:14Z</time>
      </trkpt>
      <trkpt lat="45.732" lon="6.54735">
        <ele>982</ele>
        <time>2009-07-04T09:21:27Z</time>
      </trkpt>
      <trkpt lat="45.73222" lon="6.54844">
        <ele>1010</ele>
        <time>2009-07-04T09:21:40Z</time>
      </trkpt>
      <trkpt lat="45.73222" lon="6.54893">
        <ele>1012</ele>
        <time>2009-07-04T09:21:46Z</time>
      </trkpt>
      <trkpt lat="45.73211" lon="6.5502">
        <ele>1014</ele>
        <time>2009-07-04T09:22:00Z</time>
      </trkpt>
      <trkpt lat="45.73227" lon="6.55122">
        <ele>996</ele>
        <time>2009-07-04T09:22:12Z</time>
      </trkpt>
      <trkpt lat="45.73228" lon="6.55153">
        <ele>982</ele>
        <time>2009-07-04T09:22:15Z</time>
      </trkpt>
      <trkpt lat="45.73226" lon="6.55168">
        <ele>982</ele>
        <time>2009-07-04T09:22:17Z</time>
      </trkpt>
      <trkpt lat="45.732" lon="6.55219">
        <ele>955</ele>
        <time>2009-07-04T09:22:24Z</time>
      </trkpt>
      <trkpt lat="45.73108" lon="6.55337">
        <ele>941</ele>
        <time>2009-07-04T09:22:44Z</time>
      </trkpt>
      <trkpt lat="45.73062" lon="6.55431">
        <ele>963</ele>
        <time>2009-07-04T09:22:56Z</time>
      </trkpt>
      <trkpt lat="45.73052" lon="6.5547">
        <ele>973</ele>
        <time>2009-07-04T09:23:01Z</time>
      </trkpt>
      <trkpt lat="45.73047" lon="6.555">
        <ele>973</ele>
        <time>2009-07-04T09:23:04Z</time>
      </trkpt>
      <trkpt lat="45.73039" lon="6.55746">
        <ele>921</ele>
        <time>2009-07-04T09:23:32Z</time>
      </trkpt>
      <trkpt lat="45.72996" lon="6.55984">
        <ele>935</ele>
        <time>2009-07-04T09:23:59Z</time>
      </trkpt>
      <trkpt lat="45.72989" lon="6.5605">
        <ele>938</ele>
        <time>2009-07-04T09:24:07Z</time>
      </trkpt>
      <trkpt lat="45.72981" lon="6.56203">
        <ele>946</ele>
        <time>2009-07-04T09:24:24Z</time>
      </trkpt>
      <trkpt lat="45.72977" lon="6.56211">
        <ele>941</ele>
        <time>2009-07-04T09:24:25Z</time>
      </trkpt>
      <trkpt lat="45.72965" lon="6.56219">
        <ele>941</ele>
        <time>2009-07-04T09:24:27Z</time>
      </trkpt>
      <trkpt lat="45.72958" lon="6.56211">
        <ele>904</ele>
        <time>2009-07-04T09:24:29Z</time>
      </trkpt>
      <trkpt lat="45.72958" lon="6.56147">
        <ele>895</ele>
        <time>2009-07-04T09:24:36Z</time>
      </trkpt>
      <trkpt lat="45.72937" lon="6.55753">
        <ele>884</ele>
        <time>2009-07-04T09:25:20Z</time>
      </trkpt>
      <trkpt lat="45.72923" lon="6.5563">
        <ele>874</ele>
        <time>2009-07-04T09:25:34Z</time>
      </trkpt>
      <trkpt lat="45.72932" lon="6.55529">
        <ele>858</ele>
        <time>2009-07-04T09:25:45Z</time>
      </trkpt>
      <trkpt lat="45.72895" lon="6.55313">
        <ele>870</ele>
        <time>2009-07-04T09:26:10Z</time>
      </trkpt>
      <trkpt lat="45.72893" lon="6.55284">
        <ele>857</ele>
        <time>2009-07-04T09:26:13Z</time>
      </trkpt>
      <trkpt lat="45.72901" lon="6.55122">
        <ele>835</ele>
        <time>2009-07-04T09:26:32Z</time>
      </trkpt>
      <trkpt lat="45.72891" lon="6.55066">
        <ele>835</ele>
        <time>2009-07-04T09:26:38Z</time>
      </trkpt>
      <trkpt lat="45.72891" lon="6.55034">
        <ele>830</ele>
        <time>2009-07-04T09:26:42Z</time>
      </trkpt>
      <trkpt lat="45.72917" lon="6.55008">
        <ele>830</ele>
        <time>2009-07-04T09:26:47Z</time>
      </trkpt>
      <trkpt lat="45.72921" lon="6.54996">
        <ele>830</ele>
        <time>2009-07-04T09:26:48Z</time>
      </trkpt>
      <trkpt lat="45.72915" lon="6.54986">
        <ele>830</ele>
        <time>2009-07-04T09:26:50Z</time>
      </trkpt>
      <trkpt lat="45.72902" lon="6.54987">
        <ele>830</ele>
        <time>2009-07-04T09:26:52Z</time>
      </trkpt>
      <trkpt lat="45.72872" lon="6.55023">
        <ele>796</ele>
        <time>2009-07-04T09:26:58Z</time>
      </trkpt>
      <trkpt lat="45.7287" lon="6.55031">
        <ele>796</ele>
        <time>2009-07-04T09:26:59Z</time>
      </trkpt>
      <trkpt lat="45.72863" lon="6.55184">
        <ele>797</ele>
        <time>2009-07-04T09:27:16Z</time>
      </trkpt>
      <trkpt lat="45.72829" lon="6.55411">
        <ele>807</ele>
        <time>2009-07-04T09:27:42Z</time>
      </trkpt>
      <trkpt lat="45.72773" lon="6.55522">
        <ele>780</ele>
        <time>2009-07-04T09:27:57Z</time>
      </trkpt>
      <trkpt lat="45.7275" lon="6.55577">
        <ele>803</ele>
        <time>2009-07-04T09:28:05Z</time>
      </trkpt>
      <trkpt lat="45.72738" lon="6.55591">
        <ele>803</ele>
        <time>2009-07-04T09:28:07Z</time>
      </trkpt>
      <trkpt lat="45.72729" lon="6.5559">
        <ele>803</ele>
        <time>2009-07-04T09:28:08Z</time>
      </trkpt>
      <trkpt lat="45.72725" lon="6.55583">
        <ele>803</ele>
        <time>2009-07-04T09:28:10Z</time>
      </trkpt>
      <trkpt lat="45.72726" lon="6.55563">
        <ele>803</ele>
        <time>2009-07-04T09:28:12Z</time>
      </trkpt>
      <trkpt lat="45.72747" lon="6.55527">
        <ele>780</ele>
        <time>2009-07-04T09:28:17Z</time>
      </trkpt>
      <trkpt lat="45.7276" lon="6.55466">
        <ele>780</ele>
        <time>2009-07-04T09:28:24Z</time>
      </trkpt>
      <trkpt lat="45.72774" lon="6.55304">
        <ele>764</ele>
        <time>2009-07-04T09:28:42Z</time>
      </trkpt>
      <trkpt lat="45.72786" lon="6.55227">
        <ele>759</ele>
        <time>2009-07-04T09:28:51Z</time>
      </trkpt>
      <trkpt lat="45.72797" lon="6.55109">
        <ele>795</ele>
        <time>2009-07-04T09:29:04Z</time>
      </trkpt>
      <trkpt lat="45.7279" lon="6.551">
        <ele>745</ele>
        <time>2009-07-04T09:29:06Z</time>
      </trkpt>
      <trkpt lat="45.72784" lon="6.55101">
        <ele>745</ele>
        <time>2009-07-04T09:29:07Z</time>
      </trkpt>
      <trkpt lat="45.72775" lon="6.55115">
        <ele>745</ele>
        <time>2009-07-04T09:29:09Z</time>
      </trkpt>
      <trkpt lat="45.7277" lon="6.55181">
        <ele>752</ele>
        <time>2009-07-04T09:29:17Z</time>
      </trkpt>
      <trkpt lat="45.72761" lon="6.55226">
        <ele>759</ele>
        <time>2009-07-04T09:29:22Z</time>
      </trkpt>
      <trkpt lat="45.72716" lon="6.55389">
        <ele>769</ele>
        <time>2009-07-04T09:29:41Z</time>
      </trkpt>
      <trkpt lat="45.72708" lon="6.55398">
        <ele>733</ele>
        <time>2009-07-04T09:29:43Z</time>
      </trkpt>
      <trkpt lat="45.72702" lon="6.55397">
        <ele>733</ele>
        <time>2009-07-04T09:29:44Z</time>
      </trkpt>
      <trkpt lat="45.72698" lon="6.55389">
        <ele>733</ele>
        <time>2009-07-04T09:29:45Z</time>
      </trkpt>
      <trkpt lat="45.72703" lon="6.55313">
        <ele>729</ele>
        <time>2009-07-04T09:29:54Z</time>
      </trkpt>
      <trkpt lat="45.72701" lon="6.55272">
        <ele>726</ele>
        <time>2009-07-04T09:29:58Z</time>
      </trkpt>
      <trkpt lat="45.7269" lon="6.55204">
        <ele>724</ele>
        <time>2009-07-04T09:30:06Z</time>
      </trkpt>
      <trkpt lat="45.72698" lon="6.55132">
        <ele>724</ele>
        <time>2009-07-04T09:30:14Z</time>
      </trkpt>
      <trkpt lat="45.72691" lon="6.5508">
        <ele>722</ele>
        <time>2009-07-04T09:30:20Z</time>
      </trkpt>
      <trkpt lat="45.72692" lon="6.55029">
        <ele>719</ele>
        <time>2009-07-04T09:30:26Z</time>
      </trkpt>
      <trkpt lat="45.72696" lon="6.55015">
        <ele>719</ele>
        <time>2009-07-04T09:30:27Z</time>
      </trkpt>
      <trkpt lat="45.72705" lon="6.55003">
        <ele>719</ele>
        <time>2009-07-04T09:30:29Z</time>
      </trkpt>
      <trkpt lat="45.7273" lon="6.54982">
        <ele>745</ele>
        <time>2009-07-04T09:30:34Z</time>
      </trkpt>
      <trkpt lat="45.72738" lon="6.54969">
        <ele>745</ele>
        <time>2009-07-04T09:30:36Z</time>
      </trkpt>
      <trkpt lat="45.72742" lon="6.54936">
        <ele>738</ele>
        <time>2009-07-04T09:30:40Z</time>
      </trkpt>
      <trkpt lat="45.72701" lon="6.54587">
        <ele>706</ele>
        <time>2009-07-04T09:31:19Z</time>
      </trkpt>
      <trkpt lat="45.72693" lon="6.54559">
        <ele>706</ele>
        <time>2009-07-04T09:31:23Z</time>
      </trkpt>
      <trkpt lat="45.72683" lon="6.54546">
        <ele>706</ele>
        <time>2009-07-04T09:31:25Z</time>
      </trkpt>
      <trkpt lat="45.72657" lon="6.5462">
        <ele>706</ele>
        <time>2009-07-04T09:31:34Z</time>
      </trkpt>
      <trkpt lat="45.726" lon="6.54731">
        <ele>703</ele>
        <time>2009-07-04T09:31:49Z</time>
      </trkpt>
      <trkpt lat="45.72601" lon="6.54741">
        <ele>703</ele>
        <time>2009-07-04T09:31:51Z</time>
      </trkpt>
      <trkpt lat="45.72581" lon="6.54806">
        <ele>702</ele>
        <time>2009-07-04T09:31:59Z</time>
      </trkpt>
      <trkpt lat="45.72572" lon="6.5497">
        <ele>698</ele>
        <time>2009-07-04T09:32:17Z</time>
      </trkpt>
      <trkpt lat="45.7256" lon="6.55057">
        <ele>698</ele>
        <time>2009-07-04T09:32:27Z</time>
      </trkpt>
      <trkpt lat="45.72543" lon="6.55131">
        <ele>700</ele>
        <time>2009-07-04T09:32:36Z</time>
      </trkpt>
      <trkpt lat="45.72503" lon="6.55222">
        <ele>696</ele>
        <time>2009-07-04T09:32:48Z</time>
      </trkpt>
      <trkpt lat="45.72445" lon="6.55307">
        <ele>700</ele>
        <time>2009-07-04T09:33:01Z</time>
      </trkpt>
      <trkpt lat="45.72396" lon="6.55393">
        <ele>698</ele>
        <time>2009-07-04T09:33:13Z</time>
      </trkpt>
      <trkpt lat="45.7226" lon="6.55611">
        <ele>700</ele>
        <time>2009-07-04T09:33:46Z</time>
      </trkpt>
      <trkpt lat="45.72151" lon="6.55775">
        <ele>705</ele>
        <time>2009-07-04T09:34:11Z</time>
      </trkpt>
      <trkpt lat="45.72098" lon="6.55905">
        <ele>707</ele>
        <time>2009-07-04T09:34:28Z</time>
      </trkpt>
      <trkpt lat="45.72091" lon="6.5591">
        <ele>707</ele>
        <time>2009-07-04T09:34:29Z</time>
      </trkpt>
      <trkpt lat="45.72023" lon="6.56105">
        <ele>714</ele>
        <time>2009-07-04T09:34:54Z</time>
      </trkpt>
      <trkpt lat="45.71987" lon="6.56184">
        <ele>712</ele>
        <time>2009-07-04T09:35:04Z</time>
      </trkpt>
      <trkpt lat="45.71951" lon="6.56282">
        <ele>716</ele>
        <time>2009-07-04T09:35:17Z</time>
      </trkpt>
      <trkpt lat="45.71943" lon="6.56337">
        <ele>716</ele>
        <time>2009-07-04T09:35:23Z</time>
      </trkpt>
      <trkpt lat="45.71943" lon="6.56371">
        <ele>716</ele>
        <time>2009-07-04T09:35:27Z</time>
      </trkpt>
      <trkpt lat="45.71955" lon="6.56483">
        <ele>721</ele>
        <time>2009-07-04T09:35:39Z</time>
      </trkpt>
      <trkpt lat="45.71952" lon="6.56494">
        <ele>721</ele>
        <time>2009-07-04T09:35:41Z</time>
      </trkpt>
      <trkpt lat="45.71959" lon="6.56757">
        <ele>730</ele>
        <time>2009-07-04T09:36:10Z</time>
      </trkpt>
      <trkpt lat="45.7198" lon="6.5714">
        <ele>730</ele>
        <time>2009-07-04T09:36:53Z</time>
      </trkpt>
      <trkpt lat="45.71973" lon="6.5722">
        <ele>731</ele>
        <time>2009-07-04T09:37:02Z</time>
      </trkpt>
      <trkpt lat="45.71965" lon="6.57222">
        <ele>731</ele>
        <time>2009-07-04T09:37:03Z</time>
      </trkpt>
      <trkpt lat="45.71962" lon="6.5723">
        <ele>731</ele>
        <time>2009-07-04T09:37:04Z</time>
      </trkpt>
      <trkpt lat="45.71967" lon="6.57243">
        <ele>731</ele>
        <time>2009-07-04T09:37:06Z</time>
      </trkpt>
      <trkpt lat="45.71954" lon="6.5728">
        <ele>733</ele>
        <time>2009-07-04T09:37:11Z</time>
      </trkpt>
      <trkpt lat="45.7191" lon="6.57353">
        <ele>733</ele>
        <time>2009-07-04T09:37:21Z</time>
      </trkpt>
      <trkpt lat="45.71885" lon="6.57386">
        <ele>738</ele>
        <time>2009-07-04T09:37:27Z</time>
      </trkpt>
      <trkpt lat="45.71878" lon="6.57386">
        <ele>738</ele>
        <time>2009-07-04T09:37:28Z</time>
      </trkpt>
      <trkpt lat="45.71878" lon="6.57395">
        <ele>738</ele>
        <time>2009-07-04T09:37:29Z</time>
      </trkpt>
      <trkpt lat="45.71866" lon="6.57412">
        <ele>736</ele>
        <time>2009-07-04T09:37:32Z</time>
      </trkpt>
      <trkpt lat="45.71815" lon="6.57472">
        <ele>740</ele>
        <time>2009-07-04T09:37:42Z</time>
      </trkpt>
      <trkpt lat="45.71767" lon="6.57521">
        <ele>744</ele>
        <time>2009-07-04T09:37:52Z</time>
      </trkpt>
      <trkpt lat="45.71737" lon="6.57471">
        <ele>744</ele>
        <time>2009-07-04T09:37:59Z</time>
      </trkpt>
      <trkpt lat="45.71724" lon="6.57462">
        <ele>744</ele>
        <time>2009-07-04T09:38:01Z</time>
      </trkpt>
      <trkpt lat="45.71707" lon="6.57462">
        <ele>760</ele>
        <time>2009-07-04T09:38:04Z</time>
      </trkpt>
      <trkpt lat="45.71651" lon="6.57401">
        <ele>756</ele>
        <time>2009-07-04T09:38:15Z</time>
      </trkpt>
      <trkpt lat="45.71574" lon="6.57307">
        <ele>760</ele>
        <time>2009-07-04T09:38:32Z</time>
      </trkpt>
      <trkpt lat="45.71552" lon="6.57267">
        <ele>752</ele>
        <time>2009-07-04T09:38:37Z</time>
      </trkpt>
      <trkpt lat="45.71546" lon="6.5727">
        <ele>752</ele>
        <time>2009-07-04T09:38:38Z</time>
      </trkpt>
      <trkpt lat="45.71546" lon="6.57277">
        <ele>752</ele>
        <time>2009-07-04T09:38:39Z</time>
      </trkpt>
      <trkpt lat="45.71557" lon="6.57313">
        <ele>760</ele>
        <time>2009-07-04T09:38:44Z</time>
      </trkpt>
      <trkpt lat="45.71558" lon="6.5733">
        <ele>760</ele>
        <time>2009-07-04T09:38:45Z</time>
      </trkpt>
      <trkpt lat="45.7155" lon="6.57331">
        <ele>760</ele>
        <time>2009-07-04T09:38:47Z</time>
      </trkpt>
      <trkpt lat="45.71527" lon="6.57256">
        <ele>778</ele>
        <time>2009-07-04T09:38:56Z</time>
      </trkpt>
      <trkpt lat="45.71519" lon="6.57241">
        <ele>778</ele>
        <time>2009-07-04T09:38:58Z</time>
      </trkpt>
      <trkpt lat="45.71512" lon="6.57237">
        <ele>778</ele>
        <time>2009-07-04T09:38:59Z</time>
      </trkpt>
      <trkpt lat="45.71506" lon="6.57242">
        <ele>778</ele>
        <time>2009-07-04T09:39:00Z</time>
      </trkpt>
      <trkpt lat="45.71506" lon="6.5727">
        <ele>778</ele>
        <time>2009-07-04T09:39:03Z</time>
      </trkpt>
      <trkpt lat="45.71518" lon="6.57305">
        <ele>786</ele>
        <time>2009-07-04T09:39:08Z</time>
      </trkpt>
      <trkpt lat="45.71523" lon="6.5734">
        <ele>786</ele>
        <time>2009-07-04T09:39:12Z</time>
      </trkpt>
      <trkpt lat="45.71521" lon="6.57354">
        <ele>786</ele>
        <time>2009-07-04T09:39:13Z</time>
      </trkpt>
      <trkpt lat="45.71504" lon="6.57354">
        <ele>786</ele>
        <time>2009-07-04T09:39:16Z</time>
      </trkpt>
      <trkpt lat="45.71471" lon="6.5729">
        <ele>778</ele>
        <time>2009-07-04T09:39:25Z</time>
      </trkpt>
      <trkpt lat="45.71445" lon="6.57262">
        <ele>794</ele>
        <time>2009-07-04T09:39:30Z</time>
      </trkpt>
      <trkpt lat="45.71432" lon="6.57261">
        <ele>794</ele>
        <time>2009-07-04T09:39:32Z</time>
      </trkpt>
      <trkpt lat="45.71427" lon="6.57276">
        <ele>794</ele>
        <time>2009-07-04T09:39:34Z</time>
      </trkpt>
      <trkpt lat="45.71442" lon="6.57349">
        <ele>802</ele>
        <time>2009-07-04T09:39:43Z</time>
      </trkpt>
      <trkpt lat="45.71442" lon="6.5737">
        <ele>802</ele>
        <time>2009-07-04T09:39:45Z</time>
      </trkpt>
      <trkpt lat="45.71435" lon="6.57417">
        <ele>807</ele>
        <time>2009-07-04T09:39:50Z</time>
      </trkpt>
      <trkpt lat="45.71424" lon="6.57453">
        <ele>807</ele>
        <time>2009-07-04T09:39:55Z</time>
      </trkpt>
      <trkpt lat="45.71392" lon="6.575">
        <ele>804</ele>
        <time>2009-07-04T09:40:02Z</time>
      </trkpt>
      <trkpt lat="45.71352" lon="6.57546">
        <ele>823</ele>
        <time>2009-07-04T09:40:10Z</time>
      </trkpt>
      <trkpt lat="45.71341" lon="6.57552">
        <ele>823</ele>
        <time>2009-07-04T09:40:12Z</time>
      </trkpt>
      <trkpt lat="45.71324" lon="6.57551">
        <ele>823</ele>
        <time>2009-07-04T09:40:15Z</time>
      </trkpt>
      <trkpt lat="45.71308" lon="6.57534">
        <ele>818</ele>
        <time>2009-07-04T09:40:18Z</time>
      </trkpt>
      <trkpt lat="45.71304" lon="6.57518">
        <ele>818</ele>
        <time>2009-07-04T09:40:20Z</time>
      </trkpt>
      <trkpt lat="45.71296" lon="6.5738">
        <ele>814</ele>
        <time>2009-07-04T09:40:35Z</time>
      </trkpt>
      <trkpt lat="45.7129" lon="6.57352">
        <ele>840</ele>
        <time>2009-07-04T09:40:39Z</time>
      </trkpt>
      <trkpt lat="45.71277" lon="6.57319">
        <ele>840</ele>
        <time>2009-07-04T09:40:43Z</time>
      </trkpt>
      <trkpt lat="45.71247" lon="6.57278">
        <ele>832</ele>
        <time>2009-07-04T09:40:50Z</time>
      </trkpt>
      <trkpt lat="45.71233" lon="6.57233">
        <ele>832</ele>
        <time>2009-07-04T09:40:55Z</time>
      </trkpt>
      <trkpt lat="45.71201" lon="6.57161">
        <ele>849</ele>
        <time>2009-07-04T09:41:05Z</time>
      </trkpt>
      <trkpt lat="45.7118" lon="6.57131">
        <ele>849</ele>
        <time>2009-07-04T09:41:09Z</time>
      </trkpt>
      <trkpt lat="45.71171" lon="6.57129">
        <ele>849</ele>
        <time>2009-07-04T09:41:11Z</time>
      </trkpt>
      <trkpt lat="45.71163" lon="6.57134">
        <ele>849</ele>
        <time>2009-07-04T09:41:12Z</time>
      </trkpt>
      <trkpt lat="45.71164" lon="6.57157">
        <ele>849</ele>
        <time>2009-07-04T09:41:15Z</time>
      </trkpt>
      <trkpt lat="45.71183" lon="6.57206">
        <ele>849</ele>
        <time>2009-07-04T09:41:21Z</time>
      </trkpt>
      <trkpt lat="45.71182" lon="6.57214">
        <ele>872</ele>
        <time>2009-07-04T09:41:22Z</time>
      </trkpt>
      <trkpt lat="45.71173" lon="6.57216">
        <ele>872</ele>
        <time>2009-07-04T09:41:24Z</time>
      </trkpt>
      <trkpt lat="45.71007" lon="6.56962">
        <ele>879</ele>
        <time>2009-07-04T09:42:02Z</time>
      </trkpt>
      <trkpt lat="45.70977" lon="6.56884">
        <ele>872</ele>
        <time>2009-07-04T09:42:12Z</time>
      </trkpt>
      <trkpt lat="45.70969" lon="6.5688">
        <ele>872</ele>
        <time>2009-07-04T09:42:14Z</time>
      </trkpt>
      <trkpt lat="45.70961" lon="6.56889">
        <ele>872</ele>
        <time>2009-07-04T09:42:15Z</time>
      </trkpt>
      <trkpt lat="45.7097" lon="6.56956">
        <ele>872</ele>
        <time>2009-07-04T09:42:23Z</time>
      </trkpt>
      <trkpt lat="45.70965" lon="6.5706">
        <ele>889</ele>
        <time>2009-07-04T09:42:35Z</time>
      </trkpt>
      <trkpt lat="45.70976" lon="6.57106">
        <ele>889</ele>
        <time>2009-07-04T09:42:40Z</time>
      </trkpt>
      <trkpt lat="45.70991" lon="6.57124">
        <ele>889</ele>
        <time>2009-07-04T09:42:43Z</time>
      </trkpt>
      <trkpt lat="45.7102" lon="6.57146">
        <ele>910</ele>
        <time>2009-07-04T09:42:48Z</time>
      </trkpt>
      <trkpt lat="45.71022" lon="6.57161">
        <ele>910</ele>
        <time>2009-07-04T09:42:50Z</time>
      </trkpt>
      <trkpt lat="45.71013" lon="6.57175">
        <ele>910</ele>
        <time>2009-07-04T09:42:52Z</time>
      </trkpt>
      <trkpt lat="45.70925" lon="6.57121">
        <ele>911</ele>
        <time>2009-07-04T09:43:08Z</time>
      </trkpt>
      <trkpt lat="45.70871" lon="6.56999">
        <ele>928</ele>
        <time>2009-07-04T09:43:24Z</time>
      </trkpt>
      <trkpt lat="45.70738" lon="6.56856">
        <ele>924</ele>
        <time>2009-07-04T09:43:50Z</time>
      </trkpt>
      <trkpt lat="45.70719" lon="6.56848">
        <ele>924</ele>
        <time>2009-07-04T09:43:54Z</time>
      </trkpt>
      <trkpt lat="45.70693" lon="6.56843">
        <ele>936</ele>
        <time>2009-07-04T09:43:58Z</time>
      </trkpt>
      <trkpt lat="45.70644" lon="6.56847">
        <ele>936</ele>
        <time>2009-07-04T09:44:06Z</time>
      </trkpt>
      <trkpt lat="45.70608" lon="6.56856">
        <ele>934</ele>
        <time>2009-07-04T09:44:11Z</time>
      </trkpt>
      <trkpt lat="45.70552" lon="6.56879">
        <ele>959</ele>
        <time>2009-07-04T09:44:21Z</time>
      </trkpt>
      <trkpt lat="45.70536" lon="6.56879">
        <ele>968</ele>
        <time>2009-07-04T09:44:23Z</time>
      </trkpt>
      <trkpt lat="45.7044" lon="6.56815">
        <ele>966</ele>
        <time>2009-07-04T09:44:40Z</time>
      </trkpt>
      <trkpt lat="45.70407" lon="6.56802">
        <ele>966</ele>
        <time>2009-07-04T09:44:46Z</time>
      </trkpt>
      <trkpt lat="45.70331" lon="6.56801">
        <ele>978</ele>
        <time>2009-07-04T09:44:58Z</time>
      </trkpt>
      <trkpt lat="45.70302" lon="6.56793">
        <ele>978</ele>
        <time>2009-07-04T09:45:03Z</time>
      </trkpt>
      <trkpt lat="45.70242" lon="6.56758">
        <ele>968</ele>
        <time>2009-07-04T09:45:13Z</time>
      </trkpt>
      <trkpt lat="45.70175" lon="6.56737">
        <ele>976</ele>
        <time>2009-07-04T09:45:24Z</time>
      </trkpt>
      <trkpt lat="45.70066" lon="6.56717">
        <ele>986</ele>
        <time>2009-07-04T09:45:42Z</time>
      </trkpt>
      <trkpt lat="45.70017" lon="6.56695">
        <ele>982</ele>
        <time>2009-07-04T09:45:50Z</time>
      </trkpt>
      <trkpt lat="45.69965" lon="6.56664">
        <ele>982</ele>
        <time>2009-07-04T09:45:59Z</time>
      </trkpt>
      <trkpt lat="45.69936" lon="6.56655">
        <ele>993</ele>
        <time>2009-07-04T09:46:04Z</time>
      </trkpt>
      <trkpt lat="45.6977" lon="6.56636">
        <ele>1006</ele>
        <time>2009-07-04T09:46:30Z</time>
      </trkpt>
      <trkpt lat="45.69744" lon="6.56636">
        <ele>1006</ele>
        <time>2009-07-04T09:46:34Z</time>
      </trkpt>
      <trkpt lat="45.69687" lon="6.56654">
        <ele>1007</ele>
        <time>2009-07-04T09:46:44Z</time>
      </trkpt>
      <trkpt lat="45.69652" lon="6.56672">
        <ele>1007</ele>
        <time>2009-07-04T09:46:50Z</time>
      </trkpt>
      <trkpt lat="45.696" lon="6.56711">
        <ele>1023</ele>
        <time>2009-07-04T09:46:59Z</time>
      </trkpt>
      <trkpt lat="45.69546" lon="6.56743">
        <ele>1023</ele>
        <time>2009-07-04T09:47:09Z</time>
      </trkpt>
      <trkpt lat="45.69521" lon="6.56765">
        <ele>1024</ele>
        <time>2009-07-04T09:47:13Z</time>
      </trkpt>
      <trkpt lat="45.69504" lon="6.56771">
        <ele>1024</ele>
        <time>2009-07-04T09:47:16Z</time>
      </trkpt>
      <trkpt lat="45.69476" lon="6.56773">
        <ele>1024</ele>
        <time>2009-07-04T09:47:21Z</time>
      </trkpt>
      <trkpt lat="45.69457" lon="6.56768">
        <ele>1032</ele>
        <time>2009-07-04T09:47:24Z</time>
      </trkpt>
      <trkpt lat="45.69425" lon="6.56746">
        <ele>1032</ele>
        <time>2009-07-04T09:47:29Z</time>
      </trkpt>
      <trkpt lat="45.69412" lon="6.56742">
        <ele>1032</ele>
        <time>2009-07-04T09:47:31Z</time>
      </trkpt>
      <trkpt lat="45.69359" lon="6.56738">
        <ele>1030</ele>
        <time>2009-07-04T09:47:40Z</time>
      </trkpt>
      <trkpt lat="45.693" lon="6.56735">
        <ele>1030</ele>
        <time>2009-07-04T09:47:49Z</time>
      </trkpt>
      <trkpt lat="45.69276" lon="6.5674">
        <ele>1026</ele>
        <time>2009-07-04T09:47:53Z</time>
      </trkpt>
      <trkpt lat="45.69211" lon="6.5678">
        <ele>1026</ele>
        <time>2009-07-04T09:48:05Z</time>
      </trkpt>
      <trkpt lat="45.69192" lon="6.56783">
        <ele>1020</ele>
        <time>2009-07-04T09:48:08Z</time>
      </trkpt>
      <trkpt lat="45.69153" lon="6.56819">
        <ele>1035</ele>
        <time>2009-07-04T09:48:15Z</time>
      </trkpt>
      <trkpt lat="45.69138" lon="6.56825">
        <ele>1035</ele>
        <time>2009-07-04T09:48:18Z</time>
      </trkpt>
      <trkpt lat="45.69046" lon="6.56827">
        <ele>1035</ele>
        <time>2009-07-04T09:48:32Z</time>
      </trkpt>
      <trkpt lat="45.68912" lon="6.56866">
        <ele>1026</ele>
        <time>2009-07-04T09:48:54Z</time>
      </trkpt>
      <trkpt lat="45.68787" lon="6.56892">
        <ele>1036</ele>
        <time>2009-07-04T09:49:14Z</time>
      </trkpt>
      <trkpt lat="45.6873" lon="6.56899">
        <ele>1036</ele>
        <time>2009-07-04T09:49:24Z</time>
      </trkpt>
      <trkpt lat="45.68702" lon="6.56909">
        <ele>1038</ele>
        <time>2009-07-04T09:49:28Z</time>
      </trkpt>
      <trkpt lat="45.68631" lon="6.56887">
        <ele>1038</ele>
        <time>2009-07-04T09:49:40Z</time>
      </trkpt>
      <trkpt lat="45.68625" lon="6.56925">
        <ele>1042</ele>
        <time>2009-07-04T09:49:44Z</time>
      </trkpt>
      <trkpt lat="45.68585" lon="6.56969">
        <ele>1055</ele>
        <time>2009-07-04T09:49:52Z</time>
      </trkpt>
      <trkpt lat="45.68582" lon="6.56982">
        <ele>1055</ele>
        <time>2009-07-04T09:49:54Z</time>
      </trkpt>
      <trkpt lat="45.68627" lon="6.56998">
        <ele>1052</ele>
        <time>2009-07-04T09:50:01Z</time>
      </trkpt>
      <trkpt lat="45.68633" lon="6.57007">
        <ele>1052</ele>
        <time>2009-07-04T09:50:03Z</time>
      </trkpt>
      <trkpt lat="45.68629" lon="6.57022">
        <ele>1052</ele>
        <time>2009-07-04T09:50:04Z</time>
      </trkpt>
      <trkpt lat="45.68581" lon="6.57035">
        <ele>1055</ele>
        <time>2009-07-04T09:50:12Z</time>
      </trkpt>
      <trkpt lat="45.6852" lon="6.57101">
        <ele>1068</ele>
        <time>2009-07-04T09:50:25Z</time>
      </trkpt>
      <trkpt lat="45.68471" lon="6.57131">
        <ele>1090</ele>
        <time>2009-07-04T09:50:33Z</time>
      </trkpt>
      <trkpt lat="45.68428" lon="6.57173">
        <ele>1080</ele>
        <time>2009-07-04T09:50:41Z</time>
      </trkpt>
      <trkpt lat="45.68302" lon="6.57266">
        <ele>1095</ele>
        <time>2009-07-04T09:51:04Z</time>
      </trkpt>
      <trkpt lat="45.68302" lon="6.57278">
        <ele>1095</ele>
        <time>2009-07-04T09:51:05Z</time>
      </trkpt>
      <trkpt lat="45.68361" lon="6.57264">
        <ele>1095</ele>
        <time>2009-07-04T09:51:15Z</time>
      </trkpt>
      <trkpt lat="45.68405" lon="6.57268">
        <ele>1104</ele>
        <time>2009-07-04T09:51:22Z</time>
      </trkpt>
      <trkpt lat="45.6842" lon="6.57265">
        <ele>1104</ele>
        <time>2009-07-04T09:51:24Z</time>
      </trkpt>
      <trkpt lat="45.6845" lon="6.57244">
        <ele>1104</ele>
        <time>2009-07-04T09:51:30Z</time>
      </trkpt>
      <trkpt lat="45.6847" lon="6.57237">
        <ele>1111</ele>
        <time>2009-07-04T09:51:33Z</time>
      </trkpt>
      <trkpt lat="45.6849" lon="6.57238">
        <ele>1111</ele>
        <time>2009-07-04T09:51:36Z</time>
      </trkpt>
      <trkpt lat="45.68496" lon="6.57248">
        <ele>1111</ele>
        <time>2009-07-04T09:51:38Z</time>
      </trkpt>
      <trkpt lat="45.6849" lon="6.57267">
        <ele>1111</ele>
        <time>2009-07-04T09:51:40Z</time>
      </trkpt>
      <trkpt lat="45.68455" lon="6.57292">
        <ele>1127</ele>
        <time>2009-07-04T09:51:46Z</time>
      </trkpt>
      <trkpt lat="45.68443" lon="6.57316">
        <ele>1127</ele>
        <time>2009-07-04T09:51:50Z</time>
      </trkpt>
      <trkpt lat="45.68428" lon="6.57334">
        <ele>1127</ele>
        <time>2009-07-04T09:51:53Z</time>
      </trkpt>
      <trkpt lat="45.68367" lon="6.57347">
        <ele>1119</ele>
        <time>2009-07-04T09:52:03Z</time>
      </trkpt>
      <trkpt lat="45.68337" lon="6.57364">
        <ele>1119</ele>
        <time>2009-07-04T09:52:08Z</time>
      </trkpt>
      <trkpt lat="45.68314" lon="6.57385">
        <ele>1142</ele>
        <time>2009-07-04T09:52:12Z</time>
      </trkpt>
      <trkpt lat="45.68304" lon="6.57414">
        <ele>1142</ele>
        <time>2009-07-04T09:52:16Z</time>
      </trkpt>
      <trkpt lat="45.68298" lon="6.57452">
        <ele>1142</ele>
        <time>2009-07-04T09:52:20Z</time>
      </trkpt>
      <trkpt lat="45.68297" lon="6.57474">
        <ele>1155</ele>
        <time>2009-07-04T09:52:23Z</time>
      </trkpt>
      <trkpt lat="45.68306" lon="6.5752">
        <ele>1155</ele>
        <time>2009-07-04T09:52:28Z</time>
      </trkpt>
      <trkpt lat="45.68313" lon="6.57514">
        <ele>1155</ele>
        <time>2009-07-04T09:52:29Z</time>
      </trkpt>
      <trkpt lat="45.68333" lon="6.57456">
        <ele>1142</ele>
        <time>2009-07-04T09:52:37Z</time>
      </trkpt>
      <trkpt lat="45.68339" lon="6.57446">
        <ele>1142</ele>
        <time>2009-07-04T09:52:38Z</time>
      </trkpt>
      <trkpt lat="45.68351" lon="6.57438">
        <ele>1142</ele>
        <time>2009-07-04T09:52:40Z</time>
      </trkpt>
      <trkpt lat="45.68368" lon="6.57432">
        <ele>1142</ele>
        <time>2009-07-04T09:52:43Z</time>
      </trkpt>
      <trkpt lat="45.68401" lon="6.57431">
        <ele>1161</ele>
        <time>2009-07-04T09:52:48Z</time>
      </trkpt>
      <trkpt lat="45.68422" lon="6.57436">
        <ele>1161</ele>
        <time>2009-07-04T09:52:52Z</time>
      </trkpt>
      <trkpt lat="45.68441" lon="6.57459">
        <ele>1181</ele>
        <time>2009-07-04T09:52:56Z</time>
      </trkpt>
      <trkpt lat="45.68396" lon="6.5747">
        <ele>1181</ele>
        <time>2009-07-04T09:53:03Z</time>
      </trkpt>
      <trkpt lat="45.68376" lon="6.57482">
        <ele>1181</ele>
        <time>2009-07-04T09:53:06Z</time>
      </trkpt>
      <trkpt lat="45.68369" lon="6.57506">
        <ele>1155</ele>
        <time>2009-07-04T09:53:09Z</time>
      </trkpt>
      <trkpt lat="45.68368" lon="6.57541">
        <ele>1155</ele>
        <time>2009-07-04T09:53:13Z</time>
      </trkpt>
      <trkpt lat="45.6836" lon="6.57585">
        <ele>1163</ele>
        <time>2009-07-04T09:53:18Z</time>
      </trkpt>
      <trkpt lat="45.6834" lon="6.57634">
        <ele>1179</ele>
        <time>2009-07-04T09:53:25Z</time>
      </trkpt>
      <trkpt lat="45.68317" lon="6.57674">
        <ele>1179</ele>
        <time>2009-07-04T09:53:30Z</time>
      </trkpt>
      <trkpt lat="45.68312" lon="6.57705">
        <ele>1179</ele>
        <time>2009-07-04T09:53:34Z</time>
      </trkpt>
      <trkpt lat="45.68317" lon="6.57721">
        <ele>1190</ele>
        <time>2009-07-04T09:53:36Z</time>
      </trkpt>
      <trkpt lat="45.68328" lon="6.57719">
        <ele>1190</ele>
        <time>2009-07-04T09:53:38Z</time>
      </trkpt>
      <trkpt lat="45.68343" lon="6.57689">
        <ele>1179</ele>
        <time>2009-07-04T09:53:42Z</time>
      </trkpt>
      <trkpt lat="45.68372" lon="6.57674">
        <ele>1179</ele>
        <time>2009-07-04T09:53:47Z</time>
      </trkpt>
      <trkpt lat="45.68409" lon="6.57622">
        <ele>1199</ele>
        <time>2009-07-04T09:53:55Z</time>
      </trkpt>
      <trkpt lat="45.68446" lon="6.5758">
        <ele>1199</ele>
        <time>2009-07-04T09:54:03Z</time>
      </trkpt>
      <trkpt lat="45.68461" lon="6.57571">
        <ele>1226</ele>
        <time>2009-07-04T09:54:05Z</time>
      </trkpt>
      <trkpt lat="45.68478" lon="6.5757">
        <ele>1226</ele>
        <time>2009-07-04T09:54:08Z</time>
      </trkpt>
      <trkpt lat="45.68485" lon="6.57582">
        <ele>1226</ele>
        <time>2009-07-04T09:54:10Z</time>
      </trkpt>
      <trkpt lat="45.68485" lon="6.57598">
        <ele>1226</ele>
        <time>2009-07-04T09:54:12Z</time>
      </trkpt>
      <trkpt lat="45.68431" lon="6.57655">
        <ele>1212</ele>
        <time>2009-07-04T09:54:22Z</time>
      </trkpt>
      <trkpt lat="45.68402" lon="6.57726">
        <ele>1223</ele>
        <time>2009-07-04T09:54:32Z</time>
      </trkpt>
      <trkpt lat="45.68398" lon="6.57744">
        <ele>1223</ele>
        <time>2009-07-04T09:54:34Z</time>
      </trkpt>
      <trkpt lat="45.68399" lon="6.57771">
        <ele>1223</ele>
        <time>2009-07-04T09:54:37Z</time>
      </trkpt>
      <trkpt lat="45.68407" lon="6.57797">
        <ele>1219</ele>
        <time>2009-07-04T09:54:40Z</time>
      </trkpt>
      <trkpt lat="45.68418" lon="6.5781">
        <ele>1219</ele>
        <time>2009-07-04T09:54:42Z</time>
      </trkpt>
      <trkpt lat="45.6842" lon="6.57735">
        <ele>1223</ele>
        <time>2009-07-04T09:54:51Z</time>
      </trkpt>
      <trkpt lat="45.68424" lon="6.57715">
        <ele>1223</ele>
        <time>2009-07-04T09:54:53Z</time>
      </trkpt>
      <trkpt lat="45.68432" lon="6.57701">
        <ele>1212</ele>
        <time>2009-07-04T09:54:55Z</time>
      </trkpt>
      <trkpt lat="45.68453" lon="6.57684">
        <ele>1212</ele>
        <time>2009-07-04T09:54:59Z</time>
      </trkpt>
      <trkpt lat="45.68487" lon="6.57668">
        <ele>1249</ele>
        <time>2009-07-04T09:55:04Z</time>
      </trkpt>
      <trkpt lat="45.68504" lon="6.5765">
        <ele>1249</ele>
        <time>2009-07-04T09:55:08Z</time>
      </trkpt>
      <trkpt lat="45.6855" lon="6.57616">
        <ele>1263</ele>
        <time>2009-07-04T09:55:16Z</time>
      </trkpt>
      <trkpt lat="45.6856" lon="6.57604">
        <ele>1263</ele>
        <time>2009-07-04T09:55:18Z</time>
      </trkpt>
      <trkpt lat="45.6858" lon="6.57554">
        <ele>1263</ele>
        <time>2009-07-04T09:55:25Z</time>
      </trkpt>
      <trkpt lat="45.68589" lon="6.57547">
        <ele>1263</ele>
        <time>2009-07-04T09:55:26Z</time>
      </trkpt>
      <trkpt lat="45.68595" lon="6.57549">
        <ele>1263</ele>
        <time>2009-07-04T09:55:27Z</time>
      </trkpt>
      <trkpt lat="45.68598" lon="6.57574">
        <ele>1263</ele>
        <time>2009-07-04T09:55:30Z</time>
      </trkpt>
      <trkpt lat="45.68593" lon="6.57595">
        <ele>1263</ele>
        <time>2009-07-04T09:55:33Z</time>
      </trkpt>
      <trkpt lat="45.68584" lon="6.57613">
        <ele>1263</ele>
        <time>2009-07-04T09:55:35Z</time>
      </trkpt>
      <trkpt lat="45.68527" lon="6.57686">
        <ele>1249</ele>
        <time>2009-07-04T09:55:47Z</time>
      </trkpt>
      <trkpt lat="45.68514" lon="6.57714">
        <ele>1267</ele>
        <time>2009-07-04T09:55:51Z</time>
      </trkpt>
      <trkpt lat="45.68503" lon="6.57764">
        <ele>1267</ele>
        <time>2009-07-04T09:55:57Z</time>
      </trkpt>
      <trkpt lat="45.68501" lon="6.57793">
        <ele>1270</ele>
        <time>2009-07-04T09:56:00Z</time>
      </trkpt>
      <trkpt lat="45.68506" lon="6.57828">
        <ele>1270</ele>
        <time>2009-07-04T09:56:04Z</time>
      </trkpt>
      <trkpt lat="45.68524" lon="6.57863">
        <ele>1270</ele>
        <time>2009-07-04T09:56:09Z</time>
      </trkpt>
      <trkpt lat="45.68535" lon="6.57913">
        <ele>1270</ele>
        <time>2009-07-04T09:56:15Z</time>
      </trkpt>
      <trkpt lat="45.68569" lon="6.57955">
        <ele>1311</ele>
        <time>2009-07-04T09:56:22Z</time>
      </trkpt>
      <trkpt lat="45.68584" lon="6.57989">
        <ele>1301</ele>
        <time>2009-07-04T09:56:27Z</time>
      </trkpt>
      <trkpt lat="45.68599" lon="6.58059">
        <ele>1297</ele>
        <time>2009-07-04T09:56:35Z</time>
      </trkpt>
      <trkpt lat="45.68605" lon="6.5806">
        <ele>1297</ele>
        <time>2009-07-04T09:56:36Z</time>
      </trkpt>
      <trkpt lat="45.68607" lon="6.58045">
        <ele>1297</ele>
        <time>2009-07-04T09:56:37Z</time>
      </trkpt>
      <trkpt lat="45.68573" lon="6.57864">
        <ele>1314</ele>
        <time>2009-07-04T09:56:58Z</time>
      </trkpt>
      <trkpt lat="45.68604" lon="6.57755">
        <ele>1310</ele>
        <time>2009-07-04T09:57:12Z</time>
      </trkpt>
      <trkpt lat="45.68629" lon="6.57711">
        <ele>1351</ele>
        <time>2009-07-04T09:57:18Z</time>
      </trkpt>
      <trkpt lat="45.6868" lon="6.57645">
        <ele>1334</ele>
        <time>2009-07-04T09:57:29Z</time>
      </trkpt>
      <trkpt lat="45.68701" lon="6.57636">
        <ele>1334</ele>
        <time>2009-07-04T09:57:32Z</time>
      </trkpt>
      <trkpt lat="45.68706" lon="6.57645">
        <ele>1334</ele>
        <time>2009-07-04T09:57:34Z</time>
      </trkpt>
      <trkpt lat="45.68702" lon="6.57664">
        <ele>1334</ele>
        <time>2009-07-04T09:57:36Z</time>
      </trkpt>
      <trkpt lat="45.68672" lon="6.57701">
        <ele>1334</ele>
        <time>2009-07-04T09:57:42Z</time>
      </trkpt>
      <trkpt lat="45.68663" lon="6.57726">
        <ele>1351</ele>
        <time>2009-07-04T09:57:45Z</time>
      </trkpt>
      <trkpt lat="45.68644" lon="6.57786">
        <ele>1351</ele>
        <time>2009-07-04T09:57:53Z</time>
      </trkpt>
      <trkpt lat="45.68642" lon="6.57823">
        <ele>1359</ele>
        <time>2009-07-04T09:57:57Z</time>
      </trkpt>
      <trkpt lat="45.68667" lon="6.57888">
        <ele>1354</ele>
        <time>2009-07-04T09:58:05Z</time>
      </trkpt>
      <trkpt lat="45.68711" lon="6.57949">
        <ele>1387</ele>
        <time>2009-07-04T09:58:15Z</time>
      </trkpt>
      <trkpt lat="45.6873" lon="6.57999">
        <ele>1377</ele>
        <time>2009-07-04T09:58:21Z</time>
      </trkpt>
      <trkpt lat="45.68741" lon="6.58035">
        <ele>1377</ele>
        <time>2009-07-04T09:58:26Z</time>
      </trkpt>
      <trkpt lat="45.68743" lon="6.58054">
        <ele>1380</ele>
        <time>2009-07-04T09:58:28Z</time>
      </trkpt>
      <trkpt lat="45.68745" lon="6.58153">
        <ele>1391</ele>
        <time>2009-07-04T09:58:39Z</time>
      </trkpt>
      <trkpt lat="45.68762" lon="6.58147">
        <ele>1391</ele>
        <time>2009-07-04T09:58:42Z</time>
      </trkpt>
      <trkpt lat="45.68765" lon="6.58136">
        <ele>1391</ele>
        <time>2009-07-04T09:58:43Z</time>
      </trkpt>
      <trkpt lat="45.68765" lon="6.58023">
        <ele>1377</ele>
        <time>2009-07-04T09:58:56Z</time>
      </trkpt>
      <trkpt lat="45.6878" lon="6.57978">
        <ele>1377</ele>
        <time>2009-07-04T09:59:01Z</time>
      </trkpt>
      <trkpt lat="45.68783" lon="6.57952">
        <ele>1387</ele>
        <time>2009-07-04T09:59:04Z</time>
      </trkpt>
      <trkpt lat="45.68778" lon="6.57917">
        <ele>1387</ele>
        <time>2009-07-04T09:59:08Z</time>
      </trkpt>
      <trkpt lat="45.68761" lon="6.57887">
        <ele>1387</ele>
        <time>2009-07-04T09:59:13Z</time>
      </trkpt>
      <trkpt lat="45.68758" lon="6.57874">
        <ele>1392</ele>
        <time>2009-07-04T09:59:14Z</time>
      </trkpt>
      <trkpt lat="45.6876" lon="6.5786">
        <ele>1392</ele>
        <time>2009-07-04T09:59:16Z</time>
      </trkpt>
      <trkpt lat="45.68766" lon="6.57845">
        <ele>1392</ele>
        <time>2009-07-04T09:59:18Z</time>
      </trkpt>
      <trkpt lat="45.68795" lon="6.5781">
        <ele>1418</ele>
        <time>2009-07-04T09:59:24Z</time>
      </trkpt>
      <trkpt lat="45.68814" lon="6.57804">
        <ele>1418</ele>
        <time>2009-07-04T09:59:27Z</time>
      </trkpt>
      <trkpt lat="45.68857" lon="6.57802">
        <ele>1418</ele>
        <time>2009-07-04T09:59:34Z</time>
      </trkpt>
      <trkpt lat="45.68867" lon="6.57807">
        <ele>1418</ele>
        <time>2009-07-04T09:59:36Z</time>
      </trkpt>
      <trkpt lat="45.68867" lon="6.57817">
        <ele>1418</ele>
        <time>2009-07-04T09:59:37Z</time>
      </trkpt>
      <trkpt lat="45.68857" lon="6.57824">
        <ele>1418</ele>
        <time>2009-07-04T09:59:38Z</time>
      </trkpt>
      <trkpt lat="45.68823" lon="6.5783">
        <ele>1418</ele>
        <time>2009-07-04T09:59:44Z</time>
      </trkpt>
      <trkpt lat="45.68804" lon="6.57841">
        <ele>1418</ele>
        <time>2009-07-04T09:59:47Z</time>
      </trkpt>
      <trkpt lat="45.68816" lon="6.5789">
        <ele>1422</ele>
        <time>2009-07-04T09:59:53Z</time>
      </trkpt>
      <trkpt lat="45.68819" lon="6.57921">
        <ele>1422</ele>
        <time>2009-07-04T09:59:57Z</time>
      </trkpt>
      <trkpt lat="45.68843" lon="6.57974">
        <ele>1425</ele>
        <time>2009-07-04T10:00:04Z</time>
      </trkpt>
      <trkpt lat="45.68848" lon="6.58109">
        <ele>1425</ele>
        <time>2009-07-04T10:00:19Z</time>
      </trkpt>
      <trkpt lat="45.68864" lon="6.58166">
        <ele>1436</ele>
        <time>2009-07-04T10:00:26Z</time>
      </trkpt>
      <trkpt lat="45.68865" lon="6.58206">
        <ele>1436</ele>
        <time>2009-07-04T10:00:30Z</time>
      </trkpt>
      <trkpt lat="45.68861" lon="6.5822">
        <ele>1463</ele>
        <time>2009-07-04T10:00:32Z</time>
      </trkpt>
      <trkpt lat="45.68848" lon="6.58239">
        <ele>1463</ele>
        <time>2009-07-04T10:00:35Z</time>
      </trkpt>
      <trkpt lat="45.68822" lon="6.58262">
        <ele>1463</ele>
        <time>2009-07-04T10:00:40Z</time>
      </trkpt>
      <trkpt lat="45.68782" lon="6.58334">
        <ele>1432</ele>
        <time>2009-07-04T10:00:50Z</time>
      </trkpt>
      <trkpt lat="45.68779" lon="6.5839">
        <ele>1439</ele>
        <time>2009-07-04T10:00:56Z</time>
      </trkpt>
      <trkpt lat="45.6878" lon="6.58537">
        <ele>1450</ele>
        <time>2009-07-04T10:01:13Z</time>
      </trkpt>
      <trkpt lat="45.68784" lon="6.58569">
        <ele>1455</ele>
        <time>2009-07-04T10:01:16Z</time>
      </trkpt>
      <trkpt lat="45.68793" lon="6.58601">
        <ele>1520</ele>
        <time>2009-07-04T10:01:20Z</time>
      </trkpt>
      <trkpt lat="45.68791" lon="6.58635">
        <ele>1465</ele>
        <time>2009-07-04T10:01:24Z</time>
      </trkpt>
      <trkpt lat="45.68785" lon="6.58658">
        <ele>1465</ele>
        <time>2009-07-04T10:01:27Z</time>
      </trkpt>
      <trkpt lat="45.6879" lon="6.58675">
        <ele>1465</ele>
        <time>2009-07-04T10:01:29Z</time>
      </trkpt>
      <trkpt lat="45.68803" lon="6.58667">
        <ele>1530</ele>
        <time>2009-07-04T10:01:31Z</time>
      </trkpt>
      <trkpt lat="45.68806" lon="6.58656">
        <ele>1530</ele>
        <time>2009-07-04T10:01:32Z</time>
      </trkpt>
      <trkpt lat="45.68807" lon="6.58581">
        <ele>1520</ele>
        <time>2009-07-04T10:01:41Z</time>
      </trkpt>
      <trkpt lat="45.68816" lon="6.58494">
        <ele>1511</ele>
        <time>2009-07-04T10:01:51Z</time>
      </trkpt>
      <trkpt lat="45.6884" lon="6.58424">
        <ele>1506</ele>
        <time>2009-07-04T10:01:59Z</time>
      </trkpt>
      <trkpt lat="45.68866" lon="6.58368">
        <ele>1493</ele>
        <time>2009-07-04T10:02:07Z</time>
      </trkpt>
      <trkpt lat="45.68895" lon="6.5832">
        <ele>1543</ele>
        <time>2009-07-04T10:02:14Z</time>
      </trkpt>
      <trkpt lat="45.68937" lon="6.58296">
        <ele>1543</ele>
        <time>2009-07-04T10:02:21Z</time>
      </trkpt>
      <trkpt lat="45.68964" lon="6.58274">
        <ele>1554</ele>
        <time>2009-07-04T10:02:26Z</time>
      </trkpt>
      <trkpt lat="45.68971" lon="6.58261">
        <ele>1554</ele>
        <time>2009-07-04T10:02:28Z</time>
      </trkpt>
      <trkpt lat="45.68986" lon="6.58202">
        <ele>1539</ele>
        <time>2009-07-04T10:02:35Z</time>
      </trkpt>
      <trkpt lat="45.69006" lon="6.58158">
        <ele>1539</ele>
        <time>2009-07-04T10:02:41Z</time>
      </trkpt>
      <trkpt lat="45.69094" lon="6.58037">
        <ele>1535</ele>
        <time>2009-07-04T10:03:00Z</time>
      </trkpt>
      <trkpt lat="45.69106" lon="6.58033">
        <ele>1535</ele>
        <time>2009-07-04T10:03:02Z</time>
      </trkpt>
      <trkpt lat="45.69114" lon="6.5804">
        <ele>1535</ele>
        <time>2009-07-04T10:03:04Z</time>
      </trkpt>
      <trkpt lat="45.69112" lon="6.58055">
        <ele>1567</ele>
        <time>2009-07-04T10:03:06Z</time>
      </trkpt>
      <trkpt lat="45.69106" lon="6.58065">
        <ele>1567</ele>
        <time>2009-07-04T10:03:07Z</time>
      </trkpt>
      <trkpt lat="45.69066" lon="6.58102">
        <ele>1567</ele>
        <time>2009-07-04T10:03:15Z</time>
      </trkpt>
      <trkpt lat="45.69056" lon="6.58121">
        <ele>1567</ele>
        <time>2009-07-04T10:03:17Z</time>
      </trkpt>
      <trkpt lat="45.69044" lon="6.58159">
        <ele>1592</ele>
        <time>2009-07-04T10:03:22Z</time>
      </trkpt>
      <trkpt lat="45.69039" lon="6.58283">
        <ele>1554</ele>
        <time>2009-07-04T10:03:36Z</time>
      </trkpt>
      <trkpt lat="45.69015" lon="6.58336">
        <ele>1587</ele>
        <time>2009-07-04T10:03:43Z</time>
      </trkpt>
      <trkpt lat="45.68984" lon="6.58386">
        <ele>1610</ele>
        <time>2009-07-04T10:03:50Z</time>
      </trkpt>
      <trkpt lat="45.6898" lon="6.58402">
        <ele>1610</ele>
        <time>2009-07-04T10:03:52Z</time>
      </trkpt>
      <trkpt lat="45.68973" lon="6.58483">
        <ele>1628</ele>
        <time>2009-07-04T10:04:01Z</time>
      </trkpt>
      <trkpt lat="45.6895" lon="6.58569">
        <ele>1581</ele>
        <time>2009-07-04T10:04:12Z</time>
      </trkpt>
      <trkpt lat="45.68949" lon="6.58587">
        <ele>1581</ele>
        <time>2009-07-04T10:04:14Z</time>
      </trkpt>
      <trkpt lat="45.68949" lon="6.58607">
        <ele>1581</ele>
        <time>2009-07-04T10:04:16Z</time>
      </trkpt>
      <trkpt lat="45.68964" lon="6.58709">
        <ele>1655</ele>
        <time>2009-07-04T10:04:28Z</time>
      </trkpt>
      <trkpt lat="45.68963" lon="6.58751">
        <ele>1655</ele>
        <time>2009-07-04T10:04:32Z</time>
      </trkpt>
      <trkpt lat="45.68957" lon="6.58794">
        <ele>1619</ele>
        <time>2009-07-04T10:04:37Z</time>
      </trkpt>
      <trkpt lat="45.68906" lon="6.58975">
        <ele>1650</ele>
        <time>2009-07-04T10:04:59Z</time>
      </trkpt>
      <trkpt lat="45.68902" lon="6.59003">
        <ele>1650</ele>
        <time>2009-07-04T10:05:02Z</time>
      </trkpt>
      <trkpt lat="45.68901" lon="6.5908">
        <ele>1661</ele>
        <time>2009-07-04T10:05:11Z</time>
      </trkpt>
      <trkpt lat="45.6889" lon="6.59156">
        <ele>1671</ele>
        <time>2009-07-04T10:05:20Z</time>
      </trkpt>
      <trkpt lat="45.68891" lon="6.59201">
        <ele>1671</ele>
        <time>2009-07-04T10:05:25Z</time>
      </trkpt>
      <trkpt lat="45.68904" lon="6.59275">
        <ele>1672</ele>
        <time>2009-07-04T10:05:33Z</time>
      </trkpt>
      <trkpt lat="45.68903" lon="6.59316">
        <ele>1670</ele>
        <time>2009-07-04T10:05:38Z</time>
      </trkpt>
      <trkpt lat="45.68913" lon="6.59377">
        <ele>1668</ele>
        <time>2009-07-04T10:05:45Z</time>
      </trkpt>
      <trkpt lat="45.68917" lon="6.59427">
        <ele>1668</ele>
        <time>2009-07-04T10:05:50Z</time>
      </trkpt>
      <trkpt lat="45.68916" lon="6.59464">
        <ele>1672</ele>
        <time>2009-07-04T10:05:55Z</time>
      </trkpt>
      <trkpt lat="45.68903" lon="6.59497">
        <ele>1672</ele>
        <time>2009-07-04T10:05:59Z</time>
      </trkpt>
      <trkpt lat="45.68905" lon="6.59523">
        <ele>1672</ele>
        <time>2009-07-04T10:06:02Z</time>
      </trkpt>
      <trkpt lat="45.68935" lon="6.5958">
        <ele>1677</ele>
        <time>2009-07-04T10:06:10Z</time>
      </trkpt>
      <trkpt lat="45.68956" lon="6.59635">
        <ele>1697</ele>
        <time>2009-07-04T10:06:17Z</time>
      </trkpt>
      <trkpt lat="45.68993" lon="6.59699">
        <ele>1696</ele>
        <time>2009-07-04T10:06:26Z</time>
      </trkpt>
      <trkpt lat="45.69031" lon="6.598">
        <ele>1712</ele>
        <time>2009-07-04T10:06:39Z</time>
      </trkpt>
      <trkpt lat="45.69011" lon="6.59818">
        <ele>1712</ele>
        <time>2009-07-04T10:06:43Z</time>
      </trkpt>
      <trkpt lat="45.68993" lon="6.59845">
        <ele>1712</ele>
        <time>2009-07-04T10:06:47Z</time>
      </trkpt>
      <trkpt lat="45.68991" lon="6.59861">
        <ele>1712</ele>
        <time>2009-07-04T10:06:49Z</time>
      </trkpt>
      <trkpt lat="45.68995" lon="6.59908">
        <ele>1710</ele>
        <time>2009-07-04T10:06:54Z</time>
      </trkpt>
      <trkpt lat="45.68954" lon="6.60033">
        <ele>1745</ele>
        <time>2009-07-04T10:07:09Z</time>
      </trkpt>
      <trkpt lat="45.68937" lon="6.60057">
        <ele>1732</ele>
        <time>2009-07-04T10:07:13Z</time>
      </trkpt>
      <trkpt lat="45.68895" lon="6.60092">
        <ele>1732</ele>
        <time>2009-07-04T10:07:21Z</time>
      </trkpt>
      <trkpt lat="45.68881" lon="6.6012">
        <ele>1732</ele>
        <time>2009-07-04T10:07:25Z</time>
      </trkpt>
      <trkpt lat="45.68856" lon="6.60269">
        <ele>1738</ele>
        <time>2009-07-04T10:07:42Z</time>
      </trkpt>
      <trkpt lat="45.68824" lon="6.60302">
        <ele>1728</ele>
        <time>2009-07-04T10:07:48Z</time>
      </trkpt>
      <trkpt lat="45.68811" lon="6.60322">
        <ele>1728</ele>
        <time>2009-07-04T10:07:51Z</time>
      </trkpt>
      <trkpt lat="45.68795" lon="6.60376">
        <ele>1711</ele>
        <time>2009-07-04T10:07:58Z</time>
      </trkpt>
      <trkpt lat="45.68788" lon="6.60389">
        <ele>1734</ele>
        <time>2009-07-04T10:08:00Z</time>
      </trkpt>
      <trkpt lat="45.68753" lon="6.60405">
        <ele>1734</ele>
        <time>2009-07-04T10:08:06Z</time>
      </trkpt>
      <trkpt lat="45.68734" lon="6.60424">
        <ele>1734</ele>
        <time>2009-07-04T10:08:09Z</time>
      </trkpt>
      <trkpt lat="45.68723" lon="6.60447">
        <ele>1734</ele>
        <time>2009-07-04T10:08:12Z</time>
      </trkpt>
      <trkpt lat="45.6871" lon="6.60495">
        <ele>1727</ele>
        <time>2009-07-04T10:08:18Z</time>
      </trkpt>
      <trkpt lat="45.68713" lon="6.60529">
        <ele>1727</ele>
        <time>2009-07-04T10:08:22Z</time>
      </trkpt>
      <trkpt lat="45.68711" lon="6.60554">
        <ele>1720</ele>
        <time>2009-07-04T10:08:25Z</time>
      </trkpt>
      <trkpt lat="45.68704" lon="6.6058">
        <ele>1739</ele>
        <time>2009-07-04T10:08:28Z</time>
      </trkpt>
      <trkpt lat="45.68687" lon="6.60609">
        <ele>1739</ele>
        <time>2009-07-04T10:08:32Z</time>
      </trkpt>
      <trkpt lat="45.68676" lon="6.6064">
        <ele>1729</ele>
        <time>2009-07-04T10:08:36Z</time>
      </trkpt>
      <trkpt lat="45.68654" lon="6.60674">
        <ele>1729</ele>
        <time>2009-07-04T10:08:41Z</time>
      </trkpt>
      <trkpt lat="45.68618" lon="6.60746">
        <ele>1736</ele>
        <time>2009-07-04T10:08:51Z</time>
      </trkpt>
      <trkpt lat="45.68546" lon="6.60829">
        <ele>1722</ele>
        <time>2009-07-04T10:09:06Z</time>
      </trkpt>
      <trkpt lat="45.68526" lon="6.60843">
        <ele>1726</ele>
        <time>2009-07-04T10:09:10Z</time>
      </trkpt>
      <trkpt lat="45.68508" lon="6.60852">
        <ele>1726</ele>
        <time>2009-07-04T10:09:13Z</time>
      </trkpt>
      <trkpt lat="45.68464" lon="6.6084">
        <ele>1726</ele>
        <time>2009-07-04T10:09:20Z</time>
      </trkpt>
      <trkpt lat="45.6845" lon="6.60843">
        <ele>1737</ele>
        <time>2009-07-04T10:09:22Z</time>
      </trkpt>
      <trkpt lat="45.68436" lon="6.60871">
        <ele>1737</ele>
        <time>2009-07-04T10:09:26Z</time>
      </trkpt>
      <trkpt lat="45.68436" lon="6.60948">
        <ele>1721</ele>
        <time>2009-07-04T10:09:34Z</time>
      </trkpt>
      <trkpt lat="45.68408" lon="6.60991">
        <ele>1708</ele>
        <time>2009-07-04T10:09:41Z</time>
      </trkpt>
      <trkpt lat="45.68401" lon="6.60996">
        <ele>1708</ele>
        <time>2009-07-04T10:09:42Z</time>
      </trkpt>
      <trkpt lat="45.6834" lon="6.61002">
        <ele>1715</ele>
        <time>2009-07-04T10:09:52Z</time>
      </trkpt>
      <trkpt lat="45.68316" lon="6.61047">
        <ele>1694</ele>
        <time>2009-07-04T10:09:58Z</time>
      </trkpt>
      <trkpt lat="45.68295" lon="6.61067">
        <ele>1694</ele>
        <time>2009-07-04T10:10:02Z</time>
      </trkpt>
      <trkpt lat="45.68278" lon="6.61094">
        <ele>1707</ele>
        <time>2009-07-04T10:10:07Z</time>
      </trkpt>
      <trkpt lat="45.68205" lon="6.61132">
        <ele>1688</ele>
        <time>2009-07-04T10:10:19Z</time>
      </trkpt>
      <trkpt lat="45.68219" lon="6.61142">
        <ele>1679</ele>
        <time>2009-07-04T10:10:21Z</time>
      </trkpt>
      <trkpt lat="45.68349" lon="6.61163">
        <ele>1678</ele>
        <time>2009-07-04T10:10:42Z</time>
      </trkpt>
      <trkpt lat="45.68406" lon="6.61195">
        <ele>1680</ele>
        <time>2009-07-04T10:10:52Z</time>
      </trkpt>
      <trkpt lat="45.68404" lon="6.61206">
        <ele>1680</ele>
        <time>2009-07-04T10:10:53Z</time>
      </trkpt>
      <trkpt lat="45.68387" lon="6.61215">
        <ele>1659</ele>
        <time>2009-07-04T10:10:56Z</time>
      </trkpt>
      <trkpt lat="45.68325" lon="6.61208">
        <ele>1678</ele>
        <time>2009-07-04T10:11:06Z</time>
      </trkpt>
      <trkpt lat="45.68248" lon="6.6126">
        <ele>1657</ele>
        <time>2009-07-04T10:11:20Z</time>
      </trkpt>
      <trkpt lat="45.68188" lon="6.61277">
        <ele>1661</ele>
        <time>2009-07-04T10:11:30Z</time>
      </trkpt>
      <trkpt lat="45.68183" lon="6.61281">
        <ele>1661</ele>
        <time>2009-07-04T10:11:31Z</time>
      </trkpt>
      <trkpt lat="45.68181" lon="6.6129">
        <ele>1661</ele>
        <time>2009-07-04T10:11:32Z</time>
      </trkpt>
      <trkpt lat="45.68184" lon="6.61296">
        <ele>1638</ele>
        <time>2009-07-04T10:11:33Z</time>
      </trkpt>
      <trkpt lat="45.68196" lon="6.613">
        <ele>1638</ele>
        <time>2009-07-04T10:11:35Z</time>
      </trkpt>
      <trkpt lat="45.68322" lon="6.61314">
        <ele>1626</ele>
        <time>2009-07-04T10:11:55Z</time>
      </trkpt>
      <trkpt lat="45.68336" lon="6.61328">
        <ele>1626</ele>
        <time>2009-07-04T10:11:58Z</time>
      </trkpt>
      <trkpt lat="45.6836" lon="6.61409">
        <ele>1616</ele>
        <time>2009-07-04T10:12:07Z</time>
      </trkpt>
      <trkpt lat="45.68398" lon="6.61489">
        <ele>1614</ele>
        <time>2009-07-04T10:12:18Z</time>
      </trkpt>
      <trkpt lat="45.68401" lon="6.61505">
        <ele>1614</ele>
        <time>2009-07-04T10:12:20Z</time>
      </trkpt>
      <trkpt lat="45.68393" lon="6.61538">
        <ele>1614</ele>
        <time>2009-07-04T10:12:24Z</time>
      </trkpt>
      <trkpt lat="45.68384" lon="6.61548">
        <ele>1613</ele>
        <time>2009-07-04T10:12:26Z</time>
      </trkpt>
      <trkpt lat="45.68369" lon="6.6156">
        <ele>1610</ele>
        <time>2009-07-04T10:12:29Z</time>
      </trkpt>
      <trkpt lat="45.68342" lon="6.61571">
        <ele>1610</ele>
        <time>2009-07-04T10:12:33Z</time>
      </trkpt>
      <trkpt lat="45.6832" lon="6.61574">
        <ele>1610</ele>
        <time>2009-07-04T10:12:37Z</time>
      </trkpt>
      <trkpt lat="45.68304" lon="6.61586">
        <ele>1610</ele>
        <time>2009-07-04T10:12:39Z</time>
      </trkpt>
      <trkpt lat="45.68303" lon="6.61603">
        <ele>1610</ele>
        <time>2009-07-04T10:12:41Z</time>
      </trkpt>
      <trkpt lat="45.68327" lon="6.61644">
        <ele>1591</ele>
        <time>2009-07-04T10:12:47Z</time>
      </trkpt>
      <trkpt lat="45.68327" lon="6.61655">
        <ele>1591</ele>
        <time>2009-07-04T10:12:49Z</time>
      </trkpt>
      <trkpt lat="45.68323" lon="6.6166">
        <ele>1591</ele>
        <time>2009-07-04T10:12:49Z</time>
      </trkpt>
      <trkpt lat="45.6831" lon="6.61655">
        <ele>1591</ele>
        <time>2009-07-04T10:12:52Z</time>
      </trkpt>
      <trkpt lat="45.68268" lon="6.61583">
        <ele>1591</ele>
        <time>2009-07-04T10:13:02Z</time>
      </trkpt>
      <trkpt lat="45.68253" lon="6.61564">
        <ele>1591</ele>
        <time>2009-07-04T10:13:05Z</time>
      </trkpt>
      <trkpt lat="45.68219" lon="6.61536">
        <ele>1595</ele>
        <time>2009-07-04T10:13:12Z</time>
      </trkpt>
      <trkpt lat="45.68129" lon="6.61525">
        <ele>1591</ele>
        <time>2009-07-04T10:13:26Z</time>
      </trkpt>
      <trkpt lat="45.68064" lon="6.61511">
        <ele>1583</ele>
        <time>2009-07-04T10:13:37Z</time>
      </trkpt>
      <trkpt lat="45.68047" lon="6.61512">
        <ele>1583</ele>
        <time>2009-07-04T10:13:39Z</time>
      </trkpt>
      <trkpt lat="45.68046" lon="6.61518">
        <ele>1583</ele>
        <time>2009-07-04T10:13:40Z</time>
      </trkpt>
      <trkpt lat="45.68051" lon="6.61529">
        <ele>1583</ele>
        <time>2009-07-04T10:13:41Z</time>
      </trkpt>
      <trkpt lat="45.68076" lon="6.61534">
        <ele>1583</ele>
        <time>2009-07-04T10:13:45Z</time>
      </trkpt>
      <trkpt lat="45.68121" lon="6.61558">
        <ele>1551</ele>
        <time>2009-07-04T10:13:53Z</time>
      </trkpt>
      <trkpt lat="45.6816" lon="6.61591">
        <ele>1570</ele>
        <time>2009-07-04T10:14:00Z</time>
      </trkpt>
      <trkpt lat="45.68252" lon="6.61689">
        <ele>1570</ele>
        <time>2009-07-04T10:14:19Z</time>
      </trkpt>
      <trkpt lat="45.68277" lon="6.61722">
        <ele>1543</ele>
        <time>2009-07-04T10:14:24Z</time>
      </trkpt>
      <trkpt lat="45.68312" lon="6.61781">
        <ele>1539</ele>
        <time>2009-07-04T10:14:33Z</time>
      </trkpt>
      <trkpt lat="45.68431" lon="6.62026">
        <ele>1498</ele>
        <time>2009-07-04T10:15:06Z</time>
      </trkpt>
      <trkpt lat="45.68549" lon="6.62252">
        <ele>1502</ele>
        <time>2009-07-04T10:15:38Z</time>
      </trkpt>
      <trkpt lat="45.68621" lon="6.6236">
        <ele>1509</ele>
        <time>2009-07-04T10:15:55Z</time>
      </trkpt>
      <trkpt lat="45.68641" lon="6.62382">
        <ele>1520</ele>
        <time>2009-07-04T10:15:59Z</time>
      </trkpt>
      <trkpt lat="45.68717" lon="6.62443">
        <ele>1534</ele>
        <time>2009-07-04T10:16:13Z</time>
      </trkpt>
      <trkpt lat="45.68776" lon="6.62492">
        <ele>1543</ele>
        <time>2009-07-04T10:16:23Z</time>
      </trkpt>
      <trkpt lat="45.6879" lon="6.62509">
        <ele>1543</ele>
        <time>2009-07-04T10:16:26Z</time>
      </trkpt>
      <trkpt lat="45.68873" lon="6.62667">
        <ele>1542</ele>
        <time>2009-07-04T10:16:48Z</time>
      </trkpt>
      <trkpt lat="45.68897" lon="6.6272">
        <ele>1562</ele>
        <time>2009-07-04T10:16:56Z</time>
      </trkpt>
      <trkpt lat="45.69035" lon="6.62889">
        <ele>1538</ele>
        <time>2009-07-04T10:17:25Z</time>
      </trkpt>
      <trkpt lat="45.69173" lon="6.63023">
        <ele>1589</ele>
        <time>2009-07-04T10:17:51Z</time>
      </trkpt>
      <trkpt lat="45.69231" lon="6.63055">
        <ele>1578</ele>
        <time>2009-07-04T10:18:01Z</time>
      </trkpt>
      <trkpt lat="45.69294" lon="6.63077">
        <ele>1604</ele>
        <time>2009-07-04T10:18:12Z</time>
      </trkpt>
      <trkpt lat="45.69306" lon="6.63084">
        <ele>1604</ele>
        <time>2009-07-04T10:18:14Z</time>
      </trkpt>
      <trkpt lat="45.6934" lon="6.6312">
        <ele>1604</ele>
        <time>2009-07-04T10:18:21Z</time>
      </trkpt>
      <trkpt lat="45.69373" lon="6.63131">
        <ele>1591</ele>
        <time>2009-07-04T10:18:26Z</time>
      </trkpt>
      <trkpt lat="45.6938" lon="6.6314">
        <ele>1609</ele>
        <time>2009-07-04T10:18:27Z</time>
      </trkpt>
      <trkpt lat="45.69389" lon="6.63164">
        <ele>1609</ele>
        <time>2009-07-04T10:18:30Z</time>
      </trkpt>
      <trkpt lat="45.69394" lon="6.63249">
        <ele>1607</ele>
        <time>2009-07-04T10:18:40Z</time>
      </trkpt>
      <trkpt lat="45.69401" lon="6.6328">
        <ele>1607</ele>
        <time>2009-07-04T10:18:44Z</time>
      </trkpt>
      <trkpt lat="45.69411" lon="6.63297">
        <ele>1604</ele>
        <time>2009-07-04T10:18:46Z</time>
      </trkpt>
      <trkpt lat="45.69468" lon="6.63348">
        <ele>1615</ele>
        <time>2009-07-04T10:18:57Z</time>
      </trkpt>
      <trkpt lat="45.69483" lon="6.63462">
        <ele>1612</ele>
        <time>2009-07-04T10:19:10Z</time>
      </trkpt>
      <trkpt lat="45.69494" lon="6.63503">
        <ele>1612</ele>
        <time>2009-07-04T10:19:15Z</time>
      </trkpt>
      <trkpt lat="45.69532" lon="6.63586">
        <ele>1591</ele>
        <time>2009-07-04T10:19:26Z</time>
      </trkpt>
      <trkpt lat="45.69585" lon="6.63648">
        <ele>1591</ele>
        <time>2009-07-04T10:19:37Z</time>
      </trkpt>
      <trkpt lat="45.69625" lon="6.63685">
        <ele>1639</ele>
        <time>2009-07-04T10:19:44Z</time>
      </trkpt>
      <trkpt lat="45.69666" lon="6.63762">
        <ele>1605</ele>
        <time>2009-07-04T10:19:55Z</time>
      </trkpt>
      <trkpt lat="45.69691" lon="6.63788">
        <ele>1605</ele>
        <time>2009-07-04T10:20:00Z</time>
      </trkpt>
      <trkpt lat="45.69789" lon="6.63855">
        <ele>1607</ele>
        <time>2009-07-04T10:20:18Z</time>
      </trkpt>
      <trkpt lat="45.69874" lon="6.63967">
        <ele>1578</ele>
        <time>2009-07-04T10:20:36Z</time>
      </trkpt>
      <trkpt lat="45.6991" lon="6.64022">
        <ele>1622</ele>
        <time>2009-07-04T10:20:45Z</time>
      </trkpt>
      <trkpt lat="45.69939" lon="6.64074">
        <ele>1589</ele>
        <time>2009-07-04T10:20:52Z</time>
      </trkpt>
      <trkpt lat="45.70006" lon="6.64217">
        <ele>1595</ele>
        <time>2009-07-04T10:21:11Z</time>
      </trkpt>
      <trkpt lat="45.70015" lon="6.64248">
        <ele>1595</ele>
        <time>2009-07-04T10:21:15Z</time>
      </trkpt>
      <trkpt lat="45.70025" lon="6.64324">
        <ele>1589</ele>
        <time>2009-07-04T10:21:24Z</time>
      </trkpt>
      <trkpt lat="45.70049" lon="6.64365">
        <ele>1620</ele>
        <time>2009-07-04T10:21:30Z</time>
      </trkpt>
      <trkpt lat="45.70061" lon="6.64419">
        <ele>1613</ele>
        <time>2009-07-04T10:21:36Z</time>
      </trkpt>
      <trkpt lat="45.70055" lon="6.64465">
        <ele>1615</ele>
        <time>2009-07-04T10:21:41Z</time>
      </trkpt>
      <trkpt lat="45.70039" lon="6.64494">
        <ele>1600</ele>
        <time>2009-07-04T10:21:45Z</time>
      </trkpt>
      <trkpt lat="45.70026" lon="6.64512">
        <ele>1600</ele>
        <time>2009-07-04T10:21:48Z</time>
      </trkpt>
      <trkpt lat="45.69985" lon="6.64539">
        <ele>1600</ele>
        <time>2009-07-04T10:21:55Z</time>
      </trkpt>
      <trkpt lat="45.69967" lon="6.64568">
        <ele>1607</ele>
        <time>2009-07-04T10:22:00Z</time>
      </trkpt>
      <trkpt lat="45.69965" lon="6.64586">
        <ele>1607</ele>
        <time>2009-07-04T10:22:02Z</time>
      </trkpt>
      <trkpt lat="45.6997" lon="6.64614">
        <ele>1607</ele>
        <time>2009-07-04T10:22:05Z</time>
      </trkpt>
      <trkpt lat="45.69997" lon="6.64697">
        <ele>1607</ele>
        <time>2009-07-04T10:22:15Z</time>
      </trkpt>
      <trkpt lat="45.70028" lon="6.64758">
        <ele>1595</ele>
        <time>2009-07-04T10:22:24Z</time>
      </trkpt>
      <trkpt lat="45.7006" lon="6.64795">
        <ele>1613</ele>
        <time>2009-07-04T10:22:30Z</time>
      </trkpt>
      <trkpt lat="45.70087" lon="6.64843">
        <ele>1613</ele>
        <time>2009-07-04T10:22:37Z</time>
      </trkpt>
      <trkpt lat="45.70096" lon="6.64878">
        <ele>1605</ele>
        <time>2009-07-04T10:22:41Z</time>
      </trkpt>
      <trkpt lat="45.70096" lon="6.64915">
        <ele>1605</ele>
        <time>2009-07-04T10:22:46Z</time>
      </trkpt>
      <trkpt lat="45.70057" lon="6.64981">
        <ele>1613</ele>
        <time>2009-07-04T10:22:55Z</time>
      </trkpt>
      <trkpt lat="45.70021" lon="6.65021">
        <ele>1598</ele>
        <time>2009-07-04T10:23:03Z</time>
      </trkpt>
      <trkpt lat="45.70013" lon="6.65038">
        <ele>1598</ele>
        <time>2009-07-04T10:23:05Z</time>
      </trkpt>
      <trkpt lat="45.70009" lon="6.65059">
        <ele>1594</ele>
        <time>2009-07-04T10:23:07Z</time>
      </trkpt>
      <trkpt lat="45.70018" lon="6.65127">
        <ele>1588</ele>
        <time>2009-07-04T10:23:15Z</time>
      </trkpt>
      <trkpt lat="45.70017" lon="6.65206">
        <ele>1588</ele>
        <time>2009-07-04T10:23:24Z</time>
      </trkpt>
      <trkpt lat="45.70026" lon="6.65284">
        <ele>1586</ele>
        <time>2009-07-04T10:23:33Z</time>
      </trkpt>
      <trkpt lat="45.70023" lon="6.65312">
        <ele>1588</ele>
        <time>2009-07-04T10:23:36Z</time>
      </trkpt>
      <trkpt lat="45.70005" lon="6.6536">
        <ele>1588</ele>
        <time>2009-07-04T10:23:42Z</time>
      </trkpt>
      <trkpt lat="45.69971" lon="6.65411">
        <ele>1595</ele>
        <time>2009-07-04T10:23:50Z</time>
      </trkpt>
      <trkpt lat="45.69949" lon="6.65484">
        <ele>1584</ele>
        <time>2009-07-04T10:23:59Z</time>
      </trkpt>
      <trkpt lat="45.6994" lon="6.65497">
        <ele>1584</ele>
        <time>2009-07-04T10:24:01Z</time>
      </trkpt>
      <trkpt lat="45.69924" lon="6.6551">
        <ele>1584</ele>
        <time>2009-07-04T10:24:04Z</time>
      </trkpt>
      <trkpt lat="45.69865" lon="6.6554">
        <ele>1578</ele>
        <time>2009-07-04T10:24:14Z</time>
      </trkpt>
      <trkpt lat="45.69797" lon="6.65601">
        <ele>1586</ele>
        <time>2009-07-04T10:24:27Z</time>
      </trkpt>
      <trkpt lat="45.69768" lon="6.65617">
        <ele>1588</ele>
        <time>2009-07-04T10:24:32Z</time>
      </trkpt>
      <trkpt lat="45.6973" lon="6.65625">
        <ele>1607</ele>
        <time>2009-07-04T10:24:38Z</time>
      </trkpt>
      <trkpt lat="45.69664" lon="6.65608">
        <ele>1601</ele>
        <time>2009-07-04T10:24:48Z</time>
      </trkpt>
      <trkpt lat="45.69563" lon="6.65562">
        <ele>1618</ele>
        <time>2009-07-04T10:25:05Z</time>
      </trkpt>
      <trkpt lat="45.69497" lon="6.65546">
        <ele>1624</ele>
        <time>2009-07-04T10:25:16Z</time>
      </trkpt>
      <trkpt lat="45.69452" lon="6.65544">
        <ele>1635</ele>
        <time>2009-07-04T10:25:23Z</time>
      </trkpt>
      <trkpt lat="45.69442" lon="6.65557">
        <ele>1635</ele>
        <time>2009-07-04T10:25:26Z</time>
      </trkpt>
      <trkpt lat="45.69436" lon="6.65574">
        <ele>1635</ele>
        <time>2009-07-04T10:25:28Z</time>
      </trkpt>
      <trkpt lat="45.69434" lon="6.65601">
        <ele>1635</ele>
        <time>2009-07-04T10:25:31Z</time>
      </trkpt>
      <trkpt lat="45.69437" lon="6.65624">
        <ele>1635</ele>
        <time>2009-07-04T10:25:33Z</time>
      </trkpt>
      <trkpt lat="45.69451" lon="6.65659">
        <ele>1645</ele>
        <time>2009-07-04T10:25:38Z</time>
      </trkpt>
      <trkpt lat="45.69462" lon="6.65672">
        <ele>1633</ele>
        <time>2009-07-04T10:25:40Z</time>
      </trkpt>
      <trkpt lat="45.69474" lon="6.65676">
        <ele>1633</ele>
        <time>2009-07-04T10:25:42Z</time>
      </trkpt>
      <trkpt lat="45.69537" lon="6.65677">
        <ele>1633</ele>
        <time>2009-07-04T10:25:52Z</time>
      </trkpt>
      <trkpt lat="45.69579" lon="6.65687">
        <ele>1637</ele>
        <time>2009-07-04T10:25:59Z</time>
      </trkpt>
      <trkpt lat="45.69597" lon="6.6571">
        <ele>1643</ele>
        <time>2009-07-04T10:26:03Z</time>
      </trkpt>
      <trkpt lat="45.69602" lon="6.65729">
        <ele>1643</ele>
        <time>2009-07-04T10:26:05Z</time>
      </trkpt>
      <trkpt lat="45.696" lon="6.65766">
        <ele>1643</ele>
        <time>2009-07-04T10:26:09Z</time>
      </trkpt>
      <trkpt lat="45.69587" lon="6.65786">
        <ele>1643</ele>
        <time>2009-07-04T10:26:12Z</time>
      </trkpt>
      <trkpt lat="45.69565" lon="6.65797">
        <ele>1660</ele>
        <time>2009-07-04T10:26:16Z</time>
      </trkpt>
      <trkpt lat="45.69516" lon="6.65795">
        <ele>1681</ele>
        <time>2009-07-04T10:26:24Z</time>
      </trkpt>
      <trkpt lat="45.69421" lon="6.65768">
        <ele>1682</ele>
        <time>2009-07-04T10:26:39Z</time>
      </trkpt>
      <trkpt lat="45.69416" lon="6.65763">
        <ele>1682</ele>
        <time>2009-07-04T10:26:40Z</time>
      </trkpt>
      <trkpt lat="45.69394" lon="6.65705">
        <ele>1645</ele>
        <time>2009-07-04T10:26:48Z</time>
      </trkpt>
      <trkpt lat="45.69386" lon="6.65693">
        <ele>1645</ele>
        <time>2009-07-04T10:26:50Z</time>
      </trkpt>
      <trkpt lat="45.69252" lon="6.65546">
        <ele>1694</ele>
        <time>2009-07-04T10:27:17Z</time>
      </trkpt>
      <trkpt lat="45.69187" lon="6.65447">
        <ele>1687</ele>
        <time>2009-07-04T10:27:32Z</time>
      </trkpt>
      <trkpt lat="45.69123" lon="6.6537">
        <ele>1685</ele>
        <time>2009-07-04T10:27:45Z</time>
      </trkpt>
      <trkpt lat="45.69106" lon="6.65358">
        <ele>1685</ele>
        <time>2009-07-04T10:27:48Z</time>
      </trkpt>
      <trkpt lat="45.69099" lon="6.65364">
        <ele>1685</ele>
        <time>2009-07-04T10:27:50Z</time>
      </trkpt>
      <trkpt lat="45.691" lon="6.65378">
        <ele>1714</ele>
        <time>2009-07-04T10:27:51Z</time>
      </trkpt>
      <trkpt lat="45.6917" lon="6.6548">
        <ele>1711</ele>
        <time>2009-07-04T10:28:07Z</time>
      </trkpt>
      <trkpt lat="45.69185" lon="6.65512">
        <ele>1711</ele>
        <time>2009-07-04T10:28:11Z</time>
      </trkpt>
      <trkpt lat="45.69213" lon="6.65596">
        <ele>1694</ele>
        <time>2009-07-04T10:28:22Z</time>
      </trkpt>
      <trkpt lat="45.69227" lon="6.65627">
        <ele>1724</ele>
        <time>2009-07-04T10:28:26Z</time>
      </trkpt>
      <trkpt lat="45.69296" lon="6.65724">
        <ele>1715</ele>
        <time>2009-07-04T10:28:41Z</time>
      </trkpt>
      <trkpt lat="45.69313" lon="6.65772">
        <ele>1715</ele>
        <time>2009-07-04T10:28:47Z</time>
      </trkpt>
      <trkpt lat="45.69343" lon="6.65799">
        <ele>1747</ele>
        <time>2009-07-04T10:28:53Z</time>
      </trkpt>
      <trkpt lat="45.69365" lon="6.65826">
        <ele>1747</ele>
        <time>2009-07-04T10:28:58Z</time>
      </trkpt>
      <trkpt lat="45.69396" lon="6.65888">
        <ele>1743</ele>
        <time>2009-07-04T10:29:06Z</time>
      </trkpt>
      <trkpt lat="45.69416" lon="6.65917">
        <ele>1743</ele>
        <time>2009-07-04T10:29:11Z</time>
      </trkpt>
      <trkpt lat="45.69437" lon="6.65942">
        <ele>1743</ele>
        <time>2009-07-04T10:29:15Z</time>
      </trkpt>
      <trkpt lat="45.69504" lon="6.66002">
        <ele>1749</ele>
        <time>2009-07-04T10:29:28Z</time>
      </trkpt>
      <trkpt lat="45.69538" lon="6.66046">
        <ele>1782</ele>
        <time>2009-07-04T10:29:35Z</time>
      </trkpt>
      <trkpt lat="45.69568" lon="6.66094">
        <ele>1746</ele>
        <time>2009-07-04T10:29:42Z</time>
      </trkpt>
      <trkpt lat="45.69607" lon="6.66177">
        <ele>1776</ele>
        <time>2009-07-04T10:29:54Z</time>
      </trkpt>
      <trkpt lat="45.69618" lon="6.66217">
        <ele>1812</ele>
        <time>2009-07-04T10:29:58Z</time>
      </trkpt>
      <trkpt lat="45.69633" lon="6.66307">
        <ele>1726</ele>
        <time>2009-07-04T10:30:09Z</time>
      </trkpt>
      <trkpt lat="45.69633" lon="6.66342">
        <ele>1726</ele>
        <time>2009-07-04T10:30:13Z</time>
      </trkpt>
      <trkpt lat="45.6963" lon="6.66365">
        <ele>1726</ele>
        <time>2009-07-04T10:30:15Z</time>
      </trkpt>
      <trkpt lat="45.69599" lon="6.66406">
        <ele>1803</ele>
        <time>2009-07-04T10:30:22Z</time>
      </trkpt>
      <trkpt lat="45.6957" lon="6.66482">
        <ele>1788</ele>
        <time>2009-07-04T10:30:32Z</time>
      </trkpt>
      <trkpt lat="45.69561" lon="6.66491">
        <ele>1788</ele>
        <time>2009-07-04T10:30:34Z</time>
      </trkpt>
      <trkpt lat="45.69533" lon="6.66495">
        <ele>1798</ele>
        <time>2009-07-04T10:30:38Z</time>
      </trkpt>
      <trkpt lat="45.69486" lon="6.66478">
        <ele>1798</ele>
        <time>2009-07-04T10:30:46Z</time>
      </trkpt>
      <trkpt lat="45.69465" lon="6.66478">
        <ele>1798</ele>
        <time>2009-07-04T10:30:49Z</time>
      </trkpt>
      <trkpt lat="45.69441" lon="6.66487">
        <ele>1807</ele>
        <time>2009-07-04T10:30:53Z</time>
      </trkpt>
      <trkpt lat="45.69387" lon="6.66536">
        <ele>1807</ele>
        <time>2009-07-04T10:31:03Z</time>
      </trkpt>
      <trkpt lat="45.69379" lon="6.66553">
        <ele>1791</ele>
        <time>2009-07-04T10:31:06Z</time>
      </trkpt>
      <trkpt lat="45.6936" lon="6.66628">
        <ele>1818</ele>
        <time>2009-07-04T10:31:15Z</time>
      </trkpt>
      <trkpt lat="45.69357" lon="6.66714">
        <ele>1817</ele>
        <time>2009-07-04T10:31:24Z</time>
      </trkpt>
      <trkpt lat="45.69344" lon="6.66825">
        <ele>1816</ele>
        <time>2009-07-04T10:31:37Z</time>
      </trkpt>
      <trkpt lat="45.69299" lon="6.67007">
        <ele>1816</ele>
        <time>2009-07-04T10:31:58Z</time>
      </trkpt>
      <trkpt lat="45.69273" lon="6.67058">
        <ele>1828</ele>
        <time>2009-07-04T10:32:05Z</time>
      </trkpt>
      <trkpt lat="45.69236" lon="6.67168">
        <ele>1827</ele>
        <time>2009-07-04T10:32:19Z</time>
      </trkpt>
      <trkpt lat="45.69173" lon="6.67262">
        <ele>1839</ele>
        <time>2009-07-04T10:32:34Z</time>
      </trkpt>
      <trkpt lat="45.69129" lon="6.673">
        <ele>1834</ele>
        <time>2009-07-04T10:32:42Z</time>
      </trkpt>
      <trkpt lat="45.691" lon="6.67424">
        <ele>1853</ele>
        <time>2009-07-04T10:32:57Z</time>
      </trkpt>
      <trkpt lat="45.69088" lon="6.67461">
        <ele>1855</ele>
        <time>2009-07-04T10:33:01Z</time>
      </trkpt>
      <trkpt lat="45.69085" lon="6.67488">
        <ele>1855</ele>
        <time>2009-07-04T10:33:04Z</time>
      </trkpt>
      <trkpt lat="45.69086" lon="6.67529">
        <ele>1855</ele>
        <time>2009-07-04T10:33:09Z</time>
      </trkpt>
      <trkpt lat="45.69093" lon="6.67584">
        <ele>1864</ele>
        <time>2009-07-04T10:33:15Z</time>
      </trkpt>
      <trkpt lat="45.6911" lon="6.67677">
        <ele>1872</ele>
        <time>2009-07-04T10:33:26Z</time>
      </trkpt>
      <trkpt lat="45.69126" lon="6.67722">
        <ele>1857</ele>
        <time>2009-07-04T10:33:31Z</time>
      </trkpt>
      <trkpt lat="45.69144" lon="6.67748">
        <ele>1857</ele>
        <time>2009-07-04T10:33:35Z</time>
      </trkpt>
      <trkpt lat="45.69192" lon="6.67838">
        <ele>1878</ele>
        <time>2009-07-04T10:33:48Z</time>
      </trkpt>
      <trkpt lat="45.6922" lon="6.67902">
        <ele>1875</ele>
        <time>2009-07-04T10:33:57Z</time>
      </trkpt>
      <trkpt lat="45.69228" lon="6.67912">
        <ele>1875</ele>
        <time>2009-07-04T10:33:58Z</time>
      </trkpt>
      <trkpt lat="45.69261" lon="6.67924">
        <ele>1875</ele>
        <time>2009-07-04T10:34:04Z</time>
      </trkpt>
      <trkpt lat="45.6929" lon="6.67948">
        <ele>1875</ele>
        <time>2009-07-04T10:34:09Z</time>
      </trkpt>
      <trkpt lat="45.693" lon="6.67968">
        <ele>1874</ele>
        <time>2009-07-04T10:34:12Z</time>
      </trkpt>
      <trkpt lat="45.69309" lon="6.68">
        <ele>1874</ele>
        <time>2009-07-04T10:34:16Z</time>
      </trkpt>
      <trkpt lat="45.69322" lon="6.68092">
        <ele>1889</ele>
        <time>2009-07-04T10:34:26Z</time>
      </trkpt>
      <trkpt lat="45.69328" lon="6.68113">
        <ele>1889</ele>
        <time>2009-07-04T10:34:29Z</time>
      </trkpt>
      <trkpt lat="45.69351" lon="6.68155">
        <ele>1901</ele>
        <time>2009-07-04T10:34:35Z</time>
      </trkpt>
      <trkpt lat="45.69374" lon="6.68181">
        <ele>1901</ele>
        <time>2009-07-04T10:34:39Z</time>
      </trkpt>
      <trkpt lat="45.69427" lon="6.68225">
        <ele>1901</ele>
        <time>2009-07-04T10:34:49Z</time>
      </trkpt>
      <trkpt lat="45.69431" lon="6.68232">
        <ele>1901</ele>
        <time>2009-07-04T10:34:50Z</time>
      </trkpt>
      <trkpt lat="45.69427" lon="6.68257">
        <ele>1901</ele>
        <time>2009-07-04T10:34:53Z</time>
      </trkpt>
      <trkpt lat="45.69415" lon="6.68261">
        <ele>1901</ele>
        <time>2009-07-04T10:34:55Z</time>
      </trkpt>
      <trkpt lat="45.69283" lon="6.68187">
        <ele>1916</ele>
        <time>2009-07-04T10:35:18Z</time>
      </trkpt>
      <trkpt lat="45.69241" lon="6.68139">
        <ele>1916</ele>
        <time>2009-07-04T10:35:26Z</time>
      </trkpt>
      <trkpt lat="45.69136" lon="6.68002">
        <ele>1908</ele>
        <time>2009-07-04T10:35:49Z</time>
      </trkpt>
      <trkpt lat="45.69125" lon="6.67994">
        <ele>1924</ele>
        <time>2009-07-04T10:35:51Z</time>
      </trkpt>
      <trkpt lat="45.69096" lon="6.67985">
        <ele>1924</ele>
        <time>2009-07-04T10:35:56Z</time>
      </trkpt>
      <trkpt lat="45.69079" lon="6.67985">
        <ele>1924</ele>
        <time>2009-07-04T10:35:59Z</time>
      </trkpt>
      <trkpt lat="45.69038" lon="6.68004">
        <ele>1930</ele>
        <time>2009-07-04T10:36:05Z</time>
      </trkpt>
      <trkpt lat="45.69021" lon="6.68024">
        <ele>1930</ele>
        <time>2009-07-04T10:36:09Z</time>
      </trkpt>
      <trkpt lat="45.69009" lon="6.68049">
        <ele>1937</ele>
        <time>2009-07-04T10:36:12Z</time>
      </trkpt>
      <trkpt lat="45.69" lon="6.6811">
        <ele>1937</ele>
        <time>2009-07-04T10:36:19Z</time>
      </trkpt>
      <trkpt lat="45.69004" lon="6.68133">
        <ele>1940</ele>
        <time>2009-07-04T10:36:22Z</time>
      </trkpt>
      <trkpt lat="45.69018" lon="6.68169">
        <ele>1940</ele>
        <time>2009-07-04T10:36:27Z</time>
      </trkpt>
      <trkpt lat="45.69037" lon="6.68192">
        <ele>1940</ele>
        <time>2009-07-04T10:36:31Z</time>
      </trkpt>
      <trkpt lat="45.69074" lon="6.68218">
        <ele>1942</ele>
        <time>2009-07-04T10:36:37Z</time>
      </trkpt>
      <trkpt lat="45.69094" lon="6.6824">
        <ele>1942</ele>
        <time>2009-07-04T10:36:41Z</time>
      </trkpt>
      <trkpt lat="45.69117" lon="6.68309">
        <ele>1944</ele>
        <time>2009-07-04T10:36:50Z</time>
      </trkpt>
      <trkpt lat="45.69155" lon="6.68372">
        <ele>1949</ele>
        <time>2009-07-04T10:36:59Z</time>
      </trkpt>
      <trkpt lat="45.69157" lon="6.68383">
        <ele>1953</ele>
        <time>2009-07-04T10:37:00Z</time>
      </trkpt>
      <trkpt lat="45.69155" lon="6.68417">
        <ele>1953</ele>
        <time>2009-07-04T10:37:04Z</time>
      </trkpt>
      <trkpt lat="45.6913" lon="6.68465">
        <ele>1960</ele>
        <time>2009-07-04T10:37:11Z</time>
      </trkpt>
      <trkpt lat="45.69124" lon="6.68492">
        <ele>1948</ele>
        <time>2009-07-04T10:37:14Z</time>
      </trkpt>
      <trkpt lat="45.69119" lon="6.68592">
        <ele>1949</ele>
        <time>2009-07-04T10:37:25Z</time>
      </trkpt>
      <trkpt lat="45.69109" lon="6.68665">
        <ele>1954</ele>
        <time>2009-07-04T10:37:34Z</time>
      </trkpt>
      <trkpt lat="45.69124" lon="6.68705">
        <ele>1954</ele>
        <time>2009-07-04T10:37:39Z</time>
      </trkpt>
      <trkpt lat="45.69142" lon="6.68733">
        <ele>1967</ele>
        <time>2009-07-04T10:37:43Z</time>
      </trkpt>
      <trkpt lat="45.6915" lon="6.68768">
        <ele>1967</ele>
        <time>2009-07-04T10:37:47Z</time>
      </trkpt>
      <trkpt lat="45.69138" lon="6.68812">
        <ele>1972</ele>
        <time>2009-07-04T10:37:52Z</time>
      </trkpt>
      <trkpt lat="45.69138" lon="6.68869">
        <ele>1972</ele>
        <time>2009-07-04T10:37:59Z</time>
      </trkpt>
      <trkpt lat="45.69125" lon="6.6892">
        <ele>1959</ele>
        <time>2009-07-04T10:38:05Z</time>
      </trkpt>
      <trkpt lat="45.69121" lon="6.68965">
        <ele>1968</ele>
        <time>2009-07-04T10:38:10Z</time>
      </trkpt>
      <trkpt lat="45.69122" lon="6.68997">
        <ele>1968</ele>
        <time>2009-07-04T10:38:13Z</time>
      </trkpt>
      <trkpt lat="45.6914" lon="6.69113">
        <ele>1970</ele>
        <time>2009-07-04T10:38:27Z</time>
      </trkpt>
      <trkpt lat="45.69159" lon="6.69178">
        <ele>1965</ele>
        <time>2009-07-04T10:38:35Z</time>
      </trkpt>
      <trkpt lat="45.69168" lon="6.69199">
        <ele>1965</ele>
        <time>2009-07-04T10:38:37Z</time>
      </trkpt>
      <trkpt lat="45.6919" lon="6.69226">
        <ele>1967</ele>
        <time>2009-07-04T10:38:42Z</time>
      </trkpt>
      <trkpt lat="45.69215" lon="6.69246">
        <ele>1955</ele>
        <time>2009-07-04T10:38:47Z</time>
      </trkpt>
      <trkpt lat="45.6931" lon="6.69258">
        <ele>1958</ele>
        <time>2009-07-04T10:39:02Z</time>
      </trkpt>
      <trkpt lat="45.69333" lon="6.69266">
        <ele>1958</ele>
        <time>2009-07-04T10:39:06Z</time>
      </trkpt>
      <trkpt lat="45.69367" lon="6.69327">
        <ele>1944</ele>
        <time>2009-07-04T10:39:14Z</time>
      </trkpt>
      <trkpt lat="45.69389" lon="6.69404">
        <ele>1952</ele>
        <time>2009-07-04T10:39:24Z</time>
      </trkpt>
      <trkpt lat="45.69393" lon="6.69454">
        <ele>1952</ele>
        <time>2009-07-04T10:39:29Z</time>
      </trkpt>
      <trkpt lat="45.69388" lon="6.69553">
        <ele>1928</ele>
        <time>2009-07-04T10:39:40Z</time>
      </trkpt>
      <trkpt lat="45.69366" lon="6.69691">
        <ele>1914</ele>
        <time>2009-07-04T10:39:56Z</time>
      </trkpt>
      <trkpt lat="45.69341" lon="6.69778">
        <ele>1914</ele>
        <time>2009-07-04T10:40:07Z</time>
      </trkpt>
      <trkpt lat="45.69318" lon="6.69835">
        <ele>1914</ele>
        <time>2009-07-04T10:40:14Z</time>
      </trkpt>
      <trkpt lat="45.69226" lon="6.70028">
        <ele>1904</ele>
        <time>2009-07-04T10:40:40Z</time>
      </trkpt>
      <trkpt lat="45.69222" lon="6.70041">
        <ele>1904</ele>
        <time>2009-07-04T10:40:42Z</time>
      </trkpt>
      <trkpt lat="45.69216" lon="6.70108">
        <ele>1906</ele>
        <time>2009-07-04T10:40:49Z</time>
      </trkpt>
      <trkpt lat="45.69218" lon="6.70145">
        <ele>1901</ele>
        <time>2009-07-04T10:40:54Z</time>
      </trkpt>
      <trkpt lat="45.6923" lon="6.70204">
        <ele>1901</ele>
        <time>2009-07-04T10:41:00Z</time>
      </trkpt>
      <trkpt lat="45.69301" lon="6.70505">
        <ele>1880</ele>
        <time>2009-07-04T10:41:36Z</time>
      </trkpt>
      <trkpt lat="45.69321" lon="6.70657">
        <ele>1867</ele>
        <time>2009-07-04T10:41:53Z</time>
      </trkpt>
      <trkpt lat="45.69362" lon="6.71053">
        <ele>1833</ele>
        <time>2009-07-04T10:42:38Z</time>
      </trkpt>
      <trkpt lat="45.69388" lon="6.71241">
        <ele>1829</ele>
        <time>2009-07-04T10:42:59Z</time>
      </trkpt>
      <trkpt lat="45.69401" lon="6.71294">
        <ele>1826</ele>
        <time>2009-07-04T10:43:06Z</time>
      </trkpt>
      <trkpt lat="45.69438" lon="6.71398">
        <ele>1820</ele>
        <time>2009-07-04T10:43:19Z</time>
      </trkpt>
      <trkpt lat="45.69452" lon="6.71454">
        <ele>1820</ele>
        <time>2009-07-04T10:43:25Z</time>
      </trkpt>
      <trkpt lat="45.69455" lon="6.71523">
        <ele>1811</ele>
        <time>2009-07-04T10:43:33Z</time>
      </trkpt>
      <trkpt lat="45.69436" lon="6.71589">
        <ele>1806</ele>
        <time>2009-07-04T10:43:41Z</time>
      </trkpt>
      <trkpt lat="45.69435" lon="6.71614">
        <ele>1806</ele>
        <time>2009-07-04T10:43:44Z</time>
      </trkpt>
      <trkpt lat="45.6944" lon="6.71635">
        <ele>1798</ele>
        <time>2009-07-04T10:43:46Z</time>
      </trkpt>
      <trkpt lat="45.69453" lon="6.7166">
        <ele>1798</ele>
        <time>2009-07-04T10:43:50Z</time>
      </trkpt>
      <trkpt lat="45.6947" lon="6.71677">
        <ele>1803</ele>
        <time>2009-07-04T10:43:53Z</time>
      </trkpt>
      <trkpt lat="45.69502" lon="6.71677">
        <ele>1803</ele>
        <time>2009-07-04T10:43:58Z</time>
      </trkpt>
      <trkpt lat="45.69562" lon="6.71652">
        <ele>1802</ele>
        <time>2009-07-04T10:44:08Z</time>
      </trkpt>
      <trkpt lat="45.69582" lon="6.71655">
        <ele>1802</ele>
        <time>2009-07-04T10:44:12Z</time>
      </trkpt>
      <trkpt lat="45.69592" lon="6.71676">
        <ele>1802</ele>
        <time>2009-07-04T10:44:14Z</time>
      </trkpt>
      <trkpt lat="45.69591" lon="6.71693">
        <ele>1802</ele>
        <time>2009-07-04T10:44:16Z</time>
      </trkpt>
      <trkpt lat="45.69573" lon="6.71756">
        <ele>1802</ele>
        <time>2009-07-04T10:44:24Z</time>
      </trkpt>
      <trkpt lat="45.6957" lon="6.71784">
        <ele>1802</ele>
        <time>2009-07-04T10:44:27Z</time>
      </trkpt>
      <trkpt lat="45.69575" lon="6.71821">
        <ele>1792</ele>
        <time>2009-07-04T10:44:31Z</time>
      </trkpt>
      <trkpt lat="45.69584" lon="6.71844">
        <ele>1792</ele>
        <time>2009-07-04T10:44:34Z</time>
      </trkpt>
      <trkpt lat="45.69609" lon="6.7188">
        <ele>1782</ele>
        <time>2009-07-04T10:44:40Z</time>
      </trkpt>
      <trkpt lat="45.69635" lon="6.719">
        <ele>1787</ele>
        <time>2009-07-04T10:44:45Z</time>
      </trkpt>
      <trkpt lat="45.69706" lon="6.71934">
        <ele>1787</ele>
        <time>2009-07-04T10:44:57Z</time>
      </trkpt>
      <trkpt lat="45.69728" lon="6.71958">
        <ele>1804</ele>
        <time>2009-07-04T10:45:01Z</time>
      </trkpt>
      <trkpt lat="45.69743" lon="6.72013">
        <ele>1784</ele>
        <time>2009-07-04T10:45:08Z</time>
      </trkpt>
      <trkpt lat="45.69748" lon="6.72066">
        <ele>1782</ele>
        <time>2009-07-04T10:45:14Z</time>
      </trkpt>
      <trkpt lat="45.69731" lon="6.72136">
        <ele>1778</ele>
        <time>2009-07-04T10:45:22Z</time>
      </trkpt>
      <trkpt lat="45.69732" lon="6.72164">
        <ele>1778</ele>
        <time>2009-07-04T10:45:25Z</time>
      </trkpt>
      <trkpt lat="45.6977" lon="6.72226">
        <ele>1771</ele>
        <time>2009-07-04T10:45:34Z</time>
      </trkpt>
      <trkpt lat="45.69777" lon="6.72272">
        <ele>1771</ele>
        <time>2009-07-04T10:45:40Z</time>
      </trkpt>
      <trkpt lat="45.69774" lon="6.72293">
        <ele>1771</ele>
        <time>2009-07-04T10:45:42Z</time>
      </trkpt>
      <trkpt lat="45.69742" lon="6.72359">
        <ele>1771</ele>
        <time>2009-07-04T10:45:51Z</time>
      </trkpt>
      <trkpt lat="45.69739" lon="6.72397">
        <ele>1767</ele>
        <time>2009-07-04T10:45:55Z</time>
      </trkpt>
      <trkpt lat="45.69754" lon="6.72431">
        <ele>1767</ele>
        <time>2009-07-04T10:46:00Z</time>
      </trkpt>
      <trkpt lat="45.6981" lon="6.7249">
        <ele>1769</ele>
        <time>2009-07-04T10:46:11Z</time>
      </trkpt>
      <trkpt lat="45.69816" lon="6.72519">
        <ele>1769</ele>
        <time>2009-07-04T10:46:14Z</time>
      </trkpt>
      <trkpt lat="45.69813" lon="6.72535">
        <ele>1769</ele>
        <time>2009-07-04T10:46:16Z</time>
      </trkpt>
      <trkpt lat="45.69805" lon="6.72544">
        <ele>1752</ele>
        <time>2009-07-04T10:46:18Z</time>
      </trkpt>
      <trkpt lat="45.69789" lon="6.72549">
        <ele>1741</ele>
        <time>2009-07-04T10:46:20Z</time>
      </trkpt>
      <trkpt lat="45.69746" lon="6.72542">
        <ele>1741</ele>
        <time>2009-07-04T10:46:27Z</time>
      </trkpt>
      <trkpt lat="45.69728" lon="6.72531">
        <ele>1758</ele>
        <time>2009-07-04T10:46:30Z</time>
      </trkpt>
      <trkpt lat="45.69705" lon="6.72495">
        <ele>1733</ele>
        <time>2009-07-04T10:46:36Z</time>
      </trkpt>
      <trkpt lat="45.69643" lon="6.72321">
        <ele>1749</ele>
        <time>2009-07-04T10:46:58Z</time>
      </trkpt>
      <trkpt lat="45.69616" lon="6.72281">
        <ele>1725</ele>
        <time>2009-07-04T10:47:04Z</time>
      </trkpt>
      <trkpt lat="45.696" lon="6.7228">
        <ele>1725</ele>
        <time>2009-07-04T10:47:07Z</time>
      </trkpt>
      <trkpt lat="45.696" lon="6.72313">
        <ele>1721</ele>
        <time>2009-07-04T10:47:10Z</time>
      </trkpt>
      <trkpt lat="45.69615" lon="6.72368">
        <ele>1721</ele>
        <time>2009-07-04T10:47:17Z</time>
      </trkpt>
      <trkpt lat="45.69618" lon="6.72545">
        <ele>1694</ele>
        <time>2009-07-04T10:47:37Z</time>
      </trkpt>
      <trkpt lat="45.69629" lon="6.7262">
        <ele>1716</ele>
        <time>2009-07-04T10:47:45Z</time>
      </trkpt>
      <trkpt lat="45.69642" lon="6.72677">
        <ele>1707</ele>
        <time>2009-07-04T10:47:52Z</time>
      </trkpt>
      <trkpt lat="45.69634" lon="6.72694">
        <ele>1707</ele>
        <time>2009-07-04T10:47:54Z</time>
      </trkpt>
      <trkpt lat="45.6962" lon="6.72694">
        <ele>1683</ele>
        <time>2009-07-04T10:47:56Z</time>
      </trkpt>
      <trkpt lat="45.69596" lon="6.7259">
        <ele>1694</ele>
        <time>2009-07-04T10:48:09Z</time>
      </trkpt>
      <trkpt lat="45.69554" lon="6.72512">
        <ele>1707</ele>
        <time>2009-07-04T10:48:20Z</time>
      </trkpt>
      <trkpt lat="45.69536" lon="6.72466">
        <ele>1673</ele>
        <time>2009-07-04T10:48:26Z</time>
      </trkpt>
      <trkpt lat="45.69533" lon="6.72421">
        <ele>1684</ele>
        <time>2009-07-04T10:48:31Z</time>
      </trkpt>
      <trkpt lat="45.69545" lon="6.72347">
        <ele>1721</ele>
        <time>2009-07-04T10:48:39Z</time>
      </trkpt>
      <trkpt lat="45.69544" lon="6.72313">
        <ele>1721</ele>
        <time>2009-07-04T10:48:43Z</time>
      </trkpt>
      <trkpt lat="45.69539" lon="6.72289">
        <ele>1695</ele>
        <time>2009-07-04T10:48:46Z</time>
      </trkpt>
      <trkpt lat="45.69528" lon="6.7226">
        <ele>1695</ele>
        <time>2009-07-04T10:48:49Z</time>
      </trkpt>
      <trkpt lat="45.69504" lon="6.72225">
        <ele>1695</ele>
        <time>2009-07-04T10:48:55Z</time>
      </trkpt>
      <trkpt lat="45.69492" lon="6.72219">
        <ele>1695</ele>
        <time>2009-07-04T10:48:57Z</time>
      </trkpt>
      <trkpt lat="45.69477" lon="6.72224">
        <ele>1695</ele>
        <time>2009-07-04T10:48:59Z</time>
      </trkpt>
      <trkpt lat="45.69461" lon="6.72242">
        <ele>1695</ele>
        <time>2009-07-04T10:49:03Z</time>
      </trkpt>
      <trkpt lat="45.69436" lon="6.72283">
        <ele>1689</ele>
        <time>2009-07-04T10:49:09Z</time>
      </trkpt>
      <trkpt lat="45.69404" lon="6.72353">
        <ele>1676</ele>
        <time>2009-07-04T10:49:18Z</time>
      </trkpt>
      <trkpt lat="45.69396" lon="6.72386">
        <ele>1669</ele>
        <time>2009-07-04T10:49:22Z</time>
      </trkpt>
      <trkpt lat="45.69395" lon="6.72432">
        <ele>1669</ele>
        <time>2009-07-04T10:49:27Z</time>
      </trkpt>
      <trkpt lat="45.69412" lon="6.72595">
        <ele>1658</ele>
        <time>2009-07-04T10:49:46Z</time>
      </trkpt>
      <trkpt lat="45.69408" lon="6.72723">
        <ele>1640</ele>
        <time>2009-07-04T10:50:00Z</time>
      </trkpt>
      <trkpt lat="45.69403" lon="6.72764">
        <ele>1640</ele>
        <time>2009-07-04T10:50:05Z</time>
      </trkpt>
      <trkpt lat="45.69365" lon="6.72925">
        <ele>1646</ele>
        <time>2009-07-04T10:50:24Z</time>
      </trkpt>
      <trkpt lat="45.69356" lon="6.73002">
        <ele>1640</ele>
        <time>2009-07-04T10:50:32Z</time>
      </trkpt>
      <trkpt lat="45.69337" lon="6.73105">
        <ele>1628</ele>
        <time>2009-07-04T10:50:44Z</time>
      </trkpt>
      <trkpt lat="45.69335" lon="6.73158">
        <ele>1616</ele>
        <time>2009-07-04T10:50:50Z</time>
      </trkpt>
      <trkpt lat="45.69343" lon="6.73199">
        <ele>1616</ele>
        <time>2009-07-04T10:50:55Z</time>
      </trkpt>
      <trkpt lat="45.69338" lon="6.73215">
        <ele>1594</ele>
        <time>2009-07-04T10:50:57Z</time>
      </trkpt>
      <trkpt lat="45.69272" lon="6.73255">
        <ele>1606</ele>
        <time>2009-07-04T10:51:08Z</time>
      </trkpt>
      <trkpt lat="45.69229" lon="6.7327">
        <ele>1606</ele>
        <time>2009-07-04T10:51:16Z</time>
      </trkpt>
      <trkpt lat="45.69068" lon="6.73284">
        <ele>1605</ele>
        <time>2009-07-04T10:51:41Z</time>
      </trkpt>
      <trkpt lat="45.68896" lon="6.73328">
        <ele>1573</ele>
        <time>2009-07-04T10:52:09Z</time>
      </trkpt>
      <trkpt lat="45.68869" lon="6.73325">
        <ele>1563</ele>
        <time>2009-07-04T10:52:14Z</time>
      </trkpt>
      <trkpt lat="45.68809" lon="6.73297">
        <ele>1563</ele>
        <time>2009-07-04T10:52:24Z</time>
      </trkpt>
      <trkpt lat="45.68774" lon="6.73295">
        <ele>1558</ele>
        <time>2009-07-04T10:52:29Z</time>
      </trkpt>
      <trkpt lat="45.687" lon="6.73311">
        <ele>1560</ele>
        <time>2009-07-04T10:52:41Z</time>
      </trkpt>
      <trkpt lat="45.68621" lon="6.73346">
        <ele>1570</ele>
        <time>2009-07-04T10:52:55Z</time>
      </trkpt>
      <trkpt lat="45.68599" lon="6.73379">
        <ele>1552</ele>
        <time>2009-07-04T10:53:00Z</time>
      </trkpt>
      <trkpt lat="45.68588" lon="6.73416">
        <ele>1552</ele>
        <time>2009-07-04T10:53:04Z</time>
      </trkpt>
      <trkpt lat="45.68582" lon="6.73573">
        <ele>1545</ele>
        <time>2009-07-04T10:53:22Z</time>
      </trkpt>
      <trkpt lat="45.68561" lon="6.7363">
        <ele>1536</ele>
        <time>2009-07-04T10:53:29Z</time>
      </trkpt>
      <trkpt lat="45.68522" lon="6.73692">
        <ele>1544</ele>
        <time>2009-07-04T10:53:38Z</time>
      </trkpt>
      <trkpt lat="45.68485" lon="6.73727">
        <ele>1537</ele>
        <time>2009-07-04T10:53:45Z</time>
      </trkpt>
      <trkpt lat="45.68455" lon="6.73743">
        <ele>1537</ele>
        <time>2009-07-04T10:53:51Z</time>
      </trkpt>
      <trkpt lat="45.68347" lon="6.73764">
        <ele>1540</ele>
        <time>2009-07-04T10:54:08Z</time>
      </trkpt>
      <trkpt lat="45.68322" lon="6.73779">
        <ele>1540</ele>
        <time>2009-07-04T10:54:12Z</time>
      </trkpt>
      <trkpt lat="45.68294" lon="6.73813">
        <ele>1533</ele>
        <time>2009-07-04T10:54:18Z</time>
      </trkpt>
      <trkpt lat="45.68248" lon="6.73902">
        <ele>1532</ele>
        <time>2009-07-04T10:54:31Z</time>
      </trkpt>
      <trkpt lat="45.68221" lon="6.73941">
        <ele>1532</ele>
        <time>2009-07-04T10:54:37Z</time>
      </trkpt>
      <trkpt lat="45.68195" lon="6.73964">
        <ele>1530</ele>
        <time>2009-07-04T10:54:42Z</time>
      </trkpt>
      <trkpt lat="45.68131" lon="6.73995">
        <ele>1530</ele>
        <time>2009-07-04T10:54:52Z</time>
      </trkpt>
      <trkpt lat="45.68098" lon="6.74022">
        <ele>1537</ele>
        <time>2009-07-04T10:54:59Z</time>
      </trkpt>
      <trkpt lat="45.68059" lon="6.74067">
        <ele>1525</ele>
        <time>2009-07-04T10:55:07Z</time>
      </trkpt>
      <trkpt lat="45.68003" lon="6.74115">
        <ele>1528</ele>
        <time>2009-07-04T10:55:17Z</time>
      </trkpt>
      <trkpt lat="45.67911" lon="6.74232">
        <ele>1517</ele>
        <time>2009-07-04T10:55:37Z</time>
      </trkpt>
      <trkpt lat="45.6783" lon="6.74323">
        <ele>1507</ele>
        <time>2009-07-04T10:55:53Z</time>
      </trkpt>
      <trkpt lat="45.67809" lon="6.74366">
        <ele>1507</ele>
        <time>2009-07-04T10:55:59Z</time>
      </trkpt>
      <trkpt lat="45.67723" lon="6.74625">
        <ele>1520</ele>
        <time>2009-07-04T10:56:31Z</time>
      </trkpt>
      <trkpt lat="45.67683" lon="6.74686">
        <ele>1497</ele>
        <time>2009-07-04T10:56:41Z</time>
      </trkpt>
      <trkpt lat="45.6762" lon="6.74747">
        <ele>1487</ele>
        <time>2009-07-04T10:56:53Z</time>
      </trkpt>
      <trkpt lat="45.67605" lon="6.74806">
        <ele>1494</ele>
        <time>2009-07-04T10:57:00Z</time>
      </trkpt>
      <trkpt lat="45.67566" lon="6.74867">
        <ele>1494</ele>
        <time>2009-07-04T10:57:09Z</time>
      </trkpt>
      <trkpt lat="45.6756" lon="6.74903">
        <ele>1498</ele>
        <time>2009-07-04T10:57:13Z</time>
      </trkpt>
      <trkpt lat="45.67559" lon="6.74968">
        <ele>1506</ele>
        <time>2009-07-04T10:57:20Z</time>
      </trkpt>
      <trkpt lat="45.67556" lon="6.74988">
        <ele>1506</ele>
        <time>2009-07-04T10:57:23Z</time>
      </trkpt>
      <trkpt lat="45.67545" lon="6.75015">
        <ele>1506</ele>
        <time>2009-07-04T10:57:26Z</time>
      </trkpt>
      <trkpt lat="45.67518" lon="6.75056">
        <ele>1488</ele>
        <time>2009-07-04T10:57:32Z</time>
      </trkpt>
      <trkpt lat="45.67465" lon="6.75113">
        <ele>1488</ele>
        <time>2009-07-04T10:57:43Z</time>
      </trkpt>
      <trkpt lat="45.67453" lon="6.75138">
        <ele>1479</ele>
        <time>2009-07-04T10:57:46Z</time>
      </trkpt>
      <trkpt lat="45.67418" lon="6.75186">
        <ele>1479</ele>
        <time>2009-07-04T10:57:54Z</time>
      </trkpt>
      <trkpt lat="45.67409" lon="6.75224">
        <ele>1478</ele>
        <time>2009-07-04T10:57:59Z</time>
      </trkpt>
      <trkpt lat="45.67406" lon="6.75258">
        <ele>1478</ele>
        <time>2009-07-04T10:58:03Z</time>
      </trkpt>
      <trkpt lat="45.67407" lon="6.75405">
        <ele>1493</ele>
        <time>2009-07-04T10:58:19Z</time>
      </trkpt>
      <trkpt lat="45.67393" lon="6.75447">
        <ele>1493</ele>
        <time>2009-07-04T10:58:24Z</time>
      </trkpt>
      <trkpt lat="45.67377" lon="6.75478">
        <ele>1505</ele>
        <time>2009-07-04T10:58:29Z</time>
      </trkpt>
      <trkpt lat="45.6733" lon="6.75542">
        <ele>1486</ele>
        <time>2009-07-04T10:58:39Z</time>
      </trkpt>
      <trkpt lat="45.67312" lon="6.75639">
        <ele>1503</ele>
        <time>2009-07-04T10:58:50Z</time>
      </trkpt>
      <trkpt lat="45.67297" lon="6.75683">
        <ele>1503</ele>
        <time>2009-07-04T10:58:56Z</time>
      </trkpt>
      <trkpt lat="45.67258" lon="6.75724">
        <ele>1491</ele>
        <time>2009-07-04T10:59:03Z</time>
      </trkpt>
      <trkpt lat="45.67216" lon="6.7578">
        <ele>1491</ele>
        <time>2009-07-04T10:59:13Z</time>
      </trkpt>
      <trkpt lat="45.67191" lon="6.75788">
        <ele>1474</ele>
        <time>2009-07-04T10:59:17Z</time>
      </trkpt>
      <trkpt lat="45.67121" lon="6.75792">
        <ele>1469</ele>
        <time>2009-07-04T10:59:28Z</time>
      </trkpt>
      <trkpt lat="45.67084" lon="6.7584">
        <ele>1469</ele>
        <time>2009-07-04T10:59:36Z</time>
      </trkpt>
      <trkpt lat="45.6704" lon="6.75927">
        <ele>1429</ele>
        <time>2009-07-04T10:59:48Z</time>
      </trkpt>
      <trkpt lat="45.6704" lon="6.75953">
        <ele>1429</ele>
        <time>2009-07-04T10:59:51Z</time>
      </trkpt>
      <trkpt lat="45.67093" lon="6.76013">
        <ele>1454</ele>
        <time>2009-07-04T11:00:02Z</time>
      </trkpt>
      <trkpt lat="45.67104" lon="6.76049">
        <ele>1434</ele>
        <time>2009-07-04T11:00:06Z</time>
      </trkpt>
      <trkpt lat="45.6712" lon="6.76127">
        <ele>1421</ele>
        <time>2009-07-04T11:00:15Z</time>
      </trkpt>
      <trkpt lat="45.67123" lon="6.76158">
        <ele>1421</ele>
        <time>2009-07-04T11:00:19Z</time>
      </trkpt>
      <trkpt lat="45.67123" lon="6.76275">
        <ele>1419</ele>
        <time>2009-07-04T11:00:32Z</time>
      </trkpt>
      <trkpt lat="45.671" lon="6.76389">
        <ele>1415</ele>
        <time>2009-07-04T11:00:45Z</time>
      </trkpt>
      <trkpt lat="45.67101" lon="6.76415">
        <ele>1415</ele>
        <time>2009-07-04T11:00:48Z</time>
      </trkpt>
      <trkpt lat="45.67115" lon="6.76475">
        <ele>1411</ele>
        <time>2009-07-04T11:00:55Z</time>
      </trkpt>
      <trkpt lat="45.67117" lon="6.76513">
        <ele>1411</ele>
        <time>2009-07-04T11:00:59Z</time>
      </trkpt>
      <trkpt lat="45.67103" lon="6.76582">
        <ele>1416</ele>
        <time>2009-07-04T11:01:07Z</time>
      </trkpt>
      <trkpt lat="45.67095" lon="6.76712">
        <ele>1414</ele>
        <time>2009-07-04T11:01:22Z</time>
      </trkpt>
      <trkpt lat="45.67099" lon="6.76795">
        <ele>1411</ele>
        <time>2009-07-04T11:01:31Z</time>
      </trkpt>
      <trkpt lat="45.67096" lon="6.76829">
        <ele>1411</ele>
        <time>2009-07-04T11:01:35Z</time>
      </trkpt>
      <trkpt lat="45.67073" lon="6.76935">
        <ele>1417</ele>
        <time>2009-07-04T11:01:47Z</time>
      </trkpt>
      <trkpt lat="45.67008" lon="6.7706">
        <ele>1375</ele>
        <time>2009-07-04T11:02:05Z</time>
      </trkpt>
      <trkpt lat="45.67008" lon="6.77083">
        <ele>1375</ele>
        <time>2009-07-04T11:02:07Z</time>
      </trkpt>
      <trkpt lat="45.67028" lon="6.77113">
        <ele>1375</ele>
        <time>2009-07-04T11:02:12Z</time>
      </trkpt>
      <trkpt lat="45.67028" lon="6.77129">
        <ele>1373</ele>
        <time>2009-07-04T11:02:14Z</time>
      </trkpt>
      <trkpt lat="45.67005" lon="6.77188">
        <ele>1373</ele>
        <time>2009-07-04T11:02:21Z</time>
      </trkpt>
      <trkpt lat="45.67002" lon="6.77355">
        <ele>1371</ele>
        <time>2009-07-04T11:02:40Z</time>
      </trkpt>
      <trkpt lat="45.66998" lon="6.77379">
        <ele>1375</ele>
        <time>2009-07-04T11:02:43Z</time>
      </trkpt>
      <trkpt lat="45.66987" lon="6.77406">
        <ele>1375</ele>
        <time>2009-07-04T11:02:46Z</time>
      </trkpt>
      <trkpt lat="45.66975" lon="6.77455">
        <ele>1375</ele>
        <time>2009-07-04T11:02:52Z</time>
      </trkpt>
      <trkpt lat="45.66968" lon="6.77457">
        <ele>1375</ele>
        <time>2009-07-04T11:02:53Z</time>
      </trkpt>
      <trkpt lat="45.66965" lon="6.77452">
        <ele>1375</ele>
        <time>2009-07-04T11:02:54Z</time>
      </trkpt>
      <trkpt lat="45.66973" lon="6.77395">
        <ele>1375</ele>
        <time>2009-07-04T11:03:01Z</time>
      </trkpt>
      <trkpt lat="45.66957" lon="6.77273">
        <ele>1335</ele>
        <time>2009-07-04T11:03:14Z</time>
      </trkpt>
      <trkpt lat="45.66967" lon="6.77205">
        <ele>1373</ele>
        <time>2009-07-04T11:03:22Z</time>
      </trkpt>
      <trkpt lat="45.66964" lon="6.77191">
        <ele>1373</ele>
        <time>2009-07-04T11:03:24Z</time>
      </trkpt>
      <trkpt lat="45.66953" lon="6.77194">
        <ele>1326</ele>
        <time>2009-07-04T11:03:26Z</time>
      </trkpt>
      <trkpt lat="45.6694" lon="6.77245">
        <ele>1335</ele>
        <time>2009-07-04T11:03:32Z</time>
      </trkpt>
      <trkpt lat="45.66923" lon="6.77292">
        <ele>1331</ele>
        <time>2009-07-04T11:03:38Z</time>
      </trkpt>
      <trkpt lat="45.66921" lon="6.77339">
        <ele>1331</ele>
        <time>2009-07-04T11:03:43Z</time>
      </trkpt>
      <trkpt lat="45.66929" lon="6.77411">
        <ele>1330</ele>
        <time>2009-07-04T11:03:51Z</time>
      </trkpt>
      <trkpt lat="45.66926" lon="6.77432">
        <ele>1330</ele>
        <time>2009-07-04T11:03:54Z</time>
      </trkpt>
      <trkpt lat="45.66919" lon="6.77435">
        <ele>1330</ele>
        <time>2009-07-04T11:03:55Z</time>
      </trkpt>
      <trkpt lat="45.66908" lon="6.77427">
        <ele>1330</ele>
        <time>2009-07-04T11:03:57Z</time>
      </trkpt>
      <trkpt lat="45.66903" lon="6.77385">
        <ele>1330</ele>
        <time>2009-07-04T11:04:01Z</time>
      </trkpt>
      <trkpt lat="45.66892" lon="6.77349">
        <ele>1331</ele>
        <time>2009-07-04T11:04:06Z</time>
      </trkpt>
      <trkpt lat="45.66889" lon="6.77301">
        <ele>1331</ele>
        <time>2009-07-04T11:04:11Z</time>
      </trkpt>
      <trkpt lat="45.66892" lon="6.7724">
        <ele>1335</ele>
        <time>2009-07-04T11:04:18Z</time>
      </trkpt>
      <trkpt lat="45.66889" lon="6.77219">
        <ele>1335</ele>
        <time>2009-07-04T11:04:20Z</time>
      </trkpt>
      <trkpt lat="45.66881" lon="6.77212">
        <ele>1335</ele>
        <time>2009-07-04T11:04:22Z</time>
      </trkpt>
      <trkpt lat="45.66875" lon="6.77216">
        <ele>1335</ele>
        <time>2009-07-04T11:04:23Z</time>
      </trkpt>
      <trkpt lat="45.6687" lon="6.77278">
        <ele>1293</ele>
        <time>2009-07-04T11:04:30Z</time>
      </trkpt>
      <trkpt lat="45.66861" lon="6.7733">
        <ele>1286</ele>
        <time>2009-07-04T11:04:36Z</time>
      </trkpt>
      <trkpt lat="45.66867" lon="6.77391">
        <ele>1282</ele>
        <time>2009-07-04T11:04:43Z</time>
      </trkpt>
      <trkpt lat="45.66862" lon="6.77453">
        <ele>1282</ele>
        <time>2009-07-04T11:04:50Z</time>
      </trkpt>
      <trkpt lat="45.66879" lon="6.77471">
        <ele>1330</ele>
        <time>2009-07-04T11:04:53Z</time>
      </trkpt>
      <trkpt lat="45.66881" lon="6.77488">
        <ele>1330</ele>
        <time>2009-07-04T11:04:55Z</time>
      </trkpt>
      <trkpt lat="45.66875" lon="6.77511">
        <ele>1330</ele>
        <time>2009-07-04T11:04:58Z</time>
      </trkpt>
      <trkpt lat="45.66855" lon="6.77555">
        <ele>1295</ele>
        <time>2009-07-04T11:05:04Z</time>
      </trkpt>
      <trkpt lat="45.6685" lon="6.77559">
        <ele>1295</ele>
        <time>2009-07-04T11:05:05Z</time>
      </trkpt>
      <trkpt lat="45.66841" lon="6.77555">
        <ele>1295</ele>
        <time>2009-07-04T11:05:06Z</time>
      </trkpt>
      <trkpt lat="45.6685" lon="6.77495">
        <ele>1283</ele>
        <time>2009-07-04T11:05:13Z</time>
      </trkpt>
      <trkpt lat="45.66822" lon="6.77445">
        <ele>1282</ele>
        <time>2009-07-04T11:05:20Z</time>
      </trkpt>
      <trkpt lat="45.66816" lon="6.77415">
        <ele>1282</ele>
        <time>2009-07-04T11:05:24Z</time>
      </trkpt>
      <trkpt lat="45.66816" lon="6.77364">
        <ele>1286</ele>
        <time>2009-07-04T11:05:29Z</time>
      </trkpt>
      <trkpt lat="45.66808" lon="6.77341">
        <ele>1286</ele>
        <time>2009-07-04T11:05:32Z</time>
      </trkpt>
      <trkpt lat="45.66789" lon="6.77307">
        <ele>1245</ele>
        <time>2009-07-04T11:05:37Z</time>
      </trkpt>
      <trkpt lat="45.66789" lon="6.77291">
        <ele>1249</ele>
        <time>2009-07-04T11:05:39Z</time>
      </trkpt>
      <trkpt lat="45.66814" lon="6.77258">
        <ele>1293</ele>
        <time>2009-07-04T11:05:44Z</time>
      </trkpt>
      <trkpt lat="45.6682" lon="6.77212">
        <ele>1293</ele>
        <time>2009-07-04T11:05:50Z</time>
      </trkpt>
      <trkpt lat="45.66817" lon="6.77197">
        <ele>1281</ele>
        <time>2009-07-04T11:05:51Z</time>
      </trkpt>
      <trkpt lat="45.66808" lon="6.77192">
        <ele>1281</ele>
        <time>2009-07-04T11:05:53Z</time>
      </trkpt>
      <trkpt lat="45.66802" lon="6.77196">
        <ele>1281</ele>
        <time>2009-07-04T11:05:54Z</time>
      </trkpt>
      <trkpt lat="45.66793" lon="6.77252">
        <ele>1293</ele>
        <time>2009-07-04T11:06:00Z</time>
      </trkpt>
      <trkpt lat="45.66752" lon="6.77259">
        <ele>1249</ele>
        <time>2009-07-04T11:06:07Z</time>
      </trkpt>
      <trkpt lat="45.66747" lon="6.77279">
        <ele>1249</ele>
        <time>2009-07-04T11:06:09Z</time>
      </trkpt>
      <trkpt lat="45.66764" lon="6.77352">
        <ele>1245</ele>
        <time>2009-07-04T11:06:18Z</time>
      </trkpt>
      <trkpt lat="45.66767" lon="6.77422">
        <ele>1238</ele>
        <time>2009-07-04T11:06:26Z</time>
      </trkpt>
      <trkpt lat="45.66782" lon="6.7749">
        <ele>1239</ele>
        <time>2009-07-04T11:06:34Z</time>
      </trkpt>
      <trkpt lat="45.66777" lon="6.77504">
        <ele>1239</ele>
        <time>2009-07-04T11:06:36Z</time>
      </trkpt>
      <trkpt lat="45.66765" lon="6.77499">
        <ele>1239</ele>
        <time>2009-07-04T11:06:38Z</time>
      </trkpt>
      <trkpt lat="45.66753" lon="6.77454">
        <ele>1238</ele>
        <time>2009-07-04T11:06:43Z</time>
      </trkpt>
      <trkpt lat="45.66721" lon="6.7739">
        <ele>1238</ele>
        <time>2009-07-04T11:06:52Z</time>
      </trkpt>
      <trkpt lat="45.66728" lon="6.77347">
        <ele>1245</ele>
        <time>2009-07-04T11:06:57Z</time>
      </trkpt>
      <trkpt lat="45.6671" lon="6.77305">
        <ele>1245</ele>
        <time>2009-07-04T11:07:02Z</time>
      </trkpt>
      <trkpt lat="45.66711" lon="6.77255">
        <ele>1249</ele>
        <time>2009-07-04T11:07:08Z</time>
      </trkpt>
      <trkpt lat="45.66709" lon="6.7725">
        <ele>1249</ele>
        <time>2009-07-04T11:07:09Z</time>
      </trkpt>
      <trkpt lat="45.667" lon="6.77248">
        <ele>1212</ele>
        <time>2009-07-04T11:07:10Z</time>
      </trkpt>
      <trkpt lat="45.66687" lon="6.77301">
        <ele>1209</ele>
        <time>2009-07-04T11:07:16Z</time>
      </trkpt>
      <trkpt lat="45.66673" lon="6.77334">
        <ele>1209</ele>
        <time>2009-07-04T11:07:21Z</time>
      </trkpt>
      <trkpt lat="45.6667" lon="6.77365">
        <ele>1209</ele>
        <time>2009-07-04T11:07:24Z</time>
      </trkpt>
      <trkpt lat="45.66698" lon="6.77433">
        <ele>1209</ele>
        <time>2009-07-04T11:07:33Z</time>
      </trkpt>
      <trkpt lat="45.667" lon="6.77456">
        <ele>1209</ele>
        <time>2009-07-04T11:07:36Z</time>
      </trkpt>
      <trkpt lat="45.66694" lon="6.77486">
        <ele>1211</ele>
        <time>2009-07-04T11:07:39Z</time>
      </trkpt>
      <trkpt lat="45.66669" lon="6.77543">
        <ele>1213</ele>
        <time>2009-07-04T11:07:47Z</time>
      </trkpt>
      <trkpt lat="45.6666" lon="6.77603">
        <ele>1213</ele>
        <time>2009-07-04T11:07:53Z</time>
      </trkpt>
      <trkpt lat="45.66651" lon="6.77622">
        <ele>1213</ele>
        <time>2009-07-04T11:07:56Z</time>
      </trkpt>
      <trkpt lat="45.66646" lon="6.77626">
        <ele>1224</ele>
        <time>2009-07-04T11:07:57Z</time>
      </trkpt>
      <trkpt lat="45.66637" lon="6.77624">
        <ele>1213</ele>
        <time>2009-07-04T11:07:58Z</time>
      </trkpt>
      <trkpt lat="45.6663" lon="6.77576">
        <ele>1213</ele>
        <time>2009-07-04T11:08:04Z</time>
      </trkpt>
      <trkpt lat="45.66601" lon="6.77546">
        <ele>1188</ele>
        <time>2009-07-04T11:08:10Z</time>
      </trkpt>
      <trkpt lat="45.666" lon="6.7753">
        <ele>1181</ele>
        <time>2009-07-04T11:08:11Z</time>
      </trkpt>
      <trkpt lat="45.66613" lon="6.77494">
        <ele>1181</ele>
        <time>2009-07-04T11:08:16Z</time>
      </trkpt>
      <trkpt lat="45.66615" lon="6.77474">
        <ele>1181</ele>
        <time>2009-07-04T11:08:18Z</time>
      </trkpt>
      <trkpt lat="45.66608" lon="6.77455">
        <ele>1184</ele>
        <time>2009-07-04T11:08:21Z</time>
      </trkpt>
      <trkpt lat="45.66598" lon="6.77452">
        <ele>1184</ele>
        <time>2009-07-04T11:08:22Z</time>
      </trkpt>
      <trkpt lat="45.6658" lon="6.77473">
        <ele>1181</ele>
        <time>2009-07-04T11:08:26Z</time>
      </trkpt>
      <trkpt lat="45.66571" lon="6.77498">
        <ele>1181</ele>
        <time>2009-07-04T11:08:29Z</time>
      </trkpt>
      <trkpt lat="45.66525" lon="6.77588">
        <ele>1166</ele>
        <time>2009-07-04T11:08:42Z</time>
      </trkpt>
      <trkpt lat="45.66503" lon="6.77668">
        <ele>1174</ele>
        <time>2009-07-04T11:08:51Z</time>
      </trkpt>
      <trkpt lat="45.66485" lon="6.77716">
        <ele>1183</ele>
        <time>2009-07-04T11:08:57Z</time>
      </trkpt>
      <trkpt lat="45.66447" lon="6.77767">
        <ele>1158</ele>
        <time>2009-07-04T11:09:06Z</time>
      </trkpt>
      <trkpt lat="45.66372" lon="6.77824">
        <ele>1160</ele>
        <time>2009-07-04T11:09:19Z</time>
      </trkpt>
      <trkpt lat="45.6631" lon="6.77926">
        <ele>1171</ele>
        <time>2009-07-04T11:09:34Z</time>
      </trkpt>
      <trkpt lat="45.66292" lon="6.77938">
        <ele>1171</ele>
        <time>2009-07-04T11:09:38Z</time>
      </trkpt>
      <trkpt lat="45.66244" lon="6.77933">
        <ele>1151</ele>
        <time>2009-07-04T11:09:45Z</time>
      </trkpt>
      <trkpt lat="45.66227" lon="6.77938">
        <ele>1151</ele>
        <time>2009-07-04T11:09:48Z</time>
      </trkpt>
      <trkpt lat="45.66192" lon="6.77993">
        <ele>1142</ele>
        <time>2009-07-04T11:09:56Z</time>
      </trkpt>
      <trkpt lat="45.66146" lon="6.78029">
        <ele>1142</ele>
        <time>2009-07-04T11:10:05Z</time>
      </trkpt>
      <trkpt lat="45.6612" lon="6.78043">
        <ele>1139</ele>
        <time>2009-07-04T11:10:09Z</time>
      </trkpt>
      <trkpt lat="45.66091" lon="6.7807">
        <ele>1139</ele>
        <time>2009-07-04T11:10:15Z</time>
      </trkpt>
      <trkpt lat="45.66078" lon="6.78086">
        <ele>1139</ele>
        <time>2009-07-04T11:10:17Z</time>
      </trkpt>
      <trkpt lat="45.66039" lon="6.78157">
        <ele>1132</ele>
        <time>2009-07-04T11:10:28Z</time>
      </trkpt>
      <trkpt lat="45.6602" lon="6.78176">
        <ele>1132</ele>
        <time>2009-07-04T11:10:31Z</time>
      </trkpt>
      <trkpt lat="45.65955" lon="6.78181">
        <ele>1119</ele>
        <time>2009-07-04T11:10:42Z</time>
      </trkpt>
      <trkpt lat="45.65927" lon="6.78191">
        <ele>1119</ele>
        <time>2009-07-04T11:10:46Z</time>
      </trkpt>
      <trkpt lat="45.65904" lon="6.78215">
        <ele>1129</ele>
        <time>2009-07-04T11:10:51Z</time>
      </trkpt>
      <trkpt lat="45.65858" lon="6.7828">
        <ele>1106</ele>
        <time>2009-07-04T11:11:01Z</time>
      </trkpt>
      <trkpt lat="45.65736" lon="6.78329">
        <ele>1102</ele>
        <time>2009-07-04T11:11:22Z</time>
      </trkpt>
      <trkpt lat="45.65678" lon="6.78369">
        <ele>1093</ele>
        <time>2009-07-04T11:11:32Z</time>
      </trkpt>
      <trkpt lat="45.65404" lon="6.78647">
        <ele>1072</ele>
        <time>2009-07-04T11:12:26Z</time>
      </trkpt>
      <trkpt lat="45.6538" lon="6.7867">
        <ele>1072</ele>
        <time>2009-07-04T11:12:30Z</time>
      </trkpt>
      <trkpt lat="45.65336" lon="6.78699">
        <ele>1063</ele>
        <time>2009-07-04T11:12:38Z</time>
      </trkpt>
      <trkpt lat="45.65304" lon="6.78706">
        <ele>1063</ele>
        <time>2009-07-04T11:12:43Z</time>
      </trkpt>
      <trkpt lat="45.65248" lon="6.78699">
        <ele>1057</ele>
        <time>2009-07-04T11:12:52Z</time>
      </trkpt>
      <trkpt lat="45.65228" lon="6.78701">
        <ele>1057</ele>
        <time>2009-07-04T11:12:55Z</time>
      </trkpt>
      <trkpt lat="45.65198" lon="6.78714">
        <ele>1052</ele>
        <time>2009-07-04T11:13:00Z</time>
      </trkpt>
      <trkpt lat="45.65136" lon="6.78769">
        <ele>1052</ele>
        <time>2009-07-04T11:13:12Z</time>
      </trkpt>
      <trkpt lat="45.65064" lon="6.7879">
        <ele>1034</ele>
        <time>2009-07-04T11:13:24Z</time>
      </trkpt>
      <trkpt lat="45.65013" lon="6.7879">
        <ele>1025</ele>
        <time>2009-07-04T11:13:32Z</time>
      </trkpt>
      <trkpt lat="45.64942" lon="6.78766">
        <ele>1010</ele>
        <time>2009-07-04T11:13:44Z</time>
      </trkpt>
      <trkpt lat="45.64834" lon="6.78673">
        <ele>1010</ele>
        <time>2009-07-04T11:14:04Z</time>
      </trkpt>
      <trkpt lat="45.64776" lon="6.78633">
        <ele>1006</ele>
        <time>2009-07-04T11:14:14Z</time>
      </trkpt>
      <trkpt lat="45.64736" lon="6.78617">
        <ele>1021</ele>
        <time>2009-07-04T11:14:21Z</time>
      </trkpt>
      <trkpt lat="45.64627" lon="6.78612">
        <ele>1016</ele>
        <time>2009-07-04T11:14:38Z</time>
      </trkpt>
      <trkpt lat="45.64557" lon="6.78587">
        <ele>1006</ele>
        <time>2009-07-04T11:14:50Z</time>
      </trkpt>
      <trkpt lat="45.64504" lon="6.78584">
        <ele>1029</ele>
        <time>2009-07-04T11:14:58Z</time>
      </trkpt>
      <trkpt lat="45.64406" lon="6.7859">
        <ele>1021</ele>
        <time>2009-07-04T11:15:14Z</time>
      </trkpt>
      <trkpt lat="45.64214" lon="6.7862">
        <ele>1023</ele>
        <time>2009-07-04T11:15:45Z</time>
      </trkpt>
      <trkpt lat="45.64187" lon="6.78616">
        <ele>988</ele>
        <time>2009-07-04T11:15:49Z</time>
      </trkpt>
      <trkpt lat="45.64176" lon="6.78611">
        <ele>988</ele>
        <time>2009-07-04T11:15:51Z</time>
      </trkpt>
      <trkpt lat="45.64065" lon="6.7851">
        <ele>1009</ele>
        <time>2009-07-04T11:16:12Z</time>
      </trkpt>
      <trkpt lat="45.64019" lon="6.78492">
        <ele>982</ele>
        <time>2009-07-04T11:16:20Z</time>
      </trkpt>
      <trkpt lat="45.63959" lon="6.78483">
        <ele>982</ele>
        <time>2009-07-04T11:16:30Z</time>
      </trkpt>
      <trkpt lat="45.63896" lon="6.78436">
        <ele>1006</ele>
        <time>2009-07-04T11:16:41Z</time>
      </trkpt>
      <trkpt lat="45.63886" lon="6.78435">
        <ele>1006</ele>
        <time>2009-07-04T11:16:43Z</time>
      </trkpt>
      <trkpt lat="45.63853" lon="6.78439">
        <ele>998</ele>
        <time>2009-07-04T11:16:48Z</time>
      </trkpt>
      <trkpt lat="45.63827" lon="6.78452">
        <ele>998</ele>
        <time>2009-07-04T11:16:52Z</time>
      </trkpt>
      <trkpt lat="45.63771" lon="6.78443">
        <ele>1010</ele>
        <time>2009-07-04T11:17:01Z</time>
      </trkpt>
      <trkpt lat="45.63735" lon="6.78449">
        <ele>1010</ele>
        <time>2009-07-04T11:17:07Z</time>
      </trkpt>
      <trkpt lat="45.63707" lon="6.78462">
        <ele>984</ele>
        <time>2009-07-04T11:17:12Z</time>
      </trkpt>
      <trkpt lat="45.63641" lon="6.78518">
        <ele>984</ele>
        <time>2009-07-04T11:17:24Z</time>
      </trkpt>
      <trkpt lat="45.63556" lon="6.78537">
        <ele>984</ele>
        <time>2009-07-04T11:17:38Z</time>
      </trkpt>
      <trkpt lat="45.63416" lon="6.78534">
        <ele>992</ele>
        <time>2009-07-04T11:18:00Z</time>
      </trkpt>
      <trkpt lat="45.63372" lon="6.7852">
        <ele>965</ele>
        <time>2009-07-04T11:18:07Z</time>
      </trkpt>
      <trkpt lat="45.63349" lon="6.78501">
        <ele>965</ele>
        <time>2009-07-04T11:18:12Z</time>
      </trkpt>
      <trkpt lat="45.63312" lon="6.78485">
        <ele>965</ele>
        <time>2009-07-04T11:18:18Z</time>
      </trkpt>
      <trkpt lat="45.63231" lon="6.78419">
        <ele>973</ele>
        <time>2009-07-04T11:18:33Z</time>
      </trkpt>
      <trkpt lat="45.63194" lon="6.78412">
        <ele>959</ele>
        <time>2009-07-04T11:18:39Z</time>
      </trkpt>
      <trkpt lat="45.63096" lon="6.78409">
        <ele>954</ele>
        <time>2009-07-04T11:18:55Z</time>
      </trkpt>
      <trkpt lat="45.63051" lon="6.78398">
        <ele>954</ele>
        <time>2009-07-04T11:19:02Z</time>
      </trkpt>
      <trkpt lat="45.63019" lon="6.78384">
        <ele>945</ele>
        <time>2009-07-04T11:19:07Z</time>
      </trkpt>
      <trkpt lat="45.62977" lon="6.78354">
        <ele>954</ele>
        <time>2009-07-04T11:19:15Z</time>
      </trkpt>
      <trkpt lat="45.62925" lon="6.78308">
        <ele>942</ele>
        <time>2009-07-04T11:19:24Z</time>
      </trkpt>
      <trkpt lat="45.629" lon="6.78298">
        <ele>942</ele>
        <time>2009-07-04T11:19:29Z</time>
      </trkpt>
      <trkpt lat="45.62886" lon="6.78306">
        <ele>942</ele>
        <time>2009-07-04T11:19:31Z</time>
      </trkpt>
      <trkpt lat="45.62868" lon="6.78341">
        <ele>928</ele>
        <time>2009-07-04T11:19:36Z</time>
      </trkpt>
      <trkpt lat="45.62867" lon="6.78372">
        <ele>928</ele>
        <time>2009-07-04T11:19:39Z</time>
      </trkpt>
      <trkpt lat="45.62876" lon="6.78431">
        <ele>935</ele>
        <time>2009-07-04T11:19:46Z</time>
      </trkpt>
      <trkpt lat="45.62896" lon="6.78463">
        <ele>923</ele>
        <time>2009-07-04T11:19:51Z</time>
      </trkpt>
      <trkpt lat="45.62981" lon="6.78531">
        <ele>935</ele>
        <time>2009-07-04T11:20:07Z</time>
      </trkpt>
      <trkpt lat="45.62986" lon="6.78539">
        <ele>935</ele>
        <time>2009-07-04T11:20:08Z</time>
      </trkpt>
      <trkpt lat="45.62986" lon="6.78549">
        <ele>919</ele>
        <time>2009-07-04T11:20:09Z</time>
      </trkpt>
      <trkpt lat="45.62972" lon="6.78552">
        <ele>919</ele>
        <time>2009-07-04T11:20:11Z</time>
      </trkpt>
      <trkpt lat="45.62938" lon="6.78536">
        <ele>923</ele>
        <time>2009-07-04T11:20:17Z</time>
      </trkpt>
      <trkpt lat="45.62891" lon="6.78528">
        <ele>923</ele>
        <time>2009-07-04T11:20:24Z</time>
      </trkpt>
      <trkpt lat="45.6287" lon="6.78512">
        <ele>901</ele>
        <time>2009-07-04T11:20:28Z</time>
      </trkpt>
      <trkpt lat="45.62847" lon="6.78485">
        <ele>901</ele>
        <time>2009-07-04T11:20:33Z</time>
      </trkpt>
      <trkpt lat="45.62811" lon="6.78413">
        <ele>917</ele>
        <time>2009-07-04T11:20:43Z</time>
      </trkpt>
      <trkpt lat="45.62781" lon="6.7838">
        <ele>888</ele>
        <time>2009-07-04T11:20:49Z</time>
      </trkpt>
      <trkpt lat="45.62771" lon="6.78356">
        <ele>898</ele>
        <time>2009-07-04T11:20:52Z</time>
      </trkpt>
      <trkpt lat="45.62741" lon="6.7818">
        <ele>902</ele>
        <time>2009-07-04T11:21:12Z</time>
      </trkpt>
      <trkpt lat="45.62689" lon="6.7808">
        <ele>877</ele>
        <time>2009-07-04T11:21:26Z</time>
      </trkpt>
      <trkpt lat="45.62654" lon="6.7798">
        <ele>881</ele>
        <time>2009-07-04T11:21:39Z</time>
      </trkpt>
      <trkpt lat="45.62613" lon="6.77922">
        <ele>860</ele>
        <time>2009-07-04T11:21:48Z</time>
      </trkpt>
      <trkpt lat="45.62605" lon="6.77903">
        <ele>860</ele>
        <time>2009-07-04T11:21:51Z</time>
      </trkpt>
      <trkpt lat="45.62603" lon="6.77855">
        <ele>865</ele>
        <time>2009-07-04T11:21:56Z</time>
      </trkpt>
      <trkpt lat="45.62615" lon="6.77803">
        <ele>865</ele>
        <time>2009-07-04T11:22:02Z</time>
      </trkpt>
      <trkpt lat="45.62614" lon="6.77782">
        <ele>881</ele>
        <time>2009-07-04T11:22:04Z</time>
      </trkpt>
      <trkpt lat="45.62599" lon="6.77769">
        <ele>881</ele>
        <time>2009-07-04T11:22:07Z</time>
      </trkpt>
      <trkpt lat="45.62564" lon="6.77776">
        <ele>881</ele>
        <time>2009-07-04T11:22:13Z</time>
      </trkpt>
      <trkpt lat="45.62531" lon="6.77772">
        <ele>850</ele>
        <time>2009-07-04T11:22:18Z</time>
      </trkpt>
      <trkpt lat="45.62516" lon="6.77757">
        <ele>850</ele>
        <time>2009-07-04T11:22:21Z</time>
      </trkpt>
      <trkpt lat="45.62507" lon="6.7774">
        <ele>850</ele>
        <time>2009-07-04T11:22:24Z</time>
      </trkpt>
      <trkpt lat="45.62486" lon="6.77655">
        <ele>854</ele>
        <time>2009-07-04T11:22:34Z</time>
      </trkpt>
      <trkpt lat="45.62497" lon="6.77583">
        <ele>856</ele>
        <time>2009-07-04T11:22:42Z</time>
      </trkpt>
      <trkpt lat="45.62493" lon="6.77543">
        <ele>856</ele>
        <time>2009-07-04T11:22:46Z</time>
      </trkpt>
      <trkpt lat="45.62473" lon="6.77492">
        <ele>860</ele>
        <time>2009-07-04T11:22:53Z</time>
      </trkpt>
      <trkpt lat="45.62455" lon="6.77428">
        <ele>826</ele>
        <time>2009-07-04T11:23:01Z</time>
      </trkpt>
      <trkpt lat="45.62421" lon="6.77358">
        <ele>836</ele>
        <time>2009-07-04T11:23:10Z</time>
      </trkpt>
      <trkpt lat="45.62376" lon="6.7723">
        <ele>852</ele>
        <time>2009-07-04T11:23:26Z</time>
      </trkpt>
      <trkpt lat="45.6231" lon="6.77131">
        <ele>830</ele>
        <time>2009-07-04T11:23:42Z</time>
      </trkpt>
      <trkpt lat="45.62264" lon="6.77099">
        <ele>821</ele>
        <time>2009-07-04T11:23:50Z</time>
      </trkpt>
      <trkpt lat="45.62203" lon="6.7708">
        <ele>817</ele>
        <time>2009-07-04T11:24:00Z</time>
      </trkpt>
      <trkpt lat="45.62176" lon="6.77077">
        <ele>817</ele>
        <time>2009-07-04T11:24:04Z</time>
      </trkpt>
      <trkpt lat="45.62066" lon="6.77084">
        <ele>816</ele>
        <time>2009-07-04T11:24:22Z</time>
      </trkpt>
      <trkpt lat="45.62045" lon="6.77095">
        <ele>816</ele>
        <time>2009-07-04T11:24:25Z</time>
      </trkpt>
      <trkpt lat="45.6204" lon="6.77088">
        <ele>815</ele>
        <time>2009-07-04T11:24:26Z</time>
      </trkpt>
      <trkpt lat="45.62034" lon="6.77088">
        <ele>815</ele>
        <time>2009-07-04T11:24:27Z</time>
      </trkpt>
      <trkpt lat="45.62028" lon="6.77095">
        <ele>815</ele>
        <time>2009-07-04T11:24:29Z</time>
      </trkpt>
      <trkpt lat="45.61811" lon="6.77081">
        <ele>818</ele>
        <time>2009-07-04T11:25:03Z</time>
      </trkpt>
      <trkpt lat="45.61744" lon="6.77061">
        <ele>815</ele>
        <time>2009-07-04T11:25:14Z</time>
      </trkpt>
      <trkpt lat="45.61624" lon="6.77003">
        <ele>826</ele>
        <time>2009-07-04T11:25:35Z</time>
      </trkpt>
      <trkpt lat="45.61587" lon="6.76973">
        <ele>826</ele>
        <time>2009-07-04T11:25:42Z</time>
      </trkpt>
      <trkpt lat="45.61541" lon="6.76917">
        <ele>832</ele>
        <time>2009-07-04T11:25:51Z</time>
      </trkpt>
      <trkpt lat="45.61442" lon="6.76719">
        <ele>839</ele>
        <time>2009-07-04T11:26:18Z</time>
      </trkpt>
      <trkpt lat="45.61384" lon="6.76632">
        <ele>845</ele>
        <time>2009-07-04T11:26:32Z</time>
      </trkpt>
      <trkpt lat="45.61386" lon="6.76613">
        <ele>851</ele>
        <time>2009-07-04T11:26:34Z</time>
      </trkpt>
      <trkpt lat="45.61381" lon="6.76606">
        <ele>851</ele>
        <time>2009-07-04T11:26:35Z</time>
      </trkpt>
      <trkpt lat="45.6137" lon="6.7661">
        <ele>851</ele>
        <time>2009-07-04T11:26:37Z</time>
      </trkpt>
      <trkpt lat="45.61309" lon="6.76576">
        <ele>851</ele>
        <time>2009-07-04T11:26:47Z</time>
      </trkpt>
      <trkpt lat="45.61181" lon="6.76527">
        <ele>853</ele>
        <time>2009-07-04T11:27:09Z</time>
      </trkpt>
      <trkpt lat="45.6113" lon="6.76502">
        <ele>853</ele>
        <time>2009-07-04T11:27:17Z</time>
      </trkpt>
      <trkpt lat="45.61115" lon="6.76488">
        <ele>849</ele>
        <time>2009-07-04T11:27:20Z</time>
      </trkpt>
      <trkpt lat="45.61095" lon="6.76457">
        <ele>851</ele>
        <time>2009-07-04T11:27:25Z</time>
      </trkpt>
      <trkpt lat="45.61044" lon="6.76368">
        <ele>853</ele>
        <time>2009-07-04T11:27:38Z</time>
      </trkpt>
      <trkpt lat="45.61033" lon="6.76391">
        <ele>847</ele>
        <time>2009-07-04T11:27:41Z</time>
      </trkpt>
      <trkpt lat="45.61054" lon="6.76431">
        <ele>851</ele>
        <time>2009-07-04T11:27:47Z</time>
      </trkpt>
      <trkpt lat="45.61051" lon="6.76446">
        <ele>851</ele>
        <time>2009-07-04T11:27:48Z</time>
      </trkpt>
      <trkpt lat="45.61031" lon="6.76478">
        <ele>845</ele>
        <time>2009-07-04T11:27:53Z</time>
      </trkpt>
      <trkpt lat="45.6102" lon="6.76488">
        <ele>845</ele>
        <time>2009-07-04T11:27:55Z</time>
      </trkpt>
      <trkpt lat="45.61001" lon="6.76491">
        <ele>845</ele>
        <time>2009-07-04T11:27:58Z</time>
      </trkpt>
      <trkpt lat="45.60973" lon="6.7647">
        <ele>845</ele>
        <time>2009-07-04T11:28:03Z</time>
      </trkpt>
      <trkpt lat="45.60954" lon="6.76468">
        <ele>837</ele>
        <time>2009-07-04T11:28:06Z</time>
      </trkpt>
      <trkpt lat="45.6083" lon="6.76589">
        <ele>829</ele>
        <time>2009-07-04T11:28:30Z</time>
      </trkpt>
      <trkpt lat="45.60778" lon="6.76633">
        <ele>821</ele>
        <time>2009-07-04T11:28:40Z</time>
      </trkpt>
    </trkseg>
  </trk>
</gpx>